ftp/pub/palmer/observations_modified/2019/September/original_files/AR190913_BASE.txt
Download
Sample DateTime Unit Id WS Avg 2min WD Avg 2min WGS 10min WGD 10min Air Temp Rel Humidity Dew Point Pyranometer Quantum Air Pressure Snow Level Rainfall PW Current Visibility CBase 1 CBase 2 CBase 3 Vert Vis
2019/09/13 00:00:00 BASE 1.39 324 3.34 338 -11.6 71 -15.9 0 0 973.3 NA 0.0000 9999 4990 0 0 0
2019/09/13 00:01:00 BASE 1.54 307 3.34 338 -11.6 71 -15.9 0 0 973.3 NA 0.0000 9999 3870 0 0 0
2019/09/13 00:02:00 BASE 1.70 310 3.34 338 -11.7 70 -16.0 0 0 973.3 NA 0.0000 9999 3670 0 0 0
2019/09/13 00:03:00 BASE 1.49 321 3.09 325 -11.7 70 -16.0 0 0 973.3 NA 0.0000 9999 4950 0 0 0
2019/09/13 00:04:00 BASE 0.95 325 3.09 325 -11.7 69 -16.1 0 0 973.3 NA 0.0000 9999 4000 0 0 0
2019/09/13 00:05:00 BASE 0.43 315 3.09 325 -11.7 69 -16.2 0 0 973.2 NA 0.0000 9999 4070 0 0 0
2019/09/13 00:06:00 BASE 0.40 308 2.78 319 -11.6 68 -16.3 0 0 973.2 NA 0.0000 9999 4000 0 0 0
2019/09/13 00:07:00 BASE 0.48 312 2.06 312 -11.6 68 -16.4 0 0 973.1 NA 0.0000 9999 5050 0 0 0
2019/09/13 00:08:00 BASE 0.71 323 2.06 312 -11.6 67 -16.5 0 0 973.0 NA 0.0000 9999 5050 0 0 0
2019/09/13 00:09:00 BASE 1.02 334 2.57 348 -11.6 67 -16.6 0 0 973.0 NA 0.0000 9999 5090 0 0 0
2019/09/13 00:10:00 BASE 1.93 341 3.09 347 -11.6 66 -16.6 0 0 972.9 NA 0.0000 9999 4130 0 0 0
2019/09/13 00:11:00 BASE 2.72 341 3.29 337 -11.6 66 -16.6 0 0 972.9 NA 0.0000 9999 4070 0 0 0
2019/09/13 00:12:00 BASE 2.70 341 3.29 337 -11.5 66 -16.6 0 0 972.9 NA 0.0000 9999 3970 0 0 0
2019/09/13 00:13:00 BASE 2.98 343 3.45 336 -11.5 66 -16.6 0 0 972.9 NA 0.0000 9999 3870 0 0 0
2019/09/13 00:14:00 BASE 3.10 352 3.55 354 -11.4 66 -16.4 0 0 972.8 NA 0.0000 9999 3940 0 0 0
2019/09/13 00:15:00 BASE 3.14 358 3.65 360 -11.3 67 -16.3 0 0 972.8 NA 0.0000 9999 3940 0 0 0
2019/09/13 00:16:00 BASE 2.92 351 3.65 360 -11.2 67 -16.1 0 0 972.8 NA 0.0000 9999 4100 0 0 0
2019/09/13 00:17:00 BASE 1.98 358 3.65 360 -11.1 68 -15.9 0 0 972.8 NA 0.0000 9999 4100 0 0 0
2019/09/13 00:18:00 BASE 0.71 5 3.65 360 -11.0 68 -15.8 0 0 972.7 NA 0.0000 9999 2430 0 0 0
2019/09/13 00:19:00 BASE 0.25 28 3.65 360 -10.9 68 -15.6 0 0 972.7 NA 0.0000 9999 4130 0 0 0
2019/09/13 00:20:00 BASE 0.87 128 3.65 360 -10.7 68 -15.4 0 0 972.7 NA 0.0000 9999 4040 0 0 0
2019/09/13 00:21:00 BASE 0.62 185 3.65 360 -10.5 68 -15.3 0 0 972.6 NA 0.0000 9999 4130 0 0 0
2019/09/13 00:22:00 BASE 0.00 172 3.65 360 -10.3 68 -15.2 0 0 972.6 NA 0.0000 9999 4100 0 0 0
2019/09/13 00:23:00 BASE 0.00 129 3.65 360 -10.1 67 -15.1 0 0 972.6 NA 0.0000 9999 4170 0 0 0
2019/09/13 00:24:00 BASE 0.00 129 3.65 360 -10.0 66 -15.1 0 0 972.6 NA 0.0000 9999 4130 0 0 0
2019/09/13 00:25:00 BASE 0.00 176 2.98 352 -10.0 66 -15.2 0 0 972.5 NA 0.0000 9999 4100 0 0 0
2019/09/13 00:26:00 BASE 0.33 258 2.31 8 -10.1 65 -15.4 0 0 972.4 NA 0.0000 9999 4790 0 0 0
2019/09/13 00:27:00 BASE 0.93 267 1.85 128 -10.3 65 -15.5 0 0 972.4 NA 0.0000 9999 4660 0 0 0
2019/09/13 00:28:00 BASE 1.24 277 1.90 303 -10.5 66 -15.6 0 0 972.4 NA 0.0000 9999 4590 0 0 0
2019/09/13 00:29:00 BASE 1.35 295 1.90 303 -10.6 67 -15.6 0 0 972.4 NA 0.0000 9999 4590 0 0 0
2019/09/13 00:30:00 BASE 1.45 309 1.90 317 -10.8 68 -15.6 0 0 972.4 NA 0.0000 9999 4230 0 0 0
2019/09/13 00:31:00 BASE 1.79 299 2.62 265 -10.9 69 -15.5 0 0 972.3 NA 0.0000 9999 4170 0 0 0
2019/09/13 00:32:00 BASE 1.76 272 2.62 265 -10.9 70 -15.3 0 0 972.3 NA 0.0000 9999 4000 0 0 0
2019/09/13 00:33:00 BASE 1.43 266 2.62 265 -10.9 71 -15.1 0 0 972.3 NA 0.0000 9999 4070 0 0 0
2019/09/13 00:34:00 BASE 1.10 269 2.62 265 -10.8 71 -15.0 0 0 972.3 NA 0.0000 9999 4000 0 0 0
2019/09/13 00:35:00 BASE 1.18 252 2.62 265 -10.8 72 -14.9 0 0 972.3 NA 0.0000 9999 3900 0 0 0
2019/09/13 00:36:00 BASE 1.82 231 2.62 265 -10.7 72 -14.7 0 0 972.3 NA 0.0000 9999 3870 0 0 0
2019/09/13 00:37:00 BASE 2.17 227 2.62 265 -10.7 72 -14.7 0 0 972.3 NA 0.0000 9999 3870 0 0 0
2019/09/13 00:38:00 BASE 2.51 229 3.24 219 -10.6 72 -14.7 0 0 972.3 NA 0.0000 9999 3870 0 0 0
2019/09/13 00:39:00 BASE 2.15 230 3.24 219 -10.6 72 -14.7 0 0 972.2 NA 0.0000 9999 3810 0 0 0
2019/09/13 00:40:00 BASE 1.17 237 3.24 219 -10.7 72 -14.7 0 0 972.2 NA 0.0000 9999 3810 0 0 0
2019/09/13 00:41:00 BASE 0.44 244 3.24 219 -10.7 72 -14.7 0 0 972.2 NA 0.0000 9999 4070 0 0 0
2019/09/13 00:42:00 BASE 0.05 260 3.24 219 -10.7 72 -14.7 0 0 972.2 NA 0.0000 9999 3870 0 0 0
2019/09/13 00:43:00 BASE 0.00 292 3.24 219 -10.7 73 -14.7 0 0 972.1 NA 0.0000 9999 3870 0 0 0
2019/09/13 00:44:00 BASE 0.58 328 3.24 219 -10.7 73 -14.6 0 0 972.1 NA 0.0000 9999 3770 0 0 0
2019/09/13 00:45:00 BASE 1.41 354 3.24 219 -10.7 73 -14.6 0 0 972.1 NA 0.0000 9999 3900 0 0 0
2019/09/13 00:46:00 BASE 1.63 17 3.24 219 -10.6 73 -14.6 0 0 972.0 NA 0.0000 9999 4200 0 0 0
2019/09/13 00:47:00 BASE 1.96 20 3.24 219 -10.6 73 -14.6 0 0 972.0 NA 0.0000 9999 4070 0 0 0
2019/09/13 00:48:00 BASE 2.13 28 2.68 9 -10.6 73 -14.5 0 0 972.1 NA 0.0000 9999 3770 0 0 0
2019/09/13 00:49:00 BASE 1.59 39 2.68 9 -10.6 73 -14.5 0 0 972.0 NA 0.0000 9999 3900 0 0 0
2019/09/13 00:50:00 BASE 1.76 30 2.68 9 -10.5 73 -14.4 0 0 972.0 NA 0.0000 9999 4040 0 0 0
2019/09/13 00:51:00 BASE 2.53 26 3.19 17 -10.4 73 -14.3 0 0 972.0 NA 0.0000 9999 4100 0 0 0
2019/09/13 00:52:00 BASE 2.37 31 3.19 17 -10.3 72 -14.3 0 0 972.0 NA 0.0000 9999 4100 0 0 0
2019/09/13 00:53:00 BASE 1.98 22 3.19 17 -10.2 72 -14.3 0 0 971.9 NA 0.0000 9999 3970 0 0 0
2019/09/13 00:54:00 BASE 1.95 360 3.19 17 -10.1 71 -14.3 0 0 971.8 NA 0.0000 9999 3970 0 0 0
2019/09/13 00:55:00 BASE 1.95 345 3.19 17 -10.0 70 -14.4 0 0 971.8 NA 0.0000 9999 3840 0 0 0
2019/09/13 00:56:00 BASE 1.90 335 3.19 17 -9.9 70 -14.4 0 0 971.8 NA 0.0000 9999 4270 0 0 0
2019/09/13 00:57:00 BASE 1.87 330 3.19 17 -9.8 69 -14.4 0 0 971.8 NA 0.0000 9999 4330 0 0 0
2019/09/13 00:58:00 BASE 1.90 329 3.19 17 -9.7 68 -14.5 0 0 971.8 NA 0.0000 9999 4400 0 0 0
2019/09/13 00:59:00 BASE 1.33 332 3.19 17 -9.7 68 -14.5 0 0 971.7 NA 0.0000 9999 4720 0 0 0
2019/09/13 01:00:00 BASE 0.41 334 3.19 17 -9.6 68 -14.4 0 0 971.7 NA 0.0000 9999 4790 0 0 0
2019/09/13 01:01:00 BASE 0.13 327 2.93 354 -9.6 68 -14.3 0 0 971.7 NA 0.0000 9999 4950 0 0 0
2019/09/13 01:02:00 BASE 0.13 320 2.93 354 -9.6 69 -14.2 0 0 971.7 NA 0.0000 9999 5220 0 0 0
2019/09/13 01:03:00 BASE 0.00 318 2.31 343 -9.6 69 -14.2 0 0 971.7 NA 0.0000 9999 5180 0 0 0
2019/09/13 01:04:00 BASE 0.00 306 2.31 343 -9.7 70 -14.2 0 0 971.7 NA 0.0000 9999 5050 0 0 0
2019/09/13 01:05:00 BASE 0.00 314 2.21 323 -9.6 70 -14.0 0 0 971.7 NA 0.0000 9999 3900 0 0 0
2019/09/13 01:06:00 BASE 0.00 345 2.21 323 -9.5 71 -13.9 0 0 971.7 NA 0.0000 9999 2200 0 0 0
2019/09/13 01:07:00 BASE 0.00 7 2.16 322 -9.5 71 -13.9 0 0 971.6 NA 0.0000 9999 4890 0 0 0
2019/09/13 01:08:00 BASE 0.00 351 1.65 351 -9.5 71 -13.8 0 0 971.6 NA 0.0000 9999 4790 0 0 0
2019/09/13 01:09:00 BASE 0.00 324 1.03 324 -9.5 70 -13.9 0 0 971.6 NA 0.0000 9999 4820 0 0 0
2019/09/13 01:10:00 BASE 0.09 310 1.03 289 -9.4 70 -13.8 0 0 971.6 NA 0.0000 9999 4990 0 0 0
2019/09/13 01:11:00 BASE 0.09 288 1.03 289 -9.4 70 -13.8 0 0 971.5 NA 0.0000 9999 5050 0 0 0
2019/09/13 01:12:00 BASE 0.00 280 1.03 289 -9.2 70 -13.6 0 0 971.5 NA 0.0000 9999 5090 0 0 0
2019/09/13 01:13:00 BASE 0.00 354 1.03 289 -8.9 69 -13.5 0 0 971.5 NA 0.0000 9999 5020 0 0 0
2019/09/13 01:14:00 BASE 0.09 17 1.13 340 -8.7 68 -13.5 0 0 971.5 NA 0.0000 9999 4820 0 0 0
2019/09/13 01:15:00 BASE 0.87 340 1.95 321 -8.8 67 -13.7 0 0 971.5 NA 0.0000 9999 4820 0 0 0
2019/09/13 01:16:00 BASE 1.80 316 2.78 307 -9.0 67 -14.0 0 0 971.5 NA 0.0000 9999 4200 0 0 0
2019/09/13 01:17:00 BASE 2.26 309 2.88 301 -9.2 67 -14.2 0 0 971.6 NA 0.0000 9999 4720 0 0 0
2019/09/13 01:18:00 BASE 2.20 313 2.88 301 -9.5 68 -14.4 0 0 971.6 NA 0.0000 9999 4560 0 0 0
2019/09/13 01:19:00 BASE 1.71 323 2.88 301 -9.8 69 -14.3 0 0 971.5 NA 0.0000 9999 4490 0 0 0
2019/09/13 01:20:00 BASE 1.39 324 2.88 301 -9.9 71 -14.2 0 0 971.5 NA 0.0000 9999 4530 0 0 0
2019/09/13 01:21:00 BASE 1.29 317 2.88 301 -9.9 72 -14.1 0 0 971.5 NA 0.0000 9999 4460 0 0 0
2019/09/13 01:22:00 BASE 1.31 299 2.88 301 -9.9 72 -14.0 0 0 971.5 NA 0.0000 9999 4490 0 0 0
2019/09/13 01:23:00 BASE 1.37 295 2.88 301 -9.9 73 -13.8 0 0 971.5 NA 0.0000 9999 4530 0 0 0
2019/09/13 01:24:00 BASE 1.70 318 2.88 301 -9.9 73 -13.8 0 0 971.4 NA 0.0000 9999 4630 0 0 0
2019/09/13 01:25:00 BASE 2.34 330 3.19 329 -9.9 74 -13.8 0 0 971.4 NA 0.0000 9999 4660 0 0 0
2019/09/13 01:26:00 BASE 2.93 330 3.24 327 -10.0 74 -13.8 0 0 971.4 NA 0.0000 9999 4660 0 0 0
2019/09/13 01:27:00 BASE 3.18 333 3.45 342 -10.0 74 -13.8 0 0 971.4 NA 0.0000 9999 4690 0 0 0
2019/09/13 01:28:00 BASE 3.37 340 3.76 345 -10.0 74 -13.8 0 0 971.3 NA 0.0000 9999 4630 0 0 0
2019/09/13 01:29:00 BASE 3.37 341 3.81 343 -10.1 74 -13.8 0 0 971.3 NA 0.0000 9999 4660 0 0 0
2019/09/13 01:30:00 BASE 3.25 338 3.81 343 -10.1 74 -13.9 0 0 971.3 NA 0.0000 9999 4590 0 0 0
2019/09/13 01:31:00 BASE 3.17 336 3.81 343 -10.1 74 -13.8 0 0 971.3 NA 0.0000 9999 4630 0 0 0
2019/09/13 01:32:00 BASE 2.99 337 3.81 343 -10.1 74 -13.8 0 0 971.3 NA 0.0000 9999 4660 0 0 0
2019/09/13 01:33:00 BASE 3.09 340 3.81 343 -10.0 74 -13.8 0 0 971.3 NA 0.0000 9999 4790 0 0 0
2019/09/13 01:34:00 BASE 3.35 346 3.81 343 -10.0 74 -13.8 0 0 971.3 NA 0.0000 9999 4950 0 0 0
2019/09/13 01:35:00 BASE 3.50 350 3.81 343 -9.9 73 -13.8 0 0 971.3 NA 0.0000 9999 5020 0 0 0
2019/09/13 01:36:00 BASE 3.81 353 4.37 353 -9.9 73 -13.8 0 0 971.2 NA 0.0000 9999 5050 0 0 0
2019/09/13 01:37:00 BASE 4.17 351 4.48 350 -9.8 72 -13.9 0 0 971.2 NA 0.0000 9999 5090 0 0 0
2019/09/13 01:38:00 BASE 4.31 344 4.58 346 -9.8 72 -13.9 0 0 971.2 NA 0.0000 9999 4490 0 0 0
2019/09/13 01:39:00 BASE 3.98 339 4.58 346 -9.8 72 -13.9 0 0 971.2 NA 0.0000 9999 5280 0 0 0
2019/09/13 01:40:00 BASE 3.72 333 4.58 346 -9.8 72 -13.9 0 0 971.2 NA 0.0000 9999 4560 0 0 0
2019/09/13 01:41:00 BASE 3.70 328 4.58 346 -9.8 72 -13.9 0 0 971.2 NA 0.0000 9999 4300 0 0 0
2019/09/13 01:42:00 BASE 3.40 330 4.58 346 -9.7 71 -14.0 0 0 971.2 NA 0.0000 9999 4270 0 0 0
2019/09/13 01:43:00 BASE 3.24 334 4.58 346 -9.7 71 -14.0 0 0 971.2 NA 0.0000 9999 5150 0 0 0
2019/09/13 01:44:00 BASE 3.16 336 4.58 346 -9.7 71 -14.0 0 0 971.2 NA 0.0000 9999 4950 0 0 0
2019/09/13 01:45:00 BASE 2.70 340 4.58 346 -9.7 71 -14.1 0 0 971.2 NA 0.0000 9999 4920 0 0 0
2019/09/13 01:46:00 BASE 2.12 345 4.58 346 -9.7 71 -14.1 0 0 971.2 NA 0.0000 9999 4760 0 0 0
2019/09/13 01:47:00 BASE 2.23 346 4.58 346 -9.7 71 -14.1 0 0 971.2 NA 0.0000 9999 4720 0 0 0
2019/09/13 01:48:00 BASE 2.48 334 4.27 327 -9.7 71 -14.0 0 0 971.2 NA 0.0000 9999 4330 0 0 0
2019/09/13 01:49:00 BASE 2.90 323 4.27 327 -9.7 71 -14.0 0 0 971.1 NA 0.0000 9999 4330 0 0 0
2019/09/13 01:50:00 BASE 3.27 321 4.01 320 -9.7 71 -14.0 0 0 971.1 NA 0.0000 9999 4400 0 0 0
2019/09/13 01:51:00 BASE 3.23 320 4.01 320 -9.7 70 -14.1 0 0 971.1 NA 0.0000 9999 4460 0 0 0
2019/09/13 01:52:00 BASE 3.40 325 4.01 320 -9.7 70 -14.1 0 0 971.1 NA 0.0000 9999 4490 0 0 0
2019/09/13 01:53:00 BASE 3.44 329 4.01 320 -9.6 70 -14.2 0 0 971.0 NA 0.0000 9999 4490 0 0 0
2019/09/13 01:54:00 BASE 3.50 331 4.01 320 -9.6 69 -14.2 0 0 971.1 NA 0.0000 9999 4460 0 0 0
2019/09/13 01:55:00 BASE 3.37 330 4.01 320 -9.6 69 -14.3 0 0 971.0 NA 0.0000 9999 4430 0 0 0
2019/09/13 01:56:00 BASE 2.91 328 4.01 320 -9.6 68 -14.3 0 0 971.1 NA 0.0000 9999 4460 0 0 0
2019/09/13 01:57:00 BASE 2.59 330 4.01 320 -9.5 68 -14.3 0 0 971.1 NA 0.0000 9999 4430 0 0 0
2019/09/13 01:58:00 BASE 1.75 324 4.01 320 -9.5 68 -14.3 0 0 971.1 NA 0.0000 9999 4300 0 0 0
2019/09/13 01:59:00 BASE 0.69 318 3.91 332 -9.5 68 -14.2 0 0 971.1 NA 0.0000 9999 3970 0 0 0
2019/09/13 02:00:00 BASE 0.18 325 3.91 332 -9.5 69 -14.2 0 0 971.1 NA 0.0000 9999 3670 0 0 0
2019/09/13 02:01:00 BASE 0.00 331 3.91 332 -9.5 69 -14.1 0 0 971.0 NA 0.0000 9999 3510 0 0 0
2019/09/13 02:02:00 BASE 0.04 331 3.81 332 -9.5 70 -14.0 0 0 971.0 NA 0.0000 9999 3220 0 0 0
2019/09/13 02:03:00 BASE 0.04 321 3.81 332 -9.5 70 -13.9 0 0 971.0 NA 0.0000 9999 0 0 0 4330
2019/09/13 02:04:00 BASE 0.00 317 3.40 333 -9.6 71 -13.8 0 0 971.0 NA 0.0000 9999 3280 0 0 0
2019/09/13 02:05:00 BASE 0.05 330 2.98 336 -9.6 72 -13.8 0 0 971.0 NA 0.0000 9999 3310 0 0 0
2019/09/13 02:06:00 BASE 0.13 337 2.98 336 -9.6 72 -13.7 0 0 971.0 NA 0.0000 9999 3280 0 0 0
2019/09/13 02:07:00 BASE 0.09 330 1.80 327 -9.6 73 -13.6 0 0 971.0 NA 0.0000 9999 3380 0 0 0
2019/09/13 02:08:00 BASE 0.18 313 1.13 329 -9.6 73 -13.5 0 0 970.9 NA 0.0000 9999 0 0 0 4460
2019/09/13 02:09:00 BASE 0.74 309 1.54 323 -9.6 73 -13.4 0 0 970.9 NA 0.0000 9999 0 0 0 4660
2019/09/13 02:10:00 BASE 1.40 322 2.01 333 -9.6 74 -13.4 0 0 970.9 NA 0.0000 9999 0 0 0 4820
2019/09/13 02:11:00 BASE 1.67 340 2.01 333 -9.5 74 -13.3 0 0 971.0 NA 0.0000 9999 0 0 0 4920
2019/09/13 02:12:00 BASE 1.43 5 2.01 333 -9.5 74 -13.2 0 0 971.0 NA 0.0000 9999 0 0 0 4890
2019/09/13 02:13:00 BASE 0.60 41 2.01 333 -9.4 74 -13.3 0 0 971.0 NA 0.0000 9999 0 0 0 4760
2019/09/13 02:14:00 BASE 0.00 87 2.01 333 -9.4 73 -13.3 0 0 971.0 NA 0.0000 9999 0 0 0 4200
2019/09/13 02:15:00 BASE 0.00 113 2.01 333 -9.4 73 -13.4 0 0 971.0 NA 0.0000 9999 0 0 0 4820
2019/09/13 02:16:00 BASE 0.09 114 2.01 333 -9.4 73 -13.5 0 0 970.9 NA 0.0000 9999 0 0 0 4990
2019/09/13 02:17:00 BASE 0.09 115 2.01 333 -9.5 72 -13.5 0 0 970.9 NA 0.0000 9999 0 0 0 5020
2019/09/13 02:18:00 BASE 0.00 142 2.01 333 -9.5 72 -13.6 0 0 970.9 NA 0.0000 -SN 9999 0 0 0 5020
2019/09/13 02:19:00 BASE 0.75 178 2.16 169 -9.5 72 -13.6 0 0 970.9 NA 0.0000 -SN 9999 0 0 0 3740
2019/09/13 02:20:00 BASE 1.50 188 2.57 175 -9.4 72 -13.5 0 0 970.9 NA 0.0000 -SN 9999 0 0 0 4990
2019/09/13 02:21:00 BASE 1.71 180 2.57 175 -9.2 72 -13.4 0 0 970.9 NA 0.0000 -SN 9999 0 0 0 5150
2019/09/13 02:22:00 BASE 2.29 176 5.14 172 -9.0 71 -13.2 0 0 970.9 NA 0.0000 -SN 9999 3610 0 0 0
2019/09/13 02:23:00 BASE 2.26 169 5.14 172 -8.8 71 -13.1 0 0 970.9 NA 0.0000 -SN 9999 0 0 0 5050
2019/09/13 02:24:00 BASE 2.01 142 5.14 172 -8.6 70 -13.0 0 0 970.9 NA 0.0000 -SN 9999 3610 0 0 0
2019/09/13 02:25:00 BASE 2.32 124 5.71 122 -8.4 70 -13.0 0 0 970.8 NA 0.0000 -SN 9999 0 0 0 5120
2019/09/13 02:26:00 BASE 3.06 129 5.71 122 -8.3 70 -12.9 0 0 970.8 NA 0.0000 -SN 9999 0 0 0 5250
2019/09/13 02:27:00 BASE 3.82 137 5.71 122 -8.2 70 -12.8 0 0 970.8 NA 0.0000 -SN 9999 0 0 0 5220
2019/09/13 02:28:00 BASE 4.37 154 7.67 154 -8.1 70 -12.7 0 0 970.7 NA 0.0000 -SN 9999 0 0 0 3900
2019/09/13 02:29:00 BASE 5.08 158 9.98 129 -8.0 70 -12.6 0 0 970.6 NA 0.0000 -SN 9999 0 0 0 5280
2019/09/13 02:30:00 BASE 7.96 148 11.99 151 -7.9 70 -12.4 0 0 970.6 NA 0.0000 -SN 9999 0 0 0 3710
2019/09/13 02:31:00 BASE 10.92 146 11.99 141 -7.8 71 -12.2 0 0 970.6 NA 0.0000 -SN 9999 0 0 0 3870
2019/09/13 02:32:00 BASE 11.18 142 12.24 141 -7.7 71 -12.0 0 0 970.6 NA 0.0000 -SN 9999 0 0 0 4860
2019/09/13 02:33:00 BASE 11.05 141 12.24 141 -7.6 72 -11.8 0 0 970.6 NA 0.0000 -SN 9999 0 0 0 4820
2019/09/13 02:34:00 BASE 11.37 144 12.24 146 -7.5 73 -11.5 0 0 970.5 NA 0.0000 -SN 9000 0 0 0 3670
2019/09/13 02:35:00 BASE 10.99 148 12.24 146 -7.3 74 -11.3 0 0 970.4 NA 0.0000 -SN 9000 0 0 0 3970
2019/09/13 02:36:00 BASE 10.00 147 12.24 146 -7.3 74 -11.1 0 0 970.5 NA 0.0000 -SN 9000 0 0 0 3970
2019/09/13 02:37:00 BASE 9.71 142 12.24 146 -7.2 75 -11.0 0 0 970.5 NA 0.0000 -SN 8000 0 0 0 4400
2019/09/13 02:38:00 BASE 9.79 144 12.24 146 -7.2 75 -10.9 0 0 970.5 NA 0.0000 -SN 9999 0 0 0 4200
2019/09/13 02:39:00 BASE 9.89 146 12.24 146 -7.2 75 -10.8 0 0 970.4 NA 0.0000 -SN 9999 0 0 0 4070
2019/09/13 02:40:00 BASE 9.85 149 12.24 146 -7.1 76 -10.7 0 0 970.4 NA 0.0000 -SN 7000 0 0 0 3480
2019/09/13 02:41:00 BASE 9.94 153 12.24 146 -7.1 76 -10.6 0 0 970.4 NA 0.0000 -SN 7000 0 0 0 3770
2019/09/13 02:42:00 BASE 10.09 154 12.55 154 -7.1 77 -10.5 0 0 970.4 NA 0.0000 -SN 7000 0 0 0 3510
2019/09/13 02:43:00 BASE 10.18 151 12.55 154 -7.1 77 -10.4 0 0 970.4 NA 0.0000 -SN 6000 0 0 0 3540
2019/09/13 02:44:00 BASE 9.94 147 12.55 154 -7.1 77 -10.3 0 0 970.4 NA 0.0000 -SN 6000 0 0 0 2790
2019/09/13 02:45:00 BASE 11.10 145 13.68 146 -7.0 78 -10.3 0 0 970.4 NA 0.0000 -SN 4800 0 0 0 2620
2019/09/13 02:46:00 BASE 12.59 143 13.68 146 -7.0 78 -10.2 0 0 970.4 NA 0.0000 -SN 4300 0 0 0 2590
2019/09/13 02:47:00 BASE 12.65 142 13.89 142 -7.0 79 -10.1 0 0 970.3 NA 0.0000 -SN 4600 0 0 0 2560
2019/09/13 02:48:00 BASE 12.66 146 13.89 142 -7.0 79 -10.1 0 0 970.3 NA 0.0000 -SN 4100 0 0 0 2460
2019/09/13 02:49:00 BASE 12.41 149 13.89 142 -7.1 79 -10.0 0 0 970.3 NA 0.0000 -SN 3600 0 0 0 2530
2019/09/13 02:50:00 BASE 11.73 148 13.89 142 -7.1 80 -10.0 0 0 970.3 NA 0.0000 -SN 4000 0 0 0 3310
2019/09/13 02:51:00 BASE 11.01 149 13.89 142 -7.2 80 -10.0 0 0 970.3 NA 0.0000 -SN 3800 0 0 0 2590
2019/09/13 02:52:00 BASE 9.78 155 13.89 142 -7.2 81 -9.9 0 0 970.2 NA 0.0000 -SN 4700 0 0 0 3310
2019/09/13 02:53:00 BASE 9.31 156 13.89 142 -7.2 81 -9.9 0 0 970.2 NA 0.0000 -SN 5000 0 0 0 3080
2019/09/13 02:54:00 BASE 10.49 153 13.89 142 -7.2 82 -9.8 0 0 970.2 NA 0.0000 -SN 5000 0 0 0 3220
2019/09/13 02:55:00 BASE 10.48 155 13.89 142 -7.2 82 -9.7 0 0 970.2 NA 0.0000 -SN 5000 0 0 0 3180
2019/09/13 02:56:00 BASE 9.22 156 13.89 142 -7.2 83 -9.6 0 0 970.3 NA 0.0000 -SN 4400 0 0 0 3150
2019/09/13 02:57:00 BASE 9.34 151 13.43 147 -7.2 83 -9.5 0 0 970.2 NA 0.0000 -SN 4500 0 0 0 3180
2019/09/13 02:58:00 BASE 9.99 147 13.43 147 -7.1 84 -9.3 0 0 970.3 NA 0.0000 -SN 4900 0 0 0 3020
2019/09/13 02:59:00 BASE 9.73 148 13.43 147 -7.0 84 -9.2 0 0 970.3 NA 0.0000 -SN BR 5000 0 0 0 3120
2019/09/13 03:00:00 BASE 9.83 155 13.43 147 -7.0 85 -9.1 0 0 970.2 NA 0.0000 -SN BR 5000 0 0 0 3310
2019/09/13 03:01:00 BASE 9.84 153 13.43 147 -6.9 85 -9.0 0 0 970.3 NA 0.0000 -SN BR 5000 0 0 0 3870
2019/09/13 03:02:00 BASE 9.25 146 13.43 147 -6.8 85 -8.9 0 0 970.3 NA 0.0000 -SN BR 7000 0 0 0 3610
2019/09/13 03:03:00 BASE 10.21 145 13.48 144 -6.8 86 -8.8 0 0 970.2 NA 0.0000 -SN BR 7000 0 0 0 3710
2019/09/13 03:04:00 BASE 11.44 139 13.48 121 -6.8 86 -8.8 0 0 970.3 NA 0.0000 -SN BR 5000 0 0 0 3410
2019/09/13 03:05:00 BASE 12.32 125 15.84 119 -6.8 86 -8.7 0 0 970.3 NA 0.0000 -SN BR 6000 0 0 0 3280
2019/09/13 03:06:00 BASE 14.14 119 16.20 114 -6.8 86 -8.7 0 0 970.3 NA 0.0000 -SN BR 6000 0 0 0 3250
2019/09/13 03:07:00 BASE 14.99 118 16.20 114 -6.8 86 -8.7 0 0 970.3 NA 0.0000 -SN BR 5000 0 0 0 3250
2019/09/13 03:08:00 BASE 13.02 125 16.20 114 -6.8 86 -8.7 0 0 970.3 NA 0.0000 -SN BR 5000 0 0 0 3180
2019/09/13 03:09:00 BASE 9.72 140 16.20 114 -6.8 86 -8.7 0 0 970.4 NA 0.0000 -SN BR 4500 0 0 0 3150
2019/09/13 03:10:00 BASE 8.20 147 16.20 114 -6.8 86 -8.8 0 0 970.4 NA 0.0000 -SN BR 3800 0 0 0 2950
2019/09/13 03:11:00 BASE 7.80 150 16.20 114 -6.9 86 -8.8 0 0 970.4 NA 0.0000 -SN BR 3500 0 0 0 2820
2019/09/13 03:12:00 BASE 8.41 151 16.20 114 -6.9 86 -8.8 0 0 970.4 NA 0.0000 -SN BR 3400 0 0 0 2790
2019/09/13 03:13:00 BASE 9.77 151 16.20 114 -7.0 87 -8.8 0 0 970.4 NA 0.0000 -SN BR 3300 0 0 0 2720
2019/09/13 03:14:00 BASE 9.82 151 16.20 114 -7.0 87 -8.8 0 0 970.4 NA 0.0000 -SN BR 4100 0 0 0 2660
2019/09/13 03:15:00 BASE 9.70 149 16.20 114 -7.1 88 -8.8 0 0 970.4 NA 0.0000 -SN BR 4000 0 0 0 2720
2019/09/13 03:16:00 BASE 10.12 145 15.84 119 -7.1 88 -8.7 0 0 970.4 NA 0.0000 -SN BR 3900 0 0 0 2620
2019/09/13 03:17:00 BASE 10.46 142 14.61 143 -7.1 89 -8.7 0 0 970.4 NA 0.0000 -SN BR 3700 0 0 0 2660
2019/09/13 03:18:00 BASE 10.45 145 12.04 138 -7.1 89 -8.6 0 0 970.4 NA 0.0000 -SN BR 3400 0 0 0 2620
2019/09/13 03:19:00 BASE 10.02 147 12.04 138 -7.1 90 -8.5 0 0 970.4 NA 0.0000 -SN BR 2700 0 0 0 2620
2019/09/13 03:20:00 BASE 10.00 146 12.71 148 -7.1 90 -8.4 0 0 970.3 NA 0.0000 -SN BR 2800 0 0 0 2590
2019/09/13 03:21:00 BASE 10.71 143 12.71 148 -7.1 91 -8.4 0 0 970.3 NA 0.0000 -SN BR 3000 0 0 0 2430
2019/09/13 03:22:00 BASE 11.13 141 12.71 148 -7.1 92 -8.3 0 0 970.3 NA 0.0000 -SN BR 3500 890 0 0 0
2019/09/13 03:23:00 BASE 10.53 141 12.71 148 -7.1 92 -8.2 0 0 970.3 NA 0.0000 -SN BR 3800 0 0 0 2400
2019/09/13 03:24:00 BASE 9.86 142 12.71 148 -7.1 93 -8.1 0 0 970.3 NA 0.0000 -SN BR 3900 0 0 0 2430
2019/09/13 03:25:00 BASE 9.98 145 12.71 148 -7.1 93 -8.0 0 0 970.3 NA 0.0000 -SN BR 3800 0 0 0 2530
2019/09/13 03:26:00 BASE 9.68 144 12.71 148 -7.1 94 -8.0 0 0 970.3 NA 0.0000 -SN BR 3800 0 0 0 2490
2019/09/13 03:27:00 BASE 9.28 141 12.71 148 -7.1 94 -7.9 0 0 970.3 NA 0.0000 -SN BR 4100 0 0 0 2530
2019/09/13 03:28:00 BASE 9.03 139 12.71 148 -7.1 95 -7.8 0 0 970.3 NA 0.0000 -SN BR 4200 0 0 0 2590
2019/09/13 03:29:00 BASE 8.50 136 12.71 148 -7.1 95 -7.7 0 0 970.3 NA 0.0000 -SN BR 4100 0 0 0 2690
2019/09/13 03:30:00 BASE 8.46 133 12.04 137 -7.1 96 -7.7 0 0 970.3 NA 0.0000 -SN BR 4300 0 0 0 2890
2019/09/13 03:31:00 BASE 8.68 129 12.04 137 -7.1 96 -7.6 0 0 970.3 NA 0.0000 -SN BR 4500 0 0 0 2890
2019/09/13 03:32:00 BASE 7.92 137 10.91 152 -7.1 96 -7.5 0 0 970.2 NA 0.0000 -SN BR 4700 0 0 0 2620
2019/09/13 03:33:00 BASE 6.78 145 10.91 152 -7.1 97 -7.5 0 0 970.3 NA 0.0000 -SN BR 4400 0 0 0 2760
2019/09/13 03:34:00 BASE 6.69 144 10.91 152 -7.0 97 -7.4 0 0 970.3 NA 0.0000 -SN BR 4500 0 0 0 2820
2019/09/13 03:35:00 BASE 7.23 144 10.34 143 -7.0 98 -7.3 0 0 970.2 NA 0.0000 -SN BR 4900 0 0 0 2950
2019/09/13 03:36:00 BASE 8.36 144 10.34 143 -7.0 98 -7.2 0 0 970.2 NA 0.0000 -SN BR 4600 0 0 0 2660
2019/09/13 03:37:00 BASE 9.54 139 10.80 139 -6.9 98 -7.1 0 0 970.3 NA 0.0000 -SN BR 4600 0 0 0 2690
2019/09/13 03:38:00 BASE 10.11 136 11.99 136 -6.9 99 -7.1 0 0 970.3 NA 0.0000 -SN BR 4900 0 0 0 2760
2019/09/13 03:39:00 BASE 10.52 137 12.60 133 -6.9 99 -7.0 0 0 970.3 NA 0.0000 -SN BR 4800 0 0 0 2790
2019/09/13 03:40:00 BASE 10.76 138 12.60 133 -6.9 99 -6.9 0 0 970.2 NA 0.0000 -SN BR 4300 0 0 0 2820
2019/09/13 03:41:00 BASE 9.87 139 12.60 133 -6.8 100 -6.9 0 0 970.3 NA 0.0000 -SN BR 4300 0 0 0 2890
2019/09/13 03:42:00 BASE 9.13 140 12.60 133 -6.8 100 -6.8 0 0 970.3 NA 0.0000 -SN BR 4300 0 0 0 2820
2019/09/13 03:43:00 BASE 8.88 139 12.60 133 -6.8 100 -6.8 0 0 970.3 NA 0.0000 -SN BR 4800 0 0 0 2790
2019/09/13 03:44:00 BASE 9.34 141 12.60 133 -6.7 100 -6.7 0 0 970.2 NA 0.0000 -SN BR 5000 0 0 0 2820
2019/09/13 03:45:00 BASE 10.06 141 12.60 133 -6.7 100 -6.7 0 0 970.2 NA 0.0000 -SN BR 6000 330 0 0 0
2019/09/13 03:46:00 BASE 10.41 142 12.60 133 -6.8 100 -6.8 0 0 970.2 NA 0.0000 -SN BR 5000 0 0 0 2850
2019/09/13 03:47:00 BASE 10.54 141 12.60 133 -6.8 100 -6.8 0 0 970.2 NA 0.0000 -SN BR 4600 0 0 0 2820
2019/09/13 03:48:00 BASE 10.29 140 12.60 133 -6.8 100 -6.8 0 0 970.2 NA 0.0000 -SN BR 4100 0 0 0 2820
2019/09/13 03:49:00 BASE 10.86 147 13.79 160 -6.9 100 -6.9 0 0 970.2 NA 0.0000 -SN BR 4100 0 0 0 2890
2019/09/13 03:50:00 BASE 12.13 148 14.10 151 -6.9 100 -6.9 0 0 970.2 NA 0.0000 -SN BR 4700 0 0 0 2920
2019/09/13 03:51:00 BASE 12.96 145 14.10 151 -6.9 100 -6.9 0 0 970.2 NA 0.0000 -SN BR 5000 0 0 0 2820
2019/09/13 03:52:00 BASE 12.63 141 14.10 151 -6.9 100 -6.9 0 0 970.2 NA 0.0000 -SN BR 7000 0 0 0 2850
2019/09/13 03:53:00 BASE 11.35 141 14.10 151 -7.0 100 -7.0 0 0 970.2 NA 0.0000 -SN BR 6000 620 0 0 0
2019/09/13 03:54:00 BASE 10.52 144 14.10 151 -7.0 100 -7.0 0 0 970.2 NA 0.0000 -SN BR 6000 0 0 0 2850
2019/09/13 03:55:00 BASE 11.59 148 14.25 160 -7.0 100 -7.0 0 0 970.1 NA 0.0000 -SN BR 6000 0 0 0 2820
2019/09/13 03:56:00 BASE 12.31 149 14.30 144 -6.9 100 -6.9 0 0 970.2 NA 0.0000 -SN BR 5000 0 0 0 2590
2019/09/13 03:57:00 BASE 12.62 148 14.61 151 -6.9 100 -6.9 0 0 970.1 NA 0.0000 -SN BR 4800 0 0 0 2490
2019/09/13 03:58:00 BASE 12.87 150 14.61 151 -6.9 100 -6.9 0 0 970.2 NA 0.0000 -SN BR 3700 0 0 0 2360
2019/09/13 03:59:00 BASE 12.80 148 15.54 139 -6.9 100 -6.9 0 0 970.1 NA 0.0000 -SN BR 3500 0 0 0 2400
2019/09/13 04:00:00 BASE 13.22 147 15.59 146 -6.9 100 -6.9 0 0 970.1 NA 0.0000 -SN BR 4200 0 0 0 2460
2019/09/13 04:03:00 BASE 14.40 153 16.67 155 -6.9 100 -6.9 0 0 970.1 NA 0.0000 -SN BR 4900 0 0 0 2460
2019/09/13 04:04:00 BASE 14.11 154 16.67 155 -6.9 100 -6.9 0 0 970.1 NA 0.0000 -SN BR 5000 0 0 0 2490
2019/09/13 04:05:00 BASE 14.07 157 16.67 165 -6.9 100 -6.9 0 0 970.1 NA 0.0000 -SN BR 5000 0 0 0 2690
2019/09/13 04:06:00 BASE 15.00 161 18.21 163 -6.9 100 -6.9 0 0 970.1 NA 0.0000 -SN BR 5000 0 0 0 2760
2019/09/13 04:07:01 BASE 14.97 159 18.21 163 -6.9 100 -6.9 0 0 970.2 NA 0.0000 -SN BR 4900 0 0 0 2660
2019/09/13 04:08:00 BASE 15.34 159 18.31 158 -6.9 100 -6.9 0 0 970.1 NA 0.0000 -SN BR 4700 490 0 0 0
2019/09/13 04:09:00 BASE 15.34 162 18.31 158 -6.9 100 -6.9 0 0 970.2 NA 0.0000 -SN BR 4600 660 0 0 0
2019/09/13 04:10:00 BASE 15.40 163 18.31 158 -6.9 100 -6.9 0 0 970.2 NA 0.0000 -SN BR 4400 1210 0 0 0
2019/09/13 04:11:00 BASE 17.16 164 19.96 164 -6.9 100 -6.9 0 0 970.2 NA 0.0000 -SN BR 4200 660 0 0 0
2019/09/13 04:12:00 BASE 17.16 164 19.96 164 -7.0 100 -7.0 0 0 970.1 NA 0.0000 -SN BR 4100 560 0 0 0
2019/09/13 04:13:00 BASE 16.89 163 19.96 164 -7.0 100 -7.0 0 0 970.2 NA 0.0000 BR 4000 0 0 0 2620
2019/09/13 04:14:00 BASE 18.37 163 20.78 164 -7.1 100 -7.1 0 0 970.1 NA 0.0000 BR 3800 660 0 0 0
2019/09/13 04:15:00 BASE 18.62 166 20.78 164 -7.1 100 -7.1 0 0 970.2 NA 0.0000 BR 3700 460 0 0 0
2019/09/13 04:16:00 BASE 17.57 166 20.78 164 -7.1 100 -7.1 0 0 970.2 NA 0.0000 BR 3600 520 0 0 0
2019/09/13 04:17:00 BASE 18.02 164 20.78 164 -7.1 100 -7.1 0 0 970.1 NA 0.0000 BR 3500 460 0 0 0
2019/09/13 04:18:00 BASE 17.44 164 20.78 164 -7.1 100 -7.1 0 0 970.1 NA 0.0000 BR 3400 430 0 0 0
2019/09/13 04:19:00 BASE 17.58 164 20.99 158 -7.1 100 -7.1 0 0 970.1 NA 0.0000 BR 3300 460 0 0 0
2019/09/13 04:20:00 BASE 19.33 166 21.71 165 -7.1 100 -7.1 0 0 970.1 NA 0.0000 BR 3200 490 0 0 0
2019/09/13 04:21:00 BASE 19.55 166 21.71 165 -7.1 100 -7.1 0 0 970.1 NA 0.0000 BR 3200 0 0 0 2690
2019/09/13 04:22:00 BASE 19.10 165 21.71 165 -7.2 100 -7.2 0 0 970.1 NA 0.0000 BR 3100 620 0 0 0
2019/09/13 04:23:00 BASE 18.39 166 21.71 165 -7.2 100 -7.2 0 0 970.2 NA 0.0000 BR 3000 390 0 0 0
2019/09/13 04:24:00 BASE 18.01 169 21.71 165 -7.2 100 -7.2 0 0 970.1 NA 0.0000 BR 2900 390 0 0 0
2019/09/13 04:25:00 BASE 18.29 169 21.71 165 -7.2 100 -7.2 0 0 970.1 NA 0.0000 BR 2900 0 0 0 2560
2019/09/13 04:26:00 BASE 18.36 166 21.71 165 -7.2 100 -7.2 0 0 970.2 NA 0.0000 BR 2700 360 0 0 0
2019/09/13 04:27:00 BASE 18.06 166 21.71 165 -7.2 100 -7.2 0 0 970.2 NA 0.0000 BR 2800 390 0 0 0
2019/09/13 04:28:00 BASE 18.03 168 21.71 165 -7.3 100 -7.3 0 0 970.2 NA 0.0000 BR 2700 360 0 0 0
2019/09/13 04:29:00 BASE 17.90 169 21.71 165 -7.3 100 -7.3 0 0 970.2 NA 0.0000 -SN BR 2700 0 0 0 2360
2019/09/13 04:30:00 BASE 16.91 170 20.89 167 -7.3 100 -7.3 0 0 970.3 NA 0.0000 -SN BR 2700 0 0 0 2360
2019/09/13 04:31:00 BASE 16.26 171 20.89 167 -7.4 100 -7.4 0 0 970.2 NA 0.0000 -SN BR 2600 360 0 0 0
2019/09/13 04:32:00 BASE 16.84 171 20.73 171 -7.4 100 -7.4 0 0 970.2 NA 0.0000 -SN BR 2600 0 0 0 2260
2019/09/13 04:33:00 BASE 16.39 171 20.73 171 -7.5 100 -7.5 0 0 970.3 NA 0.0000 -SN BR 2500 0 0 0 2200
2019/09/13 04:34:00 BASE 15.20 172 20.11 174 -7.5 100 -7.5 0 0 970.3 NA 0.0000 -SN BR 2500 0 0 0 2260
2019/09/13 04:35:00 BASE 15.21 172 20.01 168 -7.5 100 -7.5 0 0 970.3 NA 0.0000 -SN BR 2500 0 0 0 2430
2019/09/13 04:36:00 BASE 16.04 172 19.65 166 -7.5 100 -7.5 0 0 970.3 NA 0.0000 -SN BR 2400 0 0 0 2660
2019/09/13 04:37:00 BASE 17.03 173 19.65 166 -7.6 100 -7.6 0 0 970.3 NA 0.0000 -SN BR 2400 0 0 0 2790
2019/09/13 04:38:00 BASE 17.77 175 19.65 166 -7.6 100 -7.6 0 0 970.3 NA 0.0000 -SN BR 2400 0 0 0 2690
2019/09/13 04:39:00 BASE 17.28 178 19.19 173 -7.6 100 -7.6 0 0 970.3 NA 0.0000 BR 2300 0 0 0 2660
2019/09/13 04:40:00 BASE 15.89 182 19.19 173 -7.7 100 -7.7 0 0 970.4 NA 0.0000 BR 2300 0 0 0 2950
2019/09/13 04:41:00 BASE 15.12 183 19.19 173 -7.7 100 -7.7 0 0 970.4 NA 0.0000 BR 2200 0 0 0 2820
2019/09/13 04:42:00 BASE 14.99 182 19.19 173 -7.7 100 -7.7 0 0 970.4 NA 0.0000 BR 2200 0 0 0 3020
2019/09/13 04:43:00 BASE 15.34 181 19.19 173 -7.7 100 -7.7 0 0 970.4 NA 0.0000 -SN BR 4200 0 0 0 3050
2019/09/13 04:44:00 BASE 15.26 181 19.19 173 -7.7 100 -7.7 0 0 970.4 NA 0.0000 -SN BR 5000 0 0 0 3080
2019/09/13 04:45:00 BASE 14.85 183 19.19 173 -7.7 100 -7.7 0 0 970.4 NA 0.0000 -SN BR 5000 0 0 0 3120
2019/09/13 04:46:00 BASE 15.35 180 19.19 173 -7.7 100 -7.7 0 0 970.4 NA 0.0000 -SN BR 5000 0 0 0 3150
2019/09/13 04:47:00 BASE 15.13 179 19.19 173 -7.7 100 -7.7 0 0 970.5 NA 0.0000 -SN BR 5000 0 0 0 3250
2019/09/13 04:48:00 BASE 14.39 177 18.73 178 -7.7 100 -7.7 0 0 970.5 NA 0.0000 -SN BR 5000 0 0 0 3150
2019/09/13 04:49:01 BASE 13.75 175 17.54 183 -7.6 100 -7.6 0 0 970.6 NA 0.0000 -SN BR 5000 0 0 0 3020
2019/09/13 04:50:00 BASE 14.05 178 17.54 183 -7.6 100 -7.6 0 0 970.5 NA 0.0000 -SN BR 5000 0 0 0 3120
2019/09/13 04:51:00 BASE 15.66 178 17.54 183 -7.6 100 -7.6 0 0 970.4 NA 0.0000 -SN BR 5000 0 0 0 3080
2019/09/13 04:52:00 BASE 15.15 178 17.44 178 -7.6 100 -7.6 0 0 970.5 NA 0.0000 -SN BR 5000 0 0 0 3250
2019/09/13 04:53:00 BASE 13.90 181 17.44 178 -7.6 100 -7.6 0 0 970.6 NA 0.0000 -SN BR 5000 0 0 0 3250
2019/09/13 04:54:01 BASE 14.65 184 17.44 178 -7.6 100 -7.6 0 0 970.5 NA 0.0000 -SN BR 4500 0 0 0 3250
2019/09/13 04:55:00 BASE 15.75 185 17.44 185 -7.6 100 -7.6 0 0 970.5 NA 0.0000 -SN BR 3900 2430 0 0 0
2019/09/13 04:56:00 BASE 15.10 183 17.44 185 -7.6 100 -7.6 0 0 970.5 NA 0.0000 -SN BR 3600 360 0 0 0
2019/09/13 04:57:00 BASE 13.24 184 17.44 185 -7.6 100 -7.6 0 0 970.6 NA 0.0000 -SN BR 3700 330 0 0 0
2019/09/13 04:58:00 BASE 12.83 187 17.44 185 -7.7 100 -7.7 0 0 970.6 NA 0.0000 -SN BR 3500 330 0 0 0
2019/09/13 04:59:00 BASE 13.95 188 17.44 185 -7.7 100 -7.7 0 0 970.6 NA 0.0000 -SN BR 2900 300 0 0 0
2019/09/13 05:00:00 BASE 14.10 188 17.44 185 -7.8 100 -7.8 0 0 970.6 NA 0.0000 -SN BR 3200 300 0 0 0
2019/09/13 05:01:00 BASE 13.52 186 17.44 185 -7.8 100 -7.8 0 0 970.6 NA 0.0000 -SN BR 3700 300 0 0 0
2019/09/13 05:02:00 BASE 14.06 187 17.44 185 -7.8 100 -7.8 0 0 970.6 NA 0.0000 -SN BR 3600 0 0 0 2530
2019/09/13 05:03:00 BASE 13.93 188 17.44 185 -7.8 100 -7.8 0 0 970.6 NA 0.0000 -SN BR 3900 0 0 0 2560
2019/09/13 05:04:00 BASE 12.95 186 17.44 185 -7.8 100 -7.8 0 0 970.6 NA 0.0000 -SN BR 3900 0 0 0 2560
2019/09/13 05:05:00 BASE 12.60 185 16.41 185 -7.8 100 -7.8 0 0 970.6 NA 0.0000 -SN BR 4100 0 0 0 2560
2019/09/13 05:06:00 BASE 12.83 187 16.10 185 -7.8 100 -7.8 0 0 970.6 NA 0.0000 -SN BR 4300 0 0 0 2460
2019/09/13 05:07:00 BASE 13.43 189 16.10 185 -7.8 100 -7.8 0 0 970.7 NA 0.0000 -SN BR 4100 0 0 0 2530
2019/09/13 05:08:00 BASE 12.76 191 16.10 185 -7.8 100 -7.8 0 0 970.7 NA 0.0000 -SN BR 3600 0 0 0 2490
2019/09/13 05:09:01 BASE 11.39 194 16.10 185 -7.9 100 -7.9 0 0 970.8 NA 0.0000 -SN BR 3600 0 0 0 2560
2019/09/13 05:10:01 BASE 10.96 198 16.10 185 -7.9 100 -7.9 0 0 970.8 NA 0.0000 -SN BR 3200 0 0 0 2590
2019/09/13 05:11:01 BASE 10.67 198 16.10 185 -8.0 100 -8.0 0 0 970.8 NA 0.0000 -SN BR 3400 260 0 0 0
2019/09/13 05:12:01 BASE 11.39 192 15.07 187 -8.0 100 -8.0 0 0 970.8 NA 0.0000 -SN BR 3600 0 0 0 2690
2019/09/13 05:13:00 BASE 12.44 188 15.07 187 -8.0 100 -8.0 0 0 970.8 NA 0.0000 -SN BR 4500 300 0 0 0
2019/09/13 05:14:00 BASE 11.82 191 15.07 187 -8.1 100 -8.1 0 0 970.8 NA 0.0000 -SN BR 4500 0 0 0 2790
2019/09/13 05:15:00 BASE 11.31 191 15.07 187 -8.1 100 -8.1 0 0 970.8 NA 0.0000 -SN BR 4000 0 0 0 2890
2019/09/13 05:16:00 BASE 11.16 194 15.07 187 -8.1 100 -8.1 0 0 970.9 NA 0.0000 -SN BR 3200 260 0 0 0
2019/09/13 05:17:00 BASE 11.12 197 13.94 182 -8.1 100 -8.1 0 0 970.9 NA 0.0000 -SN BR 3300 0 0 0 3050
2019/09/13 05:18:00 BASE 10.80 195 13.94 182 -8.1 100 -8.1 0 0 970.9 NA 0.0000 -SN BR 3500 0 0 0 2990
2019/09/13 05:19:00 BASE 9.72 198 13.94 182 -8.2 100 -8.2 0 0 970.9 NA 0.0000 -SN BR 3600 0 0 0 2990
2019/09/13 05:20:00 BASE 9.33 197 13.94 182 -8.2 100 -8.2 0 0 970.9 NA 0.0000 -SN BR 3500 0 0 0 2990
2019/09/13 05:21:00 BASE 8.99 194 13.94 182 -8.2 100 -8.2 0 0 970.9 NA 0.0000 -SN BR 3600 0 0 0 2920
2019/09/13 05:22:00 BASE 8.59 190 13.94 182 -8.2 100 -8.2 0 0 971.0 NA 0.0000 -SN BR 5000 0 0 0 2820
2019/09/13 05:23:00 BASE 8.82 191 12.86 191 -8.2 100 -8.2 0 0 971.0 NA 0.0000 -SN BR 7000 0 0 0 2850
2019/09/13 05:24:00 BASE 8.68 195 12.71 192 -8.3 100 -8.3 0 0 971.0 NA 0.0000 -SN BR 9000 0 0 0 2560
2019/09/13 05:25:00 BASE 7.91 196 12.71 192 -8.3 100 -8.3 0 0 971.0 NA 0.0000 -SN BR 7000 0 0 0 2260
2019/09/13 05:26:00 BASE 7.53 197 12.71 192 -8.3 100 -8.3 0 0 971.0 NA 0.0000 -SN BR 8000 0 0 0 2760
2019/09/13 05:27:00 BASE 7.45 200 11.68 189 -8.3 100 -8.3 0 0 971.0 NA 0.0000 -SN BR 9999 0 0 0 2790
2019/09/13 05:28:00 BASE 7.13 202 10.60 185 -8.4 100 -8.4 0 0 971.0 NA 0.0000 -SN BR 9999 0 0 0 2760
2019/09/13 05:29:01 BASE 7.19 203 10.60 185 -8.4 100 -8.4 0 0 971.0 NA 0.0000 -SN BR 8000 0 0 0 2690
2019/09/13 05:30:00 BASE 7.30 202 10.60 185 -8.5 100 -8.5 0 0 971.0 NA 0.0000 -SN BR 9999 390 0 0 0
2019/09/13 05:31:00 BASE 7.29 203 10.60 185 -8.5 100 -8.5 0 0 971.0 NA 0.0000 -SN BR 9999 390 0 0 0
2019/09/13 05:32:00 BASE 7.65 203 10.60 185 -8.6 100 -8.6 0 0 971.0 NA 0.0000 -SN BR 9999 2030 0 0 0
2019/09/13 05:33:00 BASE 8.06 199 9.52 193 -8.6 100 -8.6 0 0 971.0 NA 0.0000 -SN 9999 2030 0 0 0
2019/09/13 05:34:00 BASE 7.86 200 9.52 193 -8.6 100 -8.6 0 0 971.0 NA 0.0000 -SN 9999 2030 0 0 0
2019/09/13 05:35:00 BASE 7.02 200 9.52 193 -8.6 100 -8.6 0 0 971.0 NA 0.0000 -SN 9999 2030 0 0 0
2019/09/13 05:36:00 BASE 6.20 202 9.52 193 -8.6 100 -8.6 0 0 971.0 NA 0.0000 -SN 9999 2030 0 0 0
2019/09/13 05:37:00 BASE 6.65 203 9.52 193 -8.6 100 -8.6 0 0 971.0 NA 0.0000 -SN 9999 2000 0 0 0
2019/09/13 05:38:00 BASE 7.14 204 9.52 193 -8.6 100 -8.6 0 0 971.0 NA 0.0000 -SN 9999 2100 0 0 0
2019/09/13 05:39:00 BASE 7.58 208 9.52 205 -8.6 100 -8.6 0 0 971.0 NA 0.0000 9999 2070 0 0 0
2019/09/13 05:40:00 BASE 8.32 205 9.52 205 -8.6 100 -8.6 0 0 971.0 NA 0.0000 9999 2130 0 0 0
2019/09/13 05:41:00 BASE 7.82 201 9.52 205 -8.6 100 -8.6 0 0 971.1 NA 0.0000 9999 2170 0 0 0
2019/09/13 05:42:00 BASE 7.77 198 9.52 190 -8.7 100 -8.7 0 0 971.1 NA 0.0000 9999 2260 0 0 0
2019/09/13 05:43:00 BASE 8.26 200 9.52 190 -8.7 100 -8.7 0 0 971.1 NA 0.0000 9999 2260 0 0 0
2019/09/13 05:44:00 BASE 7.94 206 9.52 190 -8.7 100 -8.7 0 0 971.1 NA 0.0000 9999 2330 0 0 0
2019/09/13 05:45:00 BASE 7.76 208 9.52 190 -8.7 100 -8.7 0 0 971.1 NA 0.0000 9999 2360 0 0 0
2019/09/13 05:46:00 BASE 8.44 211 10.08 213 -8.7 99 -8.8 0 0 971.1 NA 0.0000 9999 2330 0 0 0
2019/09/13 05:47:00 BASE 8.94 213 10.08 213 -8.7 98 -9.0 0 0 971.1 NA 0.0000 9999 2330 0 0 0
2019/09/13 05:48:00 BASE 8.49 213 10.08 213 -8.8 97 -9.2 0 0 971.1 NA 0.0000 9999 2400 0 0 0
2019/09/13 05:49:00 BASE 8.53 213 10.39 210 -8.8 95 -9.4 0 0 971.1 NA 0.0000 9999 2530 0 0 0
2019/09/13 05:50:00 BASE 8.92 210 10.49 218 -8.8 94 -9.6 0 0 971.1 NA 0.0000 9999 2460 0 0 0
2019/09/13 05:51:00 BASE 8.45 208 10.49 218 -8.8 92 -9.9 0 0 971.1 NA 0.0000 9999 2360 0 0 0
2019/09/13 05:52:00 BASE 7.81 203 10.49 218 -8.8 90 -10.1 0 0 971.1 NA 0.0000 9999 2360 0 0 0
2019/09/13 05:53:00 BASE 7.78 199 10.49 218 -8.8 89 -10.3 0 0 971.1 NA 0.0000 9999 2460 3350 0 0
2019/09/13 05:54:00 BASE 8.26 202 10.49 218 -8.8 87 -10.6 0 0 971.1 NA 0.0000 9999 2490 0 0 0
2019/09/13 05:55:00 BASE 8.42 204 10.49 218 -8.8 86 -10.8 0 0 971.1 NA 0.0000 9999 1770 0 0 0
2019/09/13 05:56:00 BASE 7.86 205 10.49 218 -8.8 84 -11.0 0 0 971.1 NA 0.0000 9999 2530 0 0 0
2019/09/13 05:57:00 BASE 7.72 208 10.49 218 -8.8 83 -11.1 0 0 971.1 NA 0.0000 9999 2720 0 0 0
2019/09/13 05:58:00 BASE 8.01 211 10.49 218 -8.8 82 -11.3 0 0 971.1 NA 0.0000 9999 2430 0 0 0
2019/09/13 05:59:00 BASE 8.48 214 10.49 218 -8.8 82 -11.3 0 0 971.1 NA 0.0000 9999 2330 0 0 0
2019/09/13 06:00:00 BASE 9.23 215 11.42 212 -8.8 81 -11.5 0 0 971.1 NA 0.0000 9999 2400 0 0 0
2019/09/13 06:01:00 BASE 9.46 212 11.42 212 -8.8 81 -11.5 0 0 971.1 NA 0.0000 9999 2300 0 0 0
2019/09/13 06:02:00 BASE 8.77 211 11.42 212 -8.9 81 -11.6 0 0 971.1 NA 0.0000 9999 2330 0 0 0
2019/09/13 06:03:00 BASE 8.24 211 11.42 212 -8.9 81 -11.6 0 0 971.1 NA 0.0000 9999 2360 0 0 0
2019/09/13 06:04:00 BASE 8.59 209 11.42 212 -8.9 81 -11.6 0 0 971.1 NA 0.0000 9999 2430 0 0 0
2019/09/13 06:05:00 BASE 8.12 208 11.42 212 -8.9 81 -11.6 0 0 971.1 NA 0.0000 9999 2530 0 0 0
2019/09/13 06:06:00 BASE 8.05 210 11.42 212 -8.9 81 -11.6 0 0 971.1 NA 0.0000 9999 2560 0 0 0
2019/09/13 06:07:00 BASE 9.41 211 11.78 218 -8.9 81 -11.5 0 0 971.1 NA 0.0000 9999 2590 0 0 0
2019/09/13 06:08:00 BASE 10.10 210 11.78 218 -8.9 81 -11.5 0 0 971.1 NA 0.0000 9999 1870 0 0 0
2019/09/13 06:09:00 BASE 9.68 209 11.78 218 -8.9 82 -11.5 0 0 971.1 NA 0.0000 9999 1940 0 0 0
2019/09/13 06:10:00 BASE 9.54 211 11.78 218 -8.9 82 -11.5 0 0 971.2 NA 0.0000 9999 1900 0 0 0
2019/09/13 06:11:00 BASE 9.38 215 11.78 218 -8.9 82 -11.5 0 0 971.2 NA 0.0000 9999 1970 3250 0 0
2019/09/13 06:12:00 BASE 8.98 214 11.78 218 -8.9 81 -11.5 0 0 971.2 NA 0.0000 9999 2660 3250 0 0
2019/09/13 06:13:00 BASE 9.10 212 11.78 218 -8.9 81 -11.6 0 0 971.2 NA 0.0000 9999 2690 0 0 0
2019/09/13 06:14:00 BASE 9.48 212 11.78 218 -8.9 81 -11.6 0 0 971.2 NA 0.0000 9999 2760 0 0 0
2019/09/13 06:15:00 BASE 9.16 213 11.78 218 -8.9 81 -11.5 0 0 971.2 NA 0.0000 9999 2790 0 0 0
2019/09/13 06:16:00 BASE 8.31 216 11.78 218 -8.9 81 -11.5 0 0 971.2 NA 0.0000 9999 2920 0 0 0
2019/09/13 06:17:00 BASE 7.83 217 11.11 215 -8.9 82 -11.5 0 0 971.2 NA 0.0000 9999 2790 0 0 0
2019/09/13 06:18:00 BASE 8.08 218 11.11 215 -8.9 82 -11.4 0 0 971.2 NA 0.0000 9999 2790 0 0 0
2019/09/13 06:19:00 BASE 8.91 220 11.11 215 -8.9 82 -11.4 0 0 971.2 NA 0.0000 9999 2200 0 0 0
2019/09/13 06:20:00 BASE 9.25 216 10.65 211 -8.9 82 -11.3 0 0 971.2 NA 0.0000 9999 2850 0 0 0
2019/09/13 06:21:00 BASE 9.60 211 11.16 211 -8.9 83 -11.3 0 0 971.2 NA 0.0000 9999 2990 0 0 0
2019/09/13 06:22:00 BASE 9.54 213 11.16 211 -8.9 83 -11.3 0 0 971.2 NA 0.0000 9999 2990 0 0 0
2019/09/13 06:23:00 BASE 8.87 215 11.16 211 -8.9 83 -11.3 0 0 971.2 NA 0.0000 9999 2690 0 0 0
2019/09/13 06:24:00 BASE 9.09 215 11.16 211 -8.9 83 -11.3 0 0 971.2 NA 0.0000 9999 2620 0 0 0
2019/09/13 06:25:00 BASE 9.26 216 11.16 211 -8.9 83 -11.3 0 0 971.2 NA 0.0000 9999 2590 0 0 0
2019/09/13 06:26:00 BASE 9.26 216 11.16 211 -8.9 83 -11.3 0 0 971.2 NA 0.0000 9999 2660 0 0 0
2019/09/13 06:27:00 BASE 9.82 215 11.16 211 -8.9 83 -11.2 0 0 971.2 NA 0.0000 9999 2660 0 0 0
2019/09/13 06:28:00 BASE 10.39 211 11.16 211 -8.8 83 -11.2 0 0 971.2 NA 0.0000 9999 2720 0 0 0
2019/09/13 06:29:00 BASE 9.63 209 11.16 211 -8.8 83 -11.2 0 0 971.2 NA 0.0000 9999 2720 0 0 0
2019/09/13 06:30:00 BASE 7.95 210 11.16 211 -8.8 83 -11.2 0 0 971.2 NA 0.0000 9999 2720 0 0 0
2019/09/13 06:31:00 BASE 6.93 209 11.11 205 -8.8 82 -11.3 0 0 971.2 NA 0.0000 9999 2490 0 0 0
2019/09/13 06:32:00 BASE 6.54 209 11.11 205 -8.8 82 -11.3 0 0 971.3 NA 0.0000 9999 2490 0 0 0
2019/09/13 06:33:00 BASE 6.57 208 11.11 205 -8.8 82 -11.4 0 0 971.3 NA 0.0000 9999 2530 0 0 0
2019/09/13 06:34:00 BASE 7.07 208 11.11 205 -8.8 81 -11.4 0 0 971.4 NA 0.0000 9999 2530 0 0 0
2019/09/13 06:35:00 BASE 7.34 208 11.11 205 -8.8 81 -11.4 0 0 971.4 NA 0.0000 9999 3150 0 0 0
2019/09/13 06:36:00 BASE 6.81 205 11.11 205 -8.8 81 -11.4 0 0 971.4 NA 0.0000 9999 2590 0 0 0
2019/09/13 06:37:00 BASE 5.94 201 11.11 205 -8.7 81 -11.4 0 0 971.5 NA 0.0000 9999 2590 0 0 0
2019/09/13 06:38:00 BASE 5.43 201 10.39 210 -8.7 81 -11.4 0 0 971.5 NA 0.0000 9999 2790 0 0 0
2019/09/13 06:39:00 BASE 5.57 203 8.33 205 -8.7 81 -11.4 0 0 971.5 NA 0.0000 9999 2760 0 0 0
2019/09/13 06:40:00 BASE 5.43 199 8.28 208 -8.7 81 -11.4 0 0 971.5 NA 0.0000 9999 3220 0 0 0
2019/09/13 06:41:00 BASE 4.89 190 8.28 208 -8.7 81 -11.4 0 0 971.5 NA 0.0000 9999 2430 0 0 0
2019/09/13 06:42:00 BASE 4.53 192 8.28 208 -8.7 81 -11.4 0 0 971.5 NA 0.0000 9999 2460 0 0 0
2019/09/13 06:43:00 BASE 4.16 194 8.28 208 -8.7 81 -11.4 0 0 971.5 NA 0.0000 9999 2620 0 0 0
2019/09/13 06:44:00 BASE 4.30 188 7.72 207 -8.7 81 -11.4 0 0 971.5 NA 0.0000 9999 3350 0 0 0
2019/09/13 06:45:00 BASE 4.44 189 7.20 206 -8.8 81 -11.4 0 0 971.5 NA 0.0000 9999 2260 0 0 0
2019/09/13 06:46:00 BASE 3.82 192 6.58 216 -8.8 81 -11.4 0 0 971.5 NA 0.0000 9999 2430 0 0 0
2019/09/13 06:47:00 BASE 2.86 190 6.58 216 -8.8 81 -11.5 0 0 971.5 NA 0.0000 9999 2360 0 0 0
2019/09/13 06:48:00 BASE 2.58 194 6.58 216 -8.8 81 -11.5 0 0 971.5 NA 0.0000 9999 2330 0 0 0
2019/09/13 06:49:00 BASE 3.45 196 5.81 178 -8.8 81 -11.4 0 0 971.4 NA 0.0000 9999 3410 0 0 0
2019/09/13 06:50:00 BASE 4.28 198 5.61 195 -8.7 81 -11.4 0 0 971.4 NA 0.0000 9999 2490 0 0 0
2019/09/13 06:51:00 BASE 4.59 198 5.61 195 -8.7 81 -11.4 0 0 971.5 NA 0.0000 9999 2360 0 0 0
2019/09/13 06:52:00 BASE 5.14 198 6.38 191 -8.6 81 -11.3 0 0 971.4 NA 0.0000 9999 3540 0 0 0
2019/09/13 06:53:00 BASE 5.80 204 6.48 204 -8.6 81 -11.3 0 0 971.4 NA 0.0000 9999 2490 0 0 0
2019/09/13 06:54:00 BASE 5.78 208 6.48 204 -8.5 80 -11.3 0 0 971.4 NA 0.0000 9999 2660 0 0 0
2019/09/13 06:55:00 BASE 5.14 207 6.48 204 -8.5 80 -11.3 0 0 971.4 NA 0.0000 9999 2890 0 0 0
2019/09/13 06:56:00 BASE 4.73 210 6.48 204 -8.4 80 -11.3 0 0 971.5 NA 0.0000 9999 3380 0 0 0
2019/09/13 06:57:00 BASE 4.35 221 6.48 204 -8.4 79 -11.4 0 0 971.5 NA 0.0000 9999 3580 0 0 0
2019/09/13 06:58:00 BASE 3.77 226 6.48 204 -8.4 79 -11.4 0 0 971.5 NA 0.0000 9999 3810 0 0 0
2019/09/13 06:59:00 BASE 3.24 233 6.48 204 -8.4 78 -11.4 0 0 971.5 NA 0.0000 9999 3710 0 0 0
2019/09/13 07:00:00 BASE 2.95 235 6.48 204 -8.4 78 -11.5 0 0 971.5 NA 0.0000 9999 3710 0 0 0
2019/09/13 07:01:00 BASE 3.66 223 6.48 204 -8.4 78 -11.5 0 0 971.5 NA 0.0000 9999 5280 0 0 0
2019/09/13 07:02:00 BASE 3.99 214 6.48 204 -8.4 78 -11.5 0 0 971.5 NA 0.0000 9999 5320 0 0 0
2019/09/13 07:03:00 BASE 3.00 204 6.33 214 -8.4 79 -11.4 0 0 971.5 NA 0.0000 9999 5150 0 0 0
2019/09/13 07:04:00 BASE 2.39 208 5.81 209 -8.4 79 -11.4 0 0 971.5 NA 0.0000 9999 3670 0 0 0
2019/09/13 07:05:00 BASE 2.68 217 5.14 220 -8.4 79 -11.4 0 0 971.5 NA 0.0000 9999 3580 0 0 0
2019/09/13 07:06:00 BASE 2.58 201 4.89 214 -8.4 79 -11.4 0 0 971.5 NA 0.0000 9999 2790 0 0 0
2019/09/13 07:07:00 BASE 2.52 201 4.89 214 -8.4 79 -11.4 0 0 971.5 NA 0.0000 9999 3710 0 0 0
2019/09/13 07:08:00 BASE 3.10 220 4.89 214 -8.4 79 -11.4 0 0 971.6 NA 0.0000 9999 3740 0 0 0
2019/09/13 07:09:00 BASE 3.22 233 4.89 214 -8.4 79 -11.4 0 0 971.6 NA 0.0000 9999 3540 0 0 0
2019/09/13 07:10:00 BASE 3.18 231 4.89 214 -8.4 79 -11.4 0 0 971.6 NA 0.0000 9999 3050 0 0 0
2019/09/13 07:11:00 BASE 3.04 232 4.22 226 -8.4 79 -11.4 0 0 971.6 NA 0.0000 9999 3250 0 0 0
2019/09/13 07:12:00 BASE 3.01 241 4.22 226 -8.4 79 -11.4 0 0 971.6 NA 0.0000 9999 3150 0 0 0
2019/09/13 07:13:00 BASE 2.86 243 4.22 226 -8.4 79 -11.4 0 0 971.6 NA 0.0000 9999 3180 0 0 0
2019/09/13 07:14:00 BASE 2.17 245 4.22 226 -8.4 78 -11.5 0 0 971.6 NA 0.0000 9999 3840 0 0 0
2019/09/13 07:15:00 BASE 2.02 248 4.22 226 -8.4 78 -11.5 0 0 971.6 NA 0.0000 9999 3870 0 0 0
2019/09/13 07:16:00 BASE 2.10 253 4.22 226 -8.4 78 -11.5 0 0 971.6 NA 0.0000 9999 3970 0 0 0
2019/09/13 07:17:00 BASE 2.29 257 4.22 226 -8.4 78 -11.5 0 0 971.6 NA 0.0000 9999 3250 0 0 0
2019/09/13 07:18:00 BASE 2.29 255 4.22 226 -8.4 78 -11.6 0 0 971.6 NA 0.0000 9999 3350 0 0 0
2019/09/13 07:19:00 BASE 1.88 252 4.22 226 -8.4 78 -11.5 0 0 971.6 NA 0.0000 9999 5580 0 0 0
2019/09/13 07:20:00 BASE 1.36 248 3.65 242 -8.4 78 -11.6 0 0 971.6 NA 0.0000 9999 5410 0 0 0
2019/09/13 07:21:00 BASE 1.40 234 3.65 242 -8.4 78 -11.6 0 0 971.6 NA 0.0000 9999 5710 0 0 0
2019/09/13 07:22:00 BASE 2.00 222 2.98 258 -8.4 77 -11.6 0 0 971.7 NA 0.0000 9999 5680 0 0 0
2019/09/13 07:23:00 BASE 2.45 211 3.65 218 -8.4 77 -11.7 0 0 971.7 NA 0.0000 9999 5910 0 0 0
2019/09/13 07:24:01 BASE 3.14 186 4.32 177 -8.4 77 -11.7 0 0 971.7 NA 0.0000 9999 6230 0 0 0
2019/09/13 07:25:00 BASE 3.77 170 4.68 162 -8.4 77 -11.6 0 0 971.7 NA 0.0000 9999 6040 0 0 0
2019/09/13 07:26:00 BASE 4.26 170 5.40 179 -8.4 77 -11.6 0 0 971.7 NA 0.0000 9999 6040 0 0 0
2019/09/13 07:27:00 BASE 5.02 181 6.84 193 -8.3 77 -11.6 0 0 971.7 NA 0.0000 9999 5870 0 0 0
2019/09/13 07:28:00 BASE 6.52 193 10.65 193 -8.3 77 -11.6 0 0 971.6 NA 0.0000 9999 5840 0 0 0
2019/09/13 07:29:00 BASE 8.69 202 11.47 207 -8.3 77 -11.6 0 0 971.6 NA 0.0000 9999 5940 0 0 0
2019/09/13 07:30:00 BASE 9.50 209 11.47 207 -8.3 77 -11.6 0 0 971.7 NA 0.0000 9999 4430 0 0 0
2019/09/13 07:31:00 BASE 10.12 205 12.24 202 -8.2 76 -11.7 0 0 971.6 NA 0.0000 9999 4400 0 0 0
2019/09/13 07:32:00 BASE 11.57 204 14.15 209 -8.2 76 -11.7 0 0 971.6 NA 0.0000 9999 4560 0 0 0
2019/09/13 07:33:00 BASE 11.27 208 14.15 209 -8.2 75 -11.9 0 0 971.7 NA 0.0000 9999 6140 0 0 0
2019/09/13 07:34:00 BASE 11.36 208 14.15 209 -8.2 74 -12.0 0 0 971.7 NA 0.0000 9999 6040 0 0 0
2019/09/13 07:35:00 BASE 11.76 208 14.15 209 -8.2 73 -12.1 0 0 971.7 NA 0.0000 9999 6400 0 0 0
2019/09/13 07:36:00 BASE 11.15 210 14.15 209 -8.2 73 -12.2 0 0 971.7 NA 0.0000 9999 6170 0 0 0
2019/09/13 07:37:00 BASE 11.01 208 14.15 209 -8.2 72 -12.3 0 0 971.7 NA 0.0000 9999 3970 0 0 0
2019/09/13 07:38:00 BASE 10.92 202 14.15 209 -8.2 72 -12.3 0 0 971.7 NA 0.0000 9999 4660 0 0 0
2019/09/13 07:39:00 BASE 10.10 199 14.15 209 -8.2 72 -12.3 0 0 971.7 NA 0.0000 9999 4760 0 0 0
2019/09/13 07:40:00 BASE 8.45 203 14.15 209 -8.2 72 -12.3 0 0 971.8 NA 0.0000 9999 4860 0 0 0
2019/09/13 07:41:00 BASE 7.57 208 14.15 209 -8.2 72 -12.3 0 0 971.8 NA 0.0000 9999 4630 0 0 0
2019/09/13 07:42:00 BASE 7.80 206 13.94 219 -8.2 72 -12.3 0 0 971.8 NA 0.0000 9999 6530 0 0 0
2019/09/13 07:43:00 BASE 7.69 206 13.94 219 -8.2 72 -12.3 0 0 971.8 NA 0.0000 9999 4990 0 0 0
2019/09/13 07:44:00 BASE 6.90 208 12.81 214 -8.2 72 -12.3 0 0 971.8 NA 0.0000 9999 6270 0 0 0
2019/09/13 07:45:00 BASE 6.30 210 12.76 212 -8.2 72 -12.3 0 0 971.8 NA 0.0000 9999 6300 0 0 0
2019/09/13 07:46:00 BASE 5.70 209 11.78 211 -8.2 72 -12.3 0 0 971.9 NA 0.0000 9999 6300 0 0 0
2019/09/13 07:47:00 BASE 4.92 205 11.42 197 -8.1 72 -12.2 0 0 972.0 NA 0.0000 9999 6460 0 0 0
2019/09/13 07:48:00 BASE 4.47 200 10.96 191 -8.2 73 -12.2 0 0 972.0 NA 0.0000 9999 5410 0 0 0
2019/09/13 07:49:00 BASE 5.06 199 9.31 210 -8.2 73 -12.1 0 0 972.0 NA 0.0000 9999 4920 0 0 0
2019/09/13 07:50:00 BASE 5.67 203 9.31 210 -8.2 74 -12.1 0 0 972.0 NA 0.0000 9999 6070 0 0 0
2019/09/13 07:51:00 BASE 5.27 207 9.31 210 -8.2 74 -12.1 0 0 972.0 NA 0.0000 9999 3740 0 0 0
2019/09/13 07:52:00 BASE 4.63 208 8.03 202 -8.2 74 -12.0 0 0 972.0 NA 0.0000 9999 5970 0 0 0
2019/09/13 07:53:00 BASE 3.99 218 7.31 209 -8.2 74 -12.0 0 0 972.0 NA 0.0000 9999 3710 0 0 0
2019/09/13 07:54:00 BASE 3.02 232 6.94 206 -8.2 74 -12.0 0 0 972.0 NA 0.0000 9999 4230 0 0 0
2019/09/13 07:55:00 BASE 2.32 231 6.28 196 -8.2 74 -12.0 0 0 972.0 NA 0.0000 9999 5840 0 0 0
2019/09/13 07:56:00 BASE 3.22 222 8.85 225 -8.2 74 -12.0 0 0 972.0 NA 0.0000 9999 6170 0 0 0
2019/09/13 07:57:00 BASE 6.69 215 10.75 205 -8.2 74 -11.9 0 0 972.0 NA 0.0000 9999 5680 0 0 0
2019/09/13 07:58:00 BASE 10.11 212 13.17 213 -8.2 75 -11.9 0 0 972.0 NA 0.0000 9999 5810 0 0 0
2019/09/13 07:59:00 BASE 12.03 213 14.46 224 -8.2 75 -11.9 0 0 971.9 NA 0.0000 9999 6040 0 0 0
2019/09/13 08:00:00 BASE 14.75 215 18.47 213 -8.2 74 -12.0 0 0 971.8 NA 0.0000 9999 6330 0 0 0
2019/09/13 08:01:00 BASE 15.77 215 18.47 213 -8.2 74 -12.0 0 0 971.9 NA 0.0000 9999 6140 0 0 0
2019/09/13 08:02:00 BASE 14.79 213 18.47 213 -8.2 74 -12.1 0 0 971.9 NA 0.0000 9999 5810 0 0 0
2019/09/13 08:03:00 BASE 14.64 214 18.47 213 -8.2 73 -12.2 0 0 972.0 NA 0.0000 9999 6100 0 0 0
2019/09/13 08:04:00 BASE 13.73 216 18.47 213 -8.2 73 -12.3 0 0 972.0 NA 0.0000 9999 6230 0 0 0
2019/09/13 08:05:00 BASE 13.03 221 18.47 213 -8.2 72 -12.3 0 0 972.1 NA 0.0000 9999 6230 0 0 0
2019/09/13 08:06:00 BASE 13.09 220 18.47 213 -8.2 72 -12.3 0 0 972.1 NA 0.0000 9999 6370 0 0 0
2019/09/13 08:07:00 BASE 13.21 217 18.47 213 -8.2 72 -12.4 0 0 972.1 NA 0.0000 9999 6400 0 0 0
2019/09/13 08:08:00 BASE 13.26 218 18.47 213 -8.2 72 -12.4 0 0 972.1 NA 0.0000 9999 6530 0 0 0
2019/09/13 08:09:00 BASE 13.06 215 18.47 213 -8.2 72 -12.4 0 0 972.1 NA 0.0000 9999 6500 0 0 0
2019/09/13 08:10:00 BASE 13.09 214 16.67 209 -8.2 72 -12.4 0 0 972.1 NA 0.0000 9999 6500 0 0 0
2019/09/13 08:11:00 BASE 13.02 215 16.36 215 -8.2 72 -12.3 0 0 972.2 NA 0.0000 9999 6530 0 0 0
2019/09/13 08:12:00 BASE 12.21 216 16.36 215 -8.2 72 -12.3 0 0 972.2 NA 0.0000 9999 6560 0 0 0
2019/09/13 08:13:00 BASE 10.57 216 16.31 206 -8.2 73 -12.3 0 0 972.2 NA 0.0000 9999 6630 0 0 0
2019/09/13 08:14:00 BASE 9.93 212 16.31 206 -8.2 73 -12.2 0 0 972.2 NA 0.0000 9999 6660 0 0 0
2019/09/13 08:15:00 BASE 10.01 204 16.31 206 -8.2 73 -12.2 0 0 972.3 NA 0.0000 9999 6730 0 0 0
2019/09/13 08:16:00 BASE 10.19 205 16.31 206 -8.2 73 -12.2 0 0 972.3 NA 0.0000 9999 6860 0 0 0
2019/09/13 08:17:00 BASE 11.61 209 16.31 206 -8.2 73 -12.2 0 0 972.2 NA 0.0000 9999 7020 0 0 0
2019/09/13 08:18:00 BASE 12.82 210 16.31 206 -8.2 74 -12.1 0 0 972.2 NA 0.0000 9999 2400 0 0 0
2019/09/13 08:19:00 BASE 13.35 212 15.38 212 -8.2 74 -12.1 0 0 972.2 NA 0.0000 9999 2260 0 0 0
2019/09/13 08:20:00 BASE 13.30 212 15.38 212 -8.2 74 -12.1 0 0 972.2 NA 0.0000 9999 6890 0 0 0
2019/09/13 08:21:00 BASE 12.61 210 15.38 212 -8.2 74 -12.0 0 0 972.2 NA 0.0000 9999 2260 0 0 0
2019/09/13 08:22:00 BASE 11.76 208 15.38 212 -8.2 74 -12.0 0 0 972.3 NA 0.0000 9999 2460 0 0 0
2019/09/13 08:23:00 BASE 10.80 210 15.38 212 -8.2 74 -11.9 0 0 972.3 NA 0.0000 9999 2000 0 0 0
2019/09/13 08:24:00 BASE 10.84 212 15.38 212 -8.2 75 -11.9 0 0 972.3 NA 0.0000 9999 1900 0 0 0
2019/09/13 08:25:00 BASE 10.01 212 15.38 212 -8.2 75 -11.8 0 0 972.3 NA 0.0000 9999 1900 0 0 0
2019/09/13 08:26:00 BASE 8.26 218 15.38 212 -8.2 75 -11.8 0 0 972.3 NA 0.0000 9999 1840 0 0 0
2019/09/13 08:27:00 BASE 7.71 228 15.07 211 -8.2 76 -11.7 0 0 972.3 NA 0.0000 9999 1770 0 0 0
2019/09/13 08:28:00 BASE 7.11 226 15.07 211 -8.2 76 -11.6 0 0 972.3 NA 0.0000 9999 1740 0 0 0
2019/09/13 08:29:00 BASE 6.90 222 14.61 216 -8.2 77 -11.5 0 0 972.3 NA 0.0000 9999 1740 0 0 0
2019/09/13 08:30:00 BASE 7.37 226 14.10 217 -8.2 78 -11.4 0 0 972.3 NA 0.0000 9999 1770 0 0 0
2019/09/13 08:31:00 BASE 8.02 221 13.38 212 -8.2 78 -11.3 0 0 972.3 NA 0.0000 9999 1800 0 0 0
2019/09/13 08:32:00 BASE 10.02 217 12.71 212 -8.2 79 -11.2 0 0 972.3 NA 0.0000 9999 1740 0 0 0
2019/09/13 08:33:00 BASE 11.31 215 12.81 211 -8.2 79 -11.2 0 0 972.3 NA 0.0000 9999 1940 0 0 0
2019/09/13 08:34:00 BASE 10.48 217 12.81 211 -8.2 80 -11.1 0 0 972.3 NA 0.0000 9999 1870 0 0 0
2019/09/13 08:35:00 BASE 10.56 222 12.81 211 -8.3 80 -11.1 0 0 972.3 NA 0.0000 9999 1840 0 0 0
2019/09/13 08:36:00 BASE 10.57 221 12.81 211 -8.3 80 -11.0 0 0 972.3 NA 0.0000 9999 1870 0 0 0
2019/09/13 08:37:00 BASE 9.60 224 12.81 211 -8.3 81 -11.0 0 0 972.4 NA 0.0000 9999 1770 0 0 0
2019/09/13 08:38:00 BASE 9.68 224 12.81 211 -8.3 81 -11.0 0 0 972.4 NA 0.0000 9999 1770 0 0 0
2019/09/13 08:39:00 BASE 9.54 221 12.81 211 -8.3 81 -10.9 0 0 972.4 NA 0.0000 9999 2030 0 0 0
2019/09/13 08:40:00 BASE 10.72 222 13.53 228 -8.3 81 -10.9 0 0 972.4 NA 0.0000 9999 1770 0 0 0
2019/09/13 08:41:00 BASE 11.98 219 13.53 228 -8.3 82 -10.9 0 0 972.4 NA 0.0000 9999 1770 0 0 0
2019/09/13 08:42:00 BASE 11.94 214 13.58 215 -8.3 82 -10.9 0 0 972.4 NA 0.0000 9999 1940 0 0 0
2019/09/13 08:43:00 BASE 10.92 213 13.58 215 -8.3 82 -10.9 0 0 972.4 NA 0.0000 9999 1940 0 0 0
2019/09/13 08:44:00 BASE 10.60 211 13.58 215 -8.4 82 -10.9 0 0 972.4 NA 0.0000 9999 2070 0 0 0
2019/09/13 08:45:00 BASE 11.45 208 14.04 207 -8.4 82 -10.9 0 0 972.4 NA 0.0000 9999 8240 0 0 0
2019/09/13 08:46:00 BASE 12.80 207 15.07 211 -8.4 82 -10.9 0 0 972.4 NA 0.0000 9999 6920 0 0 0
2019/09/13 08:47:00 BASE 13.41 205 15.07 211 -8.4 82 -10.9 0 0 972.4 NA 0.0000 9999 6990 0 0 0
2019/09/13 08:48:00 BASE 12.37 204 15.07 211 -8.4 82 -10.9 0 0 972.4 NA 0.0000 9999 6500 0 0 0
2019/09/13 08:49:00 BASE 11.23 205 15.07 211 -8.4 82 -10.9 0 0 972.4 NA 0.0000 9999 8070 0 0 0
2019/09/13 08:50:00 BASE 10.14 206 15.07 211 -8.4 82 -11.0 0 0 972.5 NA 0.0000 9999 1840 0 0 0
2019/09/13 08:51:00 BASE 9.94 207 15.07 211 -8.4 82 -11.0 0 0 972.6 NA 0.0000 9999 1870 0 0 0
2019/09/13 08:52:00 BASE 10.12 211 15.07 211 -8.4 81 -11.0 0 0 972.6 NA 0.0000 9999 1940 0 0 0
2019/09/13 08:53:00 BASE 9.50 217 15.07 211 -8.4 81 -11.0 0 0 972.6 NA 0.0000 9999 1840 0 0 0
2019/09/13 08:54:00 BASE 8.40 222 15.07 211 -8.4 81 -11.1 0 0 972.6 NA 0.0000 9999 1940 0 0 0
2019/09/13 08:55:00 BASE 9.19 219 15.07 211 -8.4 81 -11.1 0 0 972.6 NA 0.0000 9999 1840 0 0 0
2019/09/13 08:56:00 BASE 10.01 214 13.27 203 -8.4 81 -11.0 0 0 972.6 NA 0.0000 9999 1770 0 0 0
2019/09/13 08:57:00 BASE 9.35 215 13.12 200 -8.4 81 -11.0 0 0 972.6 NA 0.0000 9999 2000 0 0 0
2019/09/13 08:58:00 BASE 9.73 218 11.99 211 -8.4 82 -11.0 0 0 972.6 NA 0.0000 9999 1840 2360 0 0
2019/09/13 08:59:00 BASE 10.61 220 11.99 211 -8.4 82 -11.0 0 0 972.6 NA 0.0000 9999 1770 0 0 0
2019/09/13 09:00:00 BASE 11.69 218 14.61 218 -8.4 82 -10.9 0 0 972.6 NA 0.0000 9999 1770 0 0 0
2019/09/13 09:01:00 BASE 12.25 220 14.61 218 -8.4 82 -10.9 0 0 972.6 NA 0.0000 9999 1740 0 0 0
2019/09/13 09:02:00 BASE 10.92 222 14.61 218 -8.4 82 -10.9 0 0 972.6 NA 0.0000 9999 1770 0 0 0
2019/09/13 09:03:00 BASE 9.66 221 14.61 218 -8.4 82 -10.9 0 0 972.7 NA 0.0000 9999 1740 0 0 0
2019/09/13 09:04:00 BASE 9.71 224 14.61 218 -8.4 82 -10.9 0 0 972.7 NA 0.0000 9999 1770 0 0 0
2019/09/13 09:05:00 BASE 9.84 226 14.61 218 -8.4 82 -10.9 0 0 972.7 NA 0.0000 9999 1770 0 0 0
2019/09/13 09:06:00 BASE 9.77 225 14.61 218 -8.4 82 -11.0 0 0 972.7 NA 0.0000 9999 1770 0 0 0
2019/09/13 09:07:00 BASE 11.01 227 14.61 218 -8.5 82 -11.0 0 0 972.7 NA 0.0000 9999 1740 0 0 0
2019/09/13 09:08:00 BASE 12.01 229 14.61 218 -8.5 82 -11.0 0 0 972.7 NA 0.0000 9999 1770 0 0 0
2019/09/13 09:09:00 BASE 12.09 228 14.61 218 -8.5 82 -11.0 0 0 972.7 NA 0.0000 9999 1740 0 0 0
2019/09/13 09:10:00 BASE 12.36 225 13.94 221 -8.6 82 -11.0 0 0 972.7 NA 0.0000 9999 1710 0 0 0
2019/09/13 09:11:00 BASE 12.06 223 13.94 221 -8.6 83 -11.0 0 0 972.7 NA 0.0000 9999 1610 0 0 0
2019/09/13 09:12:00 BASE 10.90 222 13.94 221 -8.6 83 -11.0 0 0 972.8 NA 0.0000 9999 1770 0 0 0
2019/09/13 09:13:00 BASE 9.90 223 13.94 221 -8.6 83 -11.0 0 0 972.8 NA 0.0000 9999 1710 0 0 0
2019/09/13 09:14:00 BASE 10.42 224 13.94 221 -8.6 83 -11.0 0 0 972.8 NA 0.0000 9999 1670 0 0 0
2019/09/13 09:15:00 BASE 11.85 222 13.94 221 -8.6 83 -11.0 0 0 972.8 NA 0.0000 9999 1670 0 0 0
2019/09/13 09:16:00 BASE 12.80 221 13.94 221 -8.6 83 -11.0 0 0 972.8 NA 0.0000 9999 1640 0 0 0
2019/09/13 09:17:00 BASE 12.64 221 13.94 221 -8.7 83 -11.0 0 0 972.9 NA 0.0000 9999 1640 0 0 0
2019/09/13 09:18:00 BASE 11.59 219 13.68 225 -8.7 83 -11.0 0 0 972.9 NA 0.0000 9999 1610 0 0 0
2019/09/13 09:19:00 BASE 11.71 222 14.66 226 -8.7 83 -11.1 0 0 972.9 NA 0.0000 9999 1610 0 0 0
2019/09/13 09:20:00 BASE 13.19 224 15.64 227 -8.7 83 -11.1 0 0 972.9 NA 0.0000 9999 1640 0 0 0
2019/09/13 09:21:00 BASE 13.70 222 15.64 227 -8.7 83 -11.1 0 0 972.9 NA 0.0000 9999 1770 0 0 0
2019/09/13 09:22:00 BASE 11.95 221 15.64 227 -8.8 83 -11.1 0 0 972.9 NA 0.0000 9999 1710 0 0 0
2019/09/13 09:23:00 BASE 11.66 217 15.64 227 -8.8 83 -11.1 0 0 972.9 NA 0.0000 9999 1840 0 0 0
2019/09/13 09:24:00 BASE 12.02 216 15.64 227 -8.8 83 -11.2 0 0 972.9 NA 0.0000 9999 1800 0 0 0
2019/09/13 09:25:00 BASE 11.47 215 15.64 227 -8.8 83 -11.2 0 0 972.9 NA 0.0000 9999 2000 0 0 0
2019/09/13 09:26:00 BASE 12.84 215 15.64 227 -8.8 83 -11.2 0 0 972.9 NA 0.0000 9999 2230 0 0 0
2019/09/13 09:27:00 BASE 13.13 213 15.64 227 -8.8 83 -11.2 0 0 973.0 NA 0.0000 9999 1940 0 0 0
2019/09/13 09:28:00 BASE 12.05 204 15.64 227 -8.8 83 -11.2 0 0 973.0 NA 0.0000 9999 8690 0 0 0
2019/09/13 09:29:00 BASE 11.61 199 15.64 227 -8.8 83 -11.2 0 0 973.0 NA 0.0000 9999 8660 0 0 0
2019/09/13 09:30:00 BASE 11.39 200 15.18 218 -8.8 83 -11.2 0 0 973.0 NA 0.0000 9999 2030 0 0 0
2019/09/13 09:31:00 BASE 10.63 203 15.18 218 -8.8 82 -11.3 0 0 973.0 NA 0.0000 9999 1840 0 0 0
2019/09/13 09:32:00 BASE 10.20 206 15.18 218 -8.8 82 -11.3 0 0 973.0 NA 0.0000 9999 1840 0 0 0
2019/09/13 09:33:00 BASE 9.62 208 15.18 218 -8.8 82 -11.4 0 0 973.1 NA 0.0000 9999 1800 0 0 0
2019/09/13 09:34:00 BASE 8.91 209 15.18 218 -8.8 82 -11.4 0 0 973.1 NA 0.0000 9999 1800 0 0 0
2019/09/13 09:35:00 BASE 9.55 208 15.18 218 -8.8 82 -11.3 0 0 973.0 NA 0.0000 9999 1800 0 0 0
2019/09/13 09:36:00 BASE 9.88 209 14.15 202 -8.8 82 -11.3 0 0 973.1 NA 0.0000 9999 1870 0 0 0
2019/09/13 09:37:00 BASE 8.81 216 14.15 202 -8.8 82 -11.3 0 0 973.2 NA 0.0000 9999 1710 0 0 0
2019/09/13 09:38:00 BASE 8.78 222 13.07 198 -8.8 82 -11.3 0 0 973.2 NA 0.0000 9999 1800 0 0 0
2019/09/13 09:39:00 BASE 9.40 226 11.99 207 -8.8 82 -11.3 0 0 973.2 NA 0.0000 9999 1710 0 0 0
2019/09/13 09:40:00 BASE 7.98 233 11.94 198 -8.8 82 -11.2 0 0 973.3 NA 0.0000 9999 1640 0 0 0
2019/09/13 09:41:00 BASE 6.97 238 11.94 198 -8.8 82 -11.2 0 0 973.3 NA 0.0000 9999 1540 0 0 0
2019/09/13 09:42:00 BASE 7.98 236 11.47 207 -8.8 83 -11.2 0 0 973.3 NA 0.0000 9999 1610 0 0 0
2019/09/13 09:43:00 BASE 8.98 236 11.47 207 -8.8 83 -11.2 0 0 973.2 NA 0.0000 9999 1570 0 0 0
2019/09/13 09:44:00 BASE 8.62 242 11.47 207 -8.8 83 -11.2 0 0 973.2 NA 0.0000 9999 1540 0 0 0
2019/09/13 09:45:00 BASE 8.23 238 10.91 214 -8.8 83 -11.2 0 0 973.3 NA 0.0000 9999 1480 0 0 0
2019/09/13 09:46:00 BASE 8.87 238 10.96 236 -8.9 83 -11.2 0 0 973.3 NA 0.0000 9999 1510 0 0 0
2019/09/13 09:47:00 BASE 9.61 243 10.96 236 -8.9 83 -11.2 0 0 973.3 NA 0.0000 9999 1510 0 0 0
2019/09/13 09:48:00 BASE 9.19 241 10.96 236 -8.9 83 -11.2 0 0 973.3 NA 0.0000 9999 1510 0 0 0
2019/09/13 09:49:00 BASE 8.23 236 10.96 236 -8.9 84 -11.2 0 0 973.3 NA 0.0000 9999 1480 0 0 0
2019/09/13 09:50:00 BASE 8.36 237 11.16 247 -8.9 84 -11.1 0 0 973.3 NA 0.0000 9999 1540 0 0 0
2019/09/13 09:51:00 BASE 9.69 235 11.52 228 -8.9 84 -11.1 0 0 973.3 NA 0.0000 9999 1510 0 0 0
2019/09/13 09:52:00 BASE 10.35 230 11.52 228 -8.9 84 -11.1 0 0 973.4 NA 0.0000 9999 1480 0 0 0
2019/09/13 09:53:00 BASE 10.07 234 11.52 228 -8.9 84 -11.1 0 0 973.3 NA 0.0000 9999 1410 0 0 0
2019/09/13 09:54:00 BASE 10.30 238 11.78 242 -8.9 84 -11.1 0 0 973.3 NA 0.0000 9999 1480 0 0 0
2019/09/13 09:55:00 BASE 10.72 240 12.24 234 -8.9 84 -11.1 0 0 973.3 NA 0.0000 9999 1570 0 0 0
2019/09/13 09:56:00 BASE 10.38 240 12.24 234 -9.0 84 -11.2 0 0 973.4 NA 0.0000 9999 1640 0 0 0
2019/09/13 09:57:00 BASE 8.91 241 12.24 234 -9.0 84 -11.2 0 0 973.4 NA 0.0000 9999 1480 0 0 0
2019/09/13 09:58:00 BASE 7.53 244 12.24 234 -9.0 84 -11.2 0 0 973.4 NA 0.0000 9999 1610 0 0 0
2019/09/13 09:59:00 BASE 7.51 243 12.24 234 -9.0 84 -11.2 0 0 973.4 NA 0.0000 9999 1540 0 0 0
2019/09/13 10:00:00 BASE 7.99 243 12.24 234 -9.0 84 -11.2 0 0 973.5 NA 0.0000 9999 1480 0 0 0
2019/09/13 10:01:00 BASE 8.67 248 12.24 234 -9.0 85 -11.1 0 0 973.4 NA 0.0000 9999 1480 2330 0 0
2019/09/13 10:02:00 BASE 8.83 247 12.24 234 -9.0 85 -11.1 0 0 973.5 NA 0.0000 9999 1440 0 0 0
2019/09/13 10:03:00 BASE 8.12 242 12.24 234 -9.0 85 -11.1 0 0 973.5 NA 0.0000 9999 1480 0 0 0
2019/09/13 10:04:00 BASE 7.72 237 12.24 234 -9.0 85 -11.1 0 0 973.6 NA 0.0000 9999 1510 0 0 0
2019/09/13 10:05:00 BASE 7.73 236 11.11 239 -9.0 85 -11.1 0 0 973.6 NA 0.0000 9999 1540 0 0 0
2019/09/13 10:06:00 BASE 8.70 239 12.14 239 -9.0 85 -11.1 0 0 973.6 NA 0.0000 9999 1570 0 0 0
2019/09/13 10:07:00 BASE 10.25 233 12.45 221 -9.0 85 -11.1 0 0 973.6 NA 0.0000 9999 1510 0 0 0
2019/09/13 10:08:00 BASE 11.82 228 13.74 234 -9.0 85 -11.1 0 0 973.6 NA 0.0000 9999 1410 0 0 0
2019/09/13 10:09:00 BASE 11.73 228 13.74 234 -9.0 85 -11.1 0 0 973.6 NA 0.0000 9999 1410 0 0 0
2019/09/13 10:10:00 BASE 10.70 225 13.74 234 -9.0 85 -11.1 0 0 973.7 NA 0.0000 9999 1440 0 0 0
2019/09/13 10:11:00 BASE 10.50 225 13.74 234 -9.0 85 -11.0 0 0 973.7 NA 0.0000 9999 1610 0 0 0
2019/09/13 10:12:00 BASE 10.74 225 13.74 234 -9.0 85 -11.0 0 0 973.7 NA 0.0000 9999 1670 0 0 0
2019/09/13 10:13:00 BASE 10.36 225 13.74 234 -9.0 86 -11.0 0 0 973.7 NA 0.0000 9999 1610 0 0 0
2019/09/13 10:14:00 BASE 10.04 222 13.74 234 -9.0 86 -11.0 0 0 973.7 NA 0.0000 9999 1510 0 0 0
2019/09/13 10:15:00 BASE 10.00 223 13.74 234 -9.0 86 -10.9 0 0 973.8 NA 0.0000 9999 1480 0 0 0
2019/09/13 10:16:00 BASE 9.97 224 13.74 234 -9.0 86 -10.9 0 0 973.9 NA 0.0000 9999 1540 0 0 0
2019/09/13 10:17:00 BASE 9.73 222 13.74 234 -9.0 86 -10.9 0 0 973.9 NA 0.0000 9999 1480 0 0 0
2019/09/13 10:18:00 BASE 8.31 221 12.55 230 -9.0 86 -10.9 1 0 973.9 NA 0.0000 9999 1480 0 0 0
2019/09/13 10:19:00 BASE 7.61 220 12.55 230 -9.0 86 -10.9 1 0 973.9 NA 0.0000 9999 1410 0 0 0
2019/09/13 10:20:00 BASE 7.29 227 12.55 230 -9.0 86 -10.9 1 0 973.9 NA 0.0000 9999 1410 0 0 0
2019/09/13 10:21:00 BASE 6.97 238 12.55 230 -9.0 86 -10.9 1 0 973.9 NA 0.0000 9999 1440 0 0 0
2019/09/13 10:22:00 BASE 8.02 242 12.24 221 -9.0 86 -10.9 1 0 973.9 NA 0.0000 9999 1410 0 0 0
2019/09/13 10:23:00 BASE 9.00 240 12.24 221 -9.0 86 -10.9 1 0 973.9 NA 0.0000 9999 1380 0 0 0
2019/09/13 10:24:00 BASE 9.87 239 12.45 226 -9.0 86 -10.9 1 0 973.9 NA 0.0000 9999 1350 0 0 0
2019/09/13 10:25:00 BASE 11.17 235 12.71 226 -9.0 86 -10.9 1 0 973.9 NA 0.0000 9999 1350 0 0 0
2019/09/13 10:26:00 BASE 12.01 235 13.68 239 -9.1 87 -10.9 1 0 973.9 NA 0.0000 9999 1350 0 0 0
2019/09/13 10:27:00 BASE 12.89 239 15.43 243 -9.1 87 -10.9 1 0 973.9 NA 0.0000 9999 1310 0 0 0
2019/09/13 10:28:00 BASE 12.65 240 15.43 243 -9.2 87 -10.9 1 0 974.0 NA 0.0000 9999 1440 0 0 0
2019/09/13 10:29:00 BASE 11.43 240 15.43 243 -9.2 87 -11.0 1 0 974.0 NA 0.0000 9999 1380 0 0 0
2019/09/13 10:30:00 BASE 10.93 243 15.43 243 -9.3 87 -11.0 1 0 974.0 NA 0.0000 9999 1410 0 0 0
2019/09/13 10:31:00 BASE 10.64 242 15.43 243 -9.3 87 -11.0 2 0 974.0 NA 0.0000 9999 1350 0 0 0
2019/09/13 10:32:00 BASE 10.93 240 15.43 243 -9.3 87 -11.1 2 0 974.0 NA 0.0000 9999 1410 0 0 0
2019/09/13 10:33:00 BASE 10.73 239 15.43 243 -9.3 87 -11.1 2 0 974.0 NA 0.0000 9999 1380 0 0 0
2019/09/13 10:34:00 BASE 10.41 237 15.43 243 -9.3 87 -11.1 2 0 974.1 NA 0.0000 9999 1310 0 0 0
2019/09/13 10:35:00 BASE 11.45 235 15.43 243 -9.3 87 -11.1 2 0 974.1 NA 0.0000 9999 1440 0 0 0
2019/09/13 10:36:00 BASE 11.76 234 15.43 243 -9.3 87 -11.1 2 0 974.1 NA 0.0000 9999 1410 0 0 0
2019/09/13 10:37:00 BASE 11.09 235 13.68 237 -9.3 87 -11.1 2 0 974.2 NA 0.0000 9999 1410 0 0 0
2019/09/13 10:38:00 BASE 10.63 236 12.86 234 -9.3 87 -11.1 2 0 974.2 NA 0.0000 9999 1410 0 0 0
2019/09/13 10:39:00 BASE 10.42 237 12.86 234 -9.3 87 -11.1 2 0 974.2 NA 0.0000 9999 1440 0 0 0
2019/09/13 10:40:00 BASE 10.63 243 12.86 234 -9.3 87 -11.1 3 0 974.1 NA 0.0000 9999 1440 0 0 0
2019/09/13 10:41:00 BASE 9.45 246 12.86 234 -9.3 87 -11.1 3 0 974.2 NA 0.0000 9999 1440 0 0 0
2019/09/13 10:42:00 BASE 7.95 248 12.86 234 -9.4 87 -11.1 3 0 974.2 NA 0.0000 9999 1510 0 0 0
2019/09/13 10:43:00 BASE 9.22 246 12.86 234 -9.4 87 -11.1 3 0 974.2 NA 0.0000 9999 1540 0 0 0
2019/09/13 10:44:00 BASE 10.40 244 12.86 234 -9.4 87 -11.2 3 0 974.2 NA 0.0000 9999 1510 0 0 0
2019/09/13 10:45:00 BASE 9.68 250 12.76 231 -9.4 87 -11.2 3 0 974.2 NA 0.0000 9999 1510 0 0 0
2019/09/13 10:46:00 BASE 9.88 251 12.55 244 -9.4 87 -11.2 3 0 974.2 NA 0.0000 9999 1540 0 0 0
2019/09/13 10:47:00 BASE 10.71 250 12.55 244 -9.4 87 -11.2 4 0 974.2 NA 0.0000 9999 1510 0 0 0
2019/09/13 10:48:00 BASE 10.65 248 12.55 244 -9.4 87 -11.2 4 0 974.2 NA 0.0000 9999 1570 0 0 0
2019/09/13 10:49:00 BASE 10.81 246 12.55 244 -9.4 87 -11.2 4 0 974.2 NA 0.0000 9999 1540 0 0 0
2019/09/13 10:50:00 BASE 11.36 245 13.02 247 -9.4 87 -11.2 5 0 974.2 NA 0.0000 9999 1540 0 0 0
2019/09/13 10:51:00 BASE 10.75 243 13.02 247 -9.4 87 -11.2 5 0 974.3 NA 0.0000 9999 1570 0 0 0
2019/09/13 10:52:00 BASE 10.62 238 14.92 232 -9.4 87 -11.2 6 0 974.2 NA 0.0000 9999 1540 0 0 0
2019/09/13 10:53:00 BASE 12.73 234 15.59 229 -9.4 87 -11.2 6 0 974.2 NA 0.0000 9999 1570 0 0 0
2019/09/13 10:54:00 BASE 13.21 231 15.59 229 -9.4 87 -11.2 7 0 974.3 NA 0.0000 9999 1570 0 0 0
2019/09/13 10:55:00 BASE 11.74 231 15.59 229 -9.4 87 -11.2 7 0 974.3 NA 0.0000 9999 1640 0 0 0
2019/09/13 10:56:00 BASE 11.93 233 15.59 229 -9.4 86 -11.2 8 0 974.3 NA 0.0000 9999 1540 0 0 0
2019/09/13 10:57:00 BASE 13.51 232 15.59 229 -9.4 86 -11.3 8 0 974.3 NA 0.0000 9999 1480 0 0 0
2019/09/13 10:58:00 BASE 14.50 231 16.10 230 -9.4 86 -11.3 9 0 974.3 NA 0.0000 9999 1540 0 0 0
2019/09/13 10:59:00 BASE 14.14 231 16.10 230 -9.4 86 -11.3 10 0 974.3 NA 0.0000 9999 1610 0 0 0
2019/09/13 11:00:00 BASE 13.71 232 16.10 230 -9.4 86 -11.3 10 0 974.3 NA 0.0000 9999 1640 0 0 0
2019/09/13 11:01:00 BASE 12.89 235 16.10 230 -9.4 86 -11.3 11 0 974.3 NA 0.0000 9999 1670 0 0 0
2019/09/13 11:02:00 BASE 12.16 239 16.10 230 -9.4 86 -11.3 11 0 974.3 NA 0.0000 9999 1610 0 0 0
2019/09/13 11:03:00 BASE 12.59 239 16.10 230 -9.4 86 -11.4 12 0 974.4 NA 0.0000 9999 1610 0 0 0
2019/09/13 11:04:00 BASE 12.25 231 16.10 230 -9.4 86 -11.4 12 0 974.4 NA 0.0000 9999 1670 0 0 0
2019/09/13 11:05:00 BASE 11.04 224 16.10 230 -9.4 85 -11.4 13 0 974.5 NA 0.0000 9999 1670 0 0 0
2019/09/13 11:06:00 BASE 12.19 224 16.10 230 -9.4 85 -11.4 13 0 974.4 NA 0.0000 9999 1840 0 0 0
2019/09/13 11:07:00 BASE 14.37 225 17.29 230 -9.4 85 -11.5 14 0 974.4 NA 0.0000 9999 1670 0 0 0
2019/09/13 11:08:00 BASE 14.47 225 17.29 230 -9.4 85 -11.4 15 0 974.5 NA 0.0000 9999 1670 0 0 0
2019/09/13 11:09:00 BASE 14.35 225 17.29 230 -9.4 85 -11.4 15 0 974.4 NA 0.0000 9999 1900 0 0 0
2019/09/13 11:10:00 BASE 14.69 225 17.29 230 -9.4 85 -11.5 16 0 974.5 NA 0.0000 9999 2000 0 0 0
2019/09/13 11:11:00 BASE 14.85 223 17.29 230 -9.4 85 -11.5 16 0 974.4 NA 0.0000 9999 2030 0 0 0
2019/09/13 11:12:00 BASE 14.50 225 17.29 230 -9.4 84 -11.5 17 0 974.5 NA 0.0000 9999 1940 0 0 0
2019/09/13 11:13:00 BASE 14.54 226 17.29 230 -9.4 84 -11.6 18 0 974.5 NA 0.0000 9999 1970 0 0 0
2019/09/13 11:14:00 BASE 14.48 225 17.29 230 -9.4 84 -11.7 18 0 974.5 NA 0.0000 9999 2030 0 0 0
2019/09/13 11:15:00 BASE 12.84 228 17.29 230 -9.4 83 -11.7 18 0 974.6 NA 0.0000 9999 2070 0 0 0
2019/09/13 11:16:00 BASE 11.60 234 17.29 230 -9.4 83 -11.7 19 0 974.5 NA 0.0000 9999 1970 0 0 0
2019/09/13 11:17:00 BASE 12.20 230 16.98 223 -9.4 83 -11.8 20 0 974.6 NA 0.0000 9999 2030 0 0 0
2019/09/13 11:18:00 BASE 12.18 224 16.98 223 -9.4 83 -11.8 19 0 974.7 NA 0.0000 9999 1710 0 0 0
2019/09/13 11:19:00 BASE 12.83 224 16.98 223 -9.4 83 -11.8 19 0 974.6 NA 0.0000 9999 1870 0 0 0
2019/09/13 11:20:00 BASE 13.86 224 16.98 223 -9.4 83 -11.8 19 0 974.7 NA 0.0000 9999 1900 0 0 0
2019/09/13 11:21:00 BASE 13.54 224 15.95 220 -9.4 82 -11.9 19 0 974.7 NA 0.0000 9999 2230 0 0 0
2019/09/13 11:22:00 BASE 12.95 224 15.95 220 -9.4 82 -11.9 20 0 974.7 NA 0.0000 9999 2330 0 0 0
2019/09/13 11:23:00 BASE 13.42 224 15.84 221 -9.5 82 -12.0 21 0 974.7 NA 0.0000 9999 2790 0 0 0
2019/09/13 11:24:00 BASE 13.81 224 15.84 221 -9.5 82 -12.0 23 0 974.8 NA 0.0000 9999 2230 0 0 0
2019/09/13 11:25:00 BASE 12.01 226 15.84 221 -9.5 82 -12.0 24 0 974.8 NA 0.0000 9999 2590 0 0 0
2019/09/13 11:26:00 BASE 11.12 228 15.84 221 -9.5 82 -12.0 25 0 974.8 NA 0.0000 9999 2360 0 0 0
2019/09/13 11:27:00 BASE 11.39 230 15.84 221 -9.5 82 -12.1 24 0 974.8 NA 0.0000 9999 1940 0 0 0
2019/09/13 11:28:00 BASE 12.12 230 15.84 221 -9.6 82 -12.1 23 0 974.8 NA 0.0000 9999 2230 0 0 0
2019/09/13 11:29:00 BASE 12.72 223 15.84 221 -9.6 82 -12.1 24 0 974.8 NA 0.0000 9999 2130 0 0 0
2019/09/13 11:30:00 BASE 13.44 218 16.20 214 -9.6 81 -12.2 25 0 974.8 NA 0.0000 9999 2130 0 0 0
2019/09/13 11:31:00 BASE 13.81 219 16.20 214 -9.6 81 -12.2 24 0 974.8 NA 0.0000 9999 2170 0 0 0
2019/09/13 11:32:00 BASE 14.16 220 16.57 225 -9.6 81 -12.2 23 0 974.8 NA 0.0000 9999 2400 0 0 0
2019/09/13 11:33:00 BASE 14.83 223 16.57 225 -9.6 81 -12.3 23 0 974.8 NA 0.0000 9999 2170 2760 0 0
2019/09/13 11:34:00 BASE 14.09 228 16.57 225 -9.6 81 -12.3 24 0 974.9 NA 0.0000 9999 2260 0 0 0
2019/09/13 11:35:00 BASE 13.87 229 16.57 225 -9.6 81 -12.3 24 0 974.9 NA 0.0000 9999 2170 0 0 0
2019/09/13 11:36:00 BASE 13.68 228 16.57 225 -9.7 81 -12.3 24 0 974.9 NA 0.0000 9999 2100 0 0 0
2019/09/13 11:37:00 BASE 13.06 225 16.57 225 -9.7 81 -12.3 25 0 974.9 NA 0.0000 9999 1710 0 0 0
2019/09/13 11:38:00 BASE 13.03 227 16.57 225 -9.7 81 -12.3 25 0 974.9 NA 0.0000 9999 1710 0 0 0
2019/09/13 11:39:00 BASE 13.30 230 16.57 225 -9.7 81 -12.3 27 0 974.9 NA 0.0000 9999 1970 0 0 0
2019/09/13 11:40:00 BASE 12.53 226 16.57 225 -9.7 81 -12.3 27 0 975.0 NA 0.0000 9999 1870 0 0 0
2019/09/13 11:41:00 BASE 11.70 226 16.57 225 -9.7 81 -12.3 27 0 975.1 NA 0.0000 9999 1740 0 0 0
2019/09/13 11:42:00 BASE 11.29 230 16.00 236 -9.7 81 -12.3 27 0 975.1 NA 0.0000 9999 1710 0 0 0
2019/09/13 11:43:00 BASE 10.58 229 16.00 236 -9.7 81 -12.3 27 0 975.1 NA 0.0000 9999 1800 0 0 0
2019/09/13 11:44:00 BASE 10.81 230 16.00 236 -9.7 81 -12.3 26 0 975.1 NA 0.0000 9999 1900 0 0 0
2019/09/13 11:45:00 BASE 11.40 233 14.82 223 -9.7 81 -12.3 26 0 975.1 NA 0.0000 9999 1770 0 0 0
2019/09/13 11:46:00 BASE 10.95 234 14.66 221 -9.7 81 -12.3 27 0 975.1 NA 0.0000 9999 1800 0 0 0
2019/09/13 11:47:00 BASE 11.16 234 14.66 221 -9.7 81 -12.3 27 0 975.1 NA 0.0000 9999 1840 0 0 0
2019/09/13 11:48:00 BASE 11.21 235 14.66 221 -9.7 81 -12.3 27 0 975.1 NA 0.0000 9999 1710 0 0 0
2019/09/13 11:49:00 BASE 10.27 237 13.12 242 -9.7 81 -12.3 27 0 975.1 NA 0.0000 9999 1670 0 0 0
2019/09/13 11:50:00 BASE 9.28 239 13.12 242 -9.7 81 -12.2 27 0 975.2 NA 0.0000 9999 1740 0 0 0
2019/09/13 11:51:00 BASE 8.93 239 13.12 242 -9.6 82 -12.2 27 0 975.2 NA 0.0000 9999 1710 0 0 0
2019/09/13 11:52:00 BASE 9.14 241 13.12 242 -9.6 82 -12.1 27 0 975.2 NA 0.0000 9999 1670 0 0 0
2019/09/13 11:53:00 BASE 8.74 242 13.12 242 -9.6 82 -12.1 27 0 975.2 NA 0.0000 9999 1640 0 0 0
2019/09/13 11:54:00 BASE 7.99 245 13.12 242 -9.6 82 -12.1 27 0 975.2 NA 0.0000 9999 1670 0 0 0
2019/09/13 11:55:00 BASE 7.81 246 13.12 242 -9.7 82 -12.2 27 0 975.2 NA 0.0000 9999 1610 0 0 0
2019/09/13 11:56:00 BASE 8.01 243 13.12 242 -9.7 82 -12.2 28 0 975.2 NA 0.0000 9999 1610 0 0 0
2019/09/13 11:57:00 BASE 8.38 239 12.30 238 -9.7 82 -12.2 28 0 975.2 NA 0.0000 9999 1670 0 0 0
2019/09/13 11:58:00 BASE 8.74 239 12.30 238 -9.7 82 -12.2 29 0 975.2 NA 0.0000 9999 1840 0 0 0
2019/09/13 11:59:00 BASE 8.98 243 11.68 249 -9.7 82 -12.1 29 0 975.2 NA 0.0000 9999 1710 0 0 0
2019/09/13 12:00:00 BASE 10.36 245 12.35 247 -9.7 82 -12.1 30 0 975.2 NA 0.0000 9999 1670 0 0 0
2019/09/13 12:01:00 BASE 11.25 245 12.55 245 -9.7 82 -12.2 30 0 975.2 NA 0.0000 9999 1770 19880 0 0
2019/09/13 12:02:00 BASE 10.26 244 12.55 245 -9.7 82 -12.2 31 0 975.3 NA 0.0000 9999 1970 0 0 0
2019/09/13 12:03:00 BASE 8.87 246 12.55 245 -9.7 82 -12.2 32 0 975.3 NA 0.0000 9999 1970 0 0 0
2019/09/13 12:04:00 BASE 10.13 250 13.27 252 -9.8 82 -12.2 33 0 975.3 NA 0.0000 9999 1970 0 0 0
2019/09/13 12:05:00 BASE 11.67 252 13.27 252 -9.8 82 -12.3 34 0 975.3 NA 0.0000 9999 2000 0 0 0
2019/09/13 12:06:00 BASE 11.15 253 13.27 252 -9.8 82 -12.3 35 0 975.3 NA 0.0000 9999 2070 0 0 0
2019/09/13 12:07:00 BASE 10.42 254 13.27 252 -9.8 81 -12.4 36 0 975.4 NA 0.0000 9999 2070 0 0 0
2019/09/13 12:08:00 BASE 9.71 254 13.27 252 -9.8 81 -12.5 36 0 975.4 NA 0.0000 9999 2100 0 0 0
2019/09/13 12:09:00 BASE 9.43 251 13.27 252 -9.9 81 -12.5 36 0 975.4 NA 0.0000 9999 2170 0 0 0
2019/09/13 12:10:00 BASE 10.13 249 13.27 252 -9.9 81 -12.6 36 0 975.4 NA 0.0000 9999 2070 0 0 0
2019/09/13 12:11:00 BASE 10.41 244 13.27 252 -9.9 81 -12.6 37 0 975.4 NA 0.0000 9999 2130 0 0 0
2019/09/13 12:12:00 BASE 9.20 240 13.27 252 -9.9 80 -12.6 37 0 975.4 NA 0.0000 9999 2200 0 0 0
2019/09/13 12:13:00 BASE 8.39 240 13.27 252 -9.9 80 -12.6 38 0 975.4 NA 0.0000 9999 2070 0 0 0
2019/09/13 12:14:00 BASE 8.63 242 12.55 254 -9.8 80 -12.6 38 0 975.5 NA 0.0000 9999 2100 0 0 0
2019/09/13 12:15:00 BASE 10.30 247 13.17 252 -9.8 80 -12.6 38 0 975.5 NA 0.0000 9999 2130 0 0 0
2019/09/13 12:16:00 BASE 12.12 252 13.68 260 -9.8 80 -12.7 39 0 975.5 NA 0.0000 9999 2130 0 0 0
2019/09/13 12:17:00 BASE 12.53 255 14.51 259 -9.9 80 -12.8 39 0 975.5 NA 0.0000 9999 2170 0 0 0
2019/09/13 12:18:00 BASE 11.68 252 14.51 259 -10.0 79 -12.8 39 0 975.5 NA 0.0000 9999 2200 0 0 0
2019/09/13 12:19:00 BASE 10.65 247 14.51 259 -10.0 79 -12.9 41 0 975.5 NA 0.0000 9999 2170 0 0 0
2019/09/13 12:20:00 BASE 11.02 247 14.51 259 -10.1 79 -13.0 42 0 975.6 NA 0.0000 9999 2200 0 0 0
2019/09/13 12:21:00 BASE 11.25 245 14.51 259 -10.1 79 -13.0 41 0 975.6 NA 0.0000 9999 2130 0 0 0
2019/09/13 12:22:00 BASE 11.50 242 14.51 259 -10.1 79 -13.0 41 0 975.6 NA 0.0000 9999 2070 0 0 0
2019/09/13 12:23:00 BASE 12.41 238 14.51 259 -10.1 79 -13.0 41 0 975.6 NA 0.0000 9999 1970 0 0 0
2019/09/13 12:24:00 BASE 12.34 241 14.51 259 -10.1 79 -13.0 41 0 975.6 NA 0.0000 9999 1970 0 0 0
2019/09/13 12:25:00 BASE 12.19 242 14.51 259 -10.1 79 -13.1 41 0 975.6 NA 0.0000 9999 1840 0 0 0
2019/09/13 12:26:00 BASE 11.49 240 14.51 259 -10.1 79 -13.1 41 0 975.6 NA 0.0000 9999 1970 0 0 0
2019/09/13 12:27:00 BASE 9.94 238 14.20 235 -10.1 78 -13.1 41 0 975.6 NA 0.0000 9999 1840 0 0 0
2019/09/13 12:28:00 BASE 9.38 235 14.20 235 -10.0 78 -13.1 40 0 975.6 NA 0.0000 9999 1800 0 0 0
2019/09/13 12:29:00 BASE 9.94 238 14.20 235 -10.0 78 -13.1 38 0 975.6 NA 0.0000 9999 1770 22110 0 0
2019/09/13 12:30:00 BASE 11.29 243 14.20 235 -10.0 79 -13.0 37 0 975.6 NA 0.0000 9999 1840 0 0 0
2019/09/13 12:31:00 BASE 12.80 246 15.23 248 -10.0 79 -13.0 36 0 975.6 NA 0.0000 9999 1770 0 0 0
2019/09/13 12:32:00 BASE 13.63 250 15.23 248 -10.0 79 -13.0 36 0 975.6 NA 0.0000 9999 1670 0 0 0
2019/09/13 12:33:00 BASE 12.19 256 15.23 248 -10.0 79 -13.0 35 0 975.7 NA 0.0000 9999 1940 0 0 0
2019/09/13 12:34:00 BASE 8.64 268 15.23 248 -10.1 79 -13.0 34 0 975.8 NA 0.0000 9999 1770 0 0 0
2019/09/13 12:35:00 BASE 6.50 282 15.23 248 -10.1 79 -13.0 34 0 975.8 NA 0.0000 9999 1770 0 0 0
2019/09/13 12:36:00 BASE 6.66 291 15.23 248 -10.1 80 -13.0 33 0 975.8 NA 0.0000 9999 1740 0 0 0
2019/09/13 12:37:00 BASE 6.60 293 15.23 248 -10.2 80 -12.9 32 0 975.8 NA 0.0000 9999 1740 0 0 0
2019/09/13 12:38:00 BASE 6.02 289 15.23 248 -10.2 81 -12.8 32 0 975.9 NA 0.0000 9999 1710 0 0 0
2019/09/13 12:39:00 BASE 5.61 271 15.23 248 -10.2 82 -12.7 32 0 975.8 NA 0.0000 9999 1740 0 0 0
2019/09/13 12:40:00 BASE 6.33 257 15.23 248 -10.2 83 -12.6 32 0 975.8 NA 0.0000 9999 1870 0 0 0
2019/09/13 12:41:00 BASE 7.53 255 15.07 250 -10.2 84 -12.5 32 0 975.8 NA 0.0000 9999 2000 0 0 0
2019/09/13 12:42:00 BASE 8.22 254 13.84 254 -10.2 84 -12.4 32 0 975.8 NA 0.0000 9999 2070 0 0 0
2019/09/13 12:43:00 BASE 9.26 255 12.04 254 -10.2 84 -12.3 30 0 975.7 NA 0.0000 9999 2030 0 0 0
2019/09/13 12:44:00 BASE 9.96 254 12.04 252 -10.1 84 -12.3 30 0 975.8 NA 0.0000 9999 2100 0 0 0
2019/09/13 12:45:00 BASE 9.79 258 12.04 252 -10.1 84 -12.2 30 0 975.8 NA 0.0000 9999 2130 0 0 0
2019/09/13 12:46:00 BASE 8.67 274 12.04 252 -10.1 84 -12.3 30 0 975.8 NA 0.0000 9999 2330 0 0 0
2019/09/13 12:47:00 BASE 9.18 297 12.04 252 -10.2 84 -12.5 30 0 975.8 NA 0.0000 9999 2360 0 0 0
2019/09/13 12:48:00 BASE 10.41 300 12.04 252 -10.4 83 -12.7 29 0 975.9 NA 0.0000 9999 2300 0 0 0
2019/09/13 12:49:00 BASE 9.95 294 12.04 252 -10.6 83 -12.9 31 0 975.9 NA 0.0000 9999 2590 0 0 0
2019/09/13 12:50:00 BASE 9.23 298 12.04 252 -10.8 83 -13.1 32 0 975.9 NA 0.0000 9999 2330 0 0 0
2019/09/13 12:51:00 BASE 9.25 300 12.04 252 -11.0 83 -13.3 37 0 975.9 NA 0.0000 9999 2760 0 0 0
2019/09/13 12:52:00 BASE 9.76 298 12.04 252 -11.1 84 -13.3 41 0 976.0 NA 0.0000 9999 390 1870 0 0
2019/09/13 12:53:00 BASE 9.65 297 12.04 252 -11.2 84 -13.3 40 0 976.0 NA 0.0000 9999 390 1840 0 0
2019/09/13 12:54:00 BASE 9.33 297 11.21 307 -11.3 85 -13.3 39 0 976.0 NA 0.0000 9999 360 1740 0 0
2019/09/13 12:55:00 BASE 8.86 298 11.21 307 -11.3 86 -13.2 38 0 976.0 NA 0.0000 -SN 9999 360 1970 0 0
2019/09/13 12:56:00 BASE 8.40 299 11.21 307 -11.3 86 -13.1 36 0 976.0 NA 0.0000 -SN 9999 390 1440 0 0
2019/09/13 12:57:00 BASE 7.81 303 10.91 295 -11.3 87 -13.0 38 0 976.0 NA 0.0000 -SN 9999 390 2430 0 0
2019/09/13 12:58:00 BASE 8.18 307 10.91 295 -11.2 87 -13.0 44 0 976.0 NA 0.0000 -SN 9999 360 0 0 0
2019/09/13 12:59:00 BASE 9.37 308 11.21 302 -11.2 88 -12.9 51 0 976.0 NA 0.0000 -SN 9000 360 0 0 0
2019/09/13 13:00:00 BASE 9.54 304 11.21 302 -11.2 88 -12.8 49 0 976.1 NA 0.0000 -SN 9000 360 0 0 0
2019/09/13 13:01:00 BASE 8.73 301 11.21 302 -11.1 88 -12.7 51 0 976.2 NA 0.0000 -SN 9999 360 0 0 0
2019/09/13 13:02:00 BASE 8.03 301 11.21 302 -11.1 89 -12.6 59 0 976.2 NA 0.0000 -SN 9000 390 0 0 0
2019/09/13 13:03:00 BASE 7.96 300 11.21 302 -11.1 89 -12.6 59 0 976.2 NA 0.0000 -SN BR 9000 590 0 0 0
2019/09/13 13:04:00 BASE 8.60 298 11.21 302 -11.1 89 -12.5 62 0 976.2 NA 0.0000 -SN BR 9000 620 0 0 0
2019/09/13 13:05:00 BASE 8.75 296 11.21 302 -11.1 90 -12.5 67 0 976.2 NA 0.0000 -SN BR 9999 360 2030 0 0
2019/09/13 13:06:00 BASE 9.10 295 11.21 302 -11.1 90 -12.4 74 0 976.2 NA 0.0000 -SN BR 9999 360 0 0 0
2019/09/13 13:07:00 BASE 9.76 293 11.21 302 -11.2 91 -12.4 89 0 976.2 NA 0.0000 -SN BR 7000 330 0 0 0
2019/09/13 13:08:00 BASE 9.42 295 11.21 302 -11.1 91 -12.3 96 0 976.2 NA 0.0000 -SN BR 9000 360 0 0 0
2019/09/13 13:09:00 BASE 9.10 297 11.06 291 -11.1 91 -12.3 103 0 976.2 NA 0.0000 -SN BR 9000 390 0 0 0
2019/09/13 13:10:00 BASE 8.69 298 11.06 291 -11.2 92 -12.3 99 0 976.2 NA 0.0000 -SN BR 9999 330 0 0 0
2019/09/13 13:11:00 BASE 8.31 299 11.06 291 -11.2 92 -12.2 100 0 976.3 NA 0.0000 -SN BR 9999 360 0 0 0
2019/09/13 13:12:00 BASE 9.13 298 11.11 295 -11.2 92 -12.2 96 0 976.3 NA 0.0000 -SN BR 9999 430 0 0 0
2019/09/13 13:13:00 BASE 9.79 297 11.11 295 -11.2 93 -12.1 85 0 976.3 NA 0.0000 -SN BR 9000 360 0 0 0
2019/09/13 13:14:00 BASE 9.90 296 11.32 289 -11.2 93 -12.1 88 0 976.3 NA 0.0000 -SN BR 9000 360 0 0 0
2019/09/13 13:15:00 BASE 10.72 290 12.60 278 -11.2 94 -12.0 100 0 976.3 NA 0.0000 -SN BR 9000 260 0 0 0
2019/09/13 13:16:00 BASE 11.41 287 13.99 284 -11.2 94 -11.9 97 0 976.3 NA 0.0000 -SN BR 9000 390 0 0 0
2019/09/13 13:17:00 BASE 12.33 290 13.99 284 -11.2 95 -11.9 93 0 976.3 NA 0.0000 -SN BR 9000 620 0 0 0
2019/09/13 13:18:00 BASE 11.64 286 13.99 284 -11.2 95 -11.8 95 0 976.4 NA 0.0000 -SN BR 9000 520 0 0 0
2019/09/13 13:19:00 BASE 9.78 283 13.99 284 -11.2 95 -11.8 100 0 976.4 NA 0.0000 -SN BR 9000 460 0 0 0
2019/09/13 13:20:00 BASE 10.32 281 13.99 284 -11.2 95 -11.8 102 0 976.4 NA 0.0000 -SN BR 9000 300 0 0 0
2019/09/13 13:21:00 BASE 10.47 275 13.99 284 -11.2 96 -11.8 97 0 976.5 NA 0.0000 -SN BR 9000 260 0 0 0
2019/09/13 13:22:00 BASE 9.30 278 13.99 284 -11.2 96 -11.8 91 0 976.5 NA 0.0000 -SN BR 9000 260 0 0 0
2019/09/13 13:23:00 BASE 9.22 280 13.99 284 -11.3 96 -11.8 89 0 976.5 NA 0.0000 -SN BR 9000 360 0 0 0
2019/09/13 13:24:00 BASE 9.15 278 13.99 284 -11.3 96 -11.8 86 0 976.5 NA 0.0000 -SN BR 9999 430 0 0 0
2019/09/13 13:25:00 BASE 9.87 279 13.99 284 -11.3 96 -11.8 81 0 976.5 NA 0.0000 -SN BR 9999 330 0 0 0
2019/09/13 13:26:00 BASE 11.32 283 13.68 288 -11.4 97 -11.8 79 0 976.5 NA 0.0000 -SN BR 9999 750 0 0 0
2019/09/13 13:27:00 BASE 11.31 284 13.53 289 -11.4 97 -11.8 82 0 976.5 NA 0.0000 -SN BR 9999 460 0 0 0
2019/09/13 13:28:00 BASE 9.99 282 13.53 289 -11.4 97 -11.8 84 0 976.6 NA 0.0000 -SN 9999 390 0 0 0
2019/09/13 13:29:00 BASE 9.47 287 13.53 289 -11.5 97 -11.9 82 0 976.6 NA 0.0000 -SN 9999 850 1670 0 0
2019/09/13 13:30:00 BASE 10.18 290 13.53 289 -11.5 97 -11.9 94 0 976.6 NA 0.0000 -SN 9999 590 1410 0 0
2019/09/13 13:31:00 BASE 10.44 291 13.53 289 -11.6 97 -12.0 109 0 976.6 NA 0.0000 -SN 9999 790 2100 0 0
2019/09/13 13:32:00 BASE 9.80 294 13.53 289 -11.7 97 -12.0 105 0 976.7 NA 0.0000 -SN 9000 460 0 0 0
2019/09/13 13:33:00 BASE 9.26 294 13.53 289 -11.7 97 -12.1 130 0 976.7 NA 0.0000 -SN 9999 430 2200 0 0
2019/09/13 13:34:00 BASE 9.19 288 13.53 289 -11.7 97 -12.1 167 0 976.7 NA 0.0000 -SN 9999 390 1480 0 0
2019/09/13 13:35:00 BASE 8.15 278 13.53 289 -11.7 97 -12.0 162 0 976.7 NA 0.0000 -SN 9999 390 1640 0 0
2019/09/13 13:36:00 BASE 7.76 276 12.24 281 -11.6 98 -11.9 141 0 976.7 NA 0.0000 -SN 9000 590 0 0 0
2019/09/13 13:37:00 BASE 8.88 284 12.09 285 -11.6 98 -11.9 128 0 976.6 NA 0.0000 -SN BR 8000 360 0 0 0
2019/09/13 13:38:00 BASE 9.02 283 12.09 285 -11.5 98 -11.8 129 0 976.7 NA 0.0000 -SN BR 7000 390 1840 0 0
2019/09/13 13:39:00 BASE 8.27 284 12.09 285 -11.5 98 -11.8 120 0 976.7 NA 0.0000 -SN BR 9000 660 0 0 0
2019/09/13 13:40:00 BASE 8.07 288 11.37 298 -11.5 98 -11.7 115 0 976.7 NA 0.0000 -SN BR 8000 820 0 0 0
2019/09/13 13:41:00 BASE 8.37 292 11.11 290 -11.5 98 -11.8 137 0 976.7 NA 0.0000 -SN BR 9000 920 0 0 0
2019/09/13 13:42:00 BASE 8.54 299 11.11 290 -11.5 98 -11.8 136 0 976.7 NA 0.0000 -SN BR 9000 850 0 0 0
2019/09/13 13:43:00 BASE 8.59 302 10.60 281 -11.5 98 -11.8 115 0 976.8 NA 0.0000 -SN BR 9999 660 0 0 0
2019/09/13 13:44:00 BASE 8.35 307 10.60 281 -11.6 98 -11.8 108 0 976.8 NA 0.0000 -SN BR 9000 850 0 0 0
2019/09/13 13:45:00 BASE 8.13 308 10.60 281 -11.6 98 -11.9 111 0 976.8 NA 0.0000 -SN BR 9999 620 0 0 0
2019/09/13 13:46:00 BASE 8.57 304 10.60 281 -11.6 98 -11.9 109 0 976.8 NA 0.0000 -SN BR 9999 790 0 0 0
2019/09/13 13:47:00 BASE 9.28 295 11.21 280 -11.7 98 -11.9 113 0 976.9 NA 0.0000 -SN BR 9999 520 0 0 0
2019/09/13 13:48:00 BASE 8.86 289 11.21 280 -11.6 98 -11.9 130 0 976.9 NA 0.0000 -SN BR 9999 750 20600 0 0
2019/09/13 13:49:00 BASE 9.77 287 12.45 286 -11.6 98 -11.8 123 0 976.9 NA 0.0000 -SN BR 8000 890 0 0 0
2019/09/13 13:50:00 BASE 9.88 284 12.45 286 -11.6 99 -11.7 115 0 977.0 NA 0.0000 -SN BR 6000 390 0 0 0
2019/09/13 13:51:00 BASE 8.04 285 12.45 286 -11.5 99 -11.7 137 0 977.0 NA 0.0000 -SN BR 7000 390 0 0 0
2019/09/13 13:52:00 BASE 7.69 281 12.45 286 -11.5 99 -11.6 138 0 977.0 NA 0.0000 -SN BR 8000 890 0 0 0
2019/09/13 13:53:00 BASE 8.34 278 12.45 286 -11.5 99 -11.6 122 0 977.0 NA 0.0000 -SN BR 9000 430 0 0 0
2019/09/13 13:54:00 BASE 9.06 282 12.45 286 -11.5 99 -11.6 123 0 977.0 NA 0.0000 -SN BR 7000 360 0 0 0
2019/09/13 13:55:00 BASE 9.72 284 12.45 279 -11.5 99 -11.6 150 0 977.0 NA 0.0000 -SN BR 7000 430 2200 0 0
2019/09/13 13:56:00 BASE 10.18 282 12.45 279 -11.5 99 -11.6 171 0 977.0 NA 0.0000 -SN BR 8000 660 0 0 0
2019/09/13 13:57:00 BASE 9.06 275 12.45 279 -11.6 99 -11.7 136 0 977.1 NA 0.0000 -SN BR 8000 360 0 0 0
2019/09/13 13:58:00 BASE 7.65 277 12.45 279 -11.6 99 -11.7 122 0 977.1 NA 0.0000 -SN BR 9000 430 0 0 0
2019/09/13 13:59:00 BASE 8.43 285 12.45 279 -11.6 99 -11.7 134 0 977.1 NA 0.0000 -SN BR 9999 560 0 0 0
2019/09/13 14:00:00 BASE 10.19 288 12.45 279 -11.6 99 -11.7 148 0 977.1 NA 0.0000 -SN BR 9000 390 0 0 0
2019/09/13 14:01:00 BASE 11.09 292 12.45 279 -11.7 99 -11.8 163 0 977.1 NA 0.0000 -SN BR 9000 390 0 0 0
2019/09/13 14:02:00 BASE 10.97 292 12.45 279 -11.7 99 -11.8 163 0 977.2 NA 0.0000 -SN BR 9000 360 0 0 0
2019/09/13 14:03:00 BASE 10.09 288 12.45 279 -11.8 99 -11.9 166 0 977.2 NA 0.0000 -SN BR 8000 300 0 0 0
2019/09/13 14:04:00 BASE 9.82 289 12.45 279 -11.8 99 -12.0 171 0 977.2 NA 0.0000 -SN BR 8000 360 0 0 0
2019/09/13 14:05:00 BASE 9.46 288 12.40 292 -11.9 99 -12.0 169 0 977.2 NA 0.0000 -SN BR 6000 390 0 0 0
2019/09/13 14:06:00 BASE 9.19 289 12.40 292 -11.9 99 -12.0 165 0 977.2 NA 0.0000 -SN BR 5000 360 0 0 0
2019/09/13 14:07:00 BASE 9.51 295 12.40 292 -11.9 99 -12.0 158 0 977.2 NA 0.0000 -SN BR 5000 330 0 0 0
2019/09/13 14:08:00 BASE 10.05 294 12.60 288 -11.9 99 -12.0 157 0 977.2 NA 0.0000 -SN BR 5000 300 0 0 0
2019/09/13 14:09:00 BASE 10.27 290 12.60 288 -11.9 99 -12.0 158 0 977.2 NA 0.0000 -SN BR 5000 330 0 0 0
2019/09/13 14:10:00 BASE 9.35 288 12.60 288 -11.9 99 -12.0 158 0 977.3 NA 0.0000 -SN BR 6000 360 0 0 0
2019/09/13 14:11:00 BASE 8.80 286 12.60 288 -11.9 99 -12.0 153 0 977.3 NA 0.0000 -SN BR 8000 360 0 0 0
2019/09/13 14:12:00 BASE 9.16 279 12.60 288 -11.9 99 -12.0 148 0 977.3 NA 0.0000 -SN BR 7000 360 0 0 0
2019/09/13 14:13:00 BASE 9.67 280 12.60 288 -11.9 99 -12.0 146 0 977.3 NA 0.0000 -SN BR 6000 390 0 0 0
2019/09/13 14:14:00 BASE 9.49 286 12.60 288 -11.9 99 -12.0 146 0 977.3 NA 0.0000 -SN BR 7000 330 0 0 0
2019/09/13 14:15:00 BASE 9.95 290 12.60 288 -12.0 99 -12.1 147 0 977.3 NA 0.0000 -SN BR 7000 300 0 0 0
2019/09/13 14:16:00 BASE 10.32 288 12.60 288 -12.0 99 -12.1 147 0 977.3 NA 0.0000 -SN BR 7000 230 23130 0 0
2019/09/13 14:17:00 BASE 9.34 283 12.60 288 -12.0 99 -12.2 152 0 977.4 NA 0.0000 -SN BR 7000 260 0 0 0
2019/09/13 14:18:00 BASE 9.61 284 12.81 288 -12.1 99 -12.2 151 0 977.4 NA 0.0000 -SN BR 7000 330 0 0 0
2019/09/13 14:19:00 BASE 10.00 282 12.81 288 -12.1 99 -12.2 147 0 977.4 NA 0.0000 -SN BR 7000 330 0 0 0
2019/09/13 14:20:00 BASE 8.80 274 12.81 288 -12.1 99 -12.2 147 0 977.4 NA 0.0000 -SN BR 8000 430 0 0 0
2019/09/13 14:21:00 BASE 7.79 272 12.81 288 -12.1 99 -12.2 147 0 977.5 NA 0.0000 -SN BR 9000 330 0 0 0
2019/09/13 14:22:00 BASE 8.73 277 12.81 288 -12.1 99 -12.1 146 0 977.4 NA 0.0000 -SN BR 9000 360 0 0 0
2019/09/13 14:23:00 BASE 9.05 272 12.81 288 -12.1 100 -12.1 150 0 977.5 NA 0.0000 -SN BR 9999 390 0 0 0
2019/09/13 14:24:00 BASE 8.64 263 12.81 288 -12.0 100 -12.1 154 0 977.5 NA 0.0000 BR 9999 430 0 0 0
2019/09/13 14:25:00 BASE 9.30 267 12.81 288 -12.0 100 -12.0 153 0 977.5 NA 0.0000 BR 9999 390 0 0 0
2019/09/13 14:26:00 BASE 9.49 269 12.81 288 -12.0 100 -12.0 144 0 977.5 NA 0.0000 BR 9999 430 0 0 0
2019/09/13 14:27:00 BASE 9.13 267 12.81 288 -12.0 100 -12.0 140 0 977.6 NA 0.0000 9999 690 0 0 0
2019/09/13 14:28:00 BASE 9.71 264 12.45 256 -12.0 100 -12.0 150 0 977.6 NA 0.0000 9999 690 0 0 0
2019/09/13 14:29:00 BASE 10.63 266 13.22 274 -12.1 100 -12.1 157 0 977.6 NA 0.0000 9999 690 0 0 0
2019/09/13 14:30:00 BASE 10.01 265 13.22 274 -12.1 100 -12.1 157 0 977.7 NA 0.0000 9999 720 0 0 0
2019/09/13 14:31:00 BASE 9.19 258 13.22 274 -12.2 100 -12.2 154 0 977.7 NA 0.0000 9999 750 0 0 0
2019/09/13 14:32:00 BASE 9.37 260 13.22 274 -12.2 100 -12.2 152 0 977.7 NA 0.0000 9999 790 0 0 0
2019/09/13 14:33:00 BASE 11.05 266 14.10 265 -12.2 100 -12.2 150 0 977.7 NA 0.0000 9999 750 0 0 0
2019/09/13 14:34:00 BASE 11.58 267 14.10 265 -12.3 100 -12.3 151 0 977.8 NA 0.0000 9999 790 0 0 0
2019/09/13 14:35:00 BASE 11.57 268 14.51 267 -12.3 100 -12.3 160 0 977.7 NA 0.0000 9999 820 0 0 0
2019/09/13 14:36:00 BASE 12.02 269 14.51 267 -12.4 100 -12.4 162 0 977.8 NA 0.0000 9999 820 0 0 0
2019/09/13 14:37:00 BASE 11.42 268 14.51 267 -12.4 100 -12.4 160 0 977.8 NA 0.0000 9999 820 0 0 0
2019/09/13 14:38:00 BASE 11.00 266 14.51 267 -12.5 100 -12.5 158 0 977.8 NA 0.0000 9999 850 0 0 0
2019/09/13 14:39:00 BASE 10.35 262 14.51 267 -12.5 100 -12.5 158 0 977.8 NA 0.0000 9999 890 0 0 0
2019/09/13 14:40:00 BASE 9.77 266 14.51 267 -12.5 100 -12.5 159 0 977.9 NA 0.0000 9999 850 0 0 0
2019/09/13 14:41:00 BASE 9.25 271 14.51 267 -12.5 100 -12.5 160 0 977.9 NA 0.0000 9999 890 0 0 0
2019/09/13 14:42:00 BASE 8.85 275 14.51 267 -12.5 100 -12.5 164 0 977.9 NA 0.0000 9999 920 0 0 0
2019/09/13 14:43:00 BASE 9.53 276 14.51 267 -12.5 100 -12.5 168 0 977.9 NA 0.0000 9999 950 0 0 0
2019/09/13 14:44:00 BASE 9.93 272 14.51 267 -12.4 100 -12.4 175 0 977.9 NA 0.0000 9999 950 0 0 0
2019/09/13 14:45:00 BASE 8.95 273 13.32 259 -12.4 100 -12.4 178 0 977.9 NA 0.0000 9999 950 0 0 0
2019/09/13 14:46:00 BASE 9.06 277 13.32 259 -12.4 100 -12.4 178 0 977.9 NA 0.0000 9999 950 0 0 0
2019/09/13 14:47:00 BASE 10.21 277 13.02 276 -12.4 100 -12.4 181 0 977.9 NA 0.0000 9999 950 0 0 0
2019/09/13 14:48:00 BASE 10.66 278 13.02 276 -12.4 100 -12.4 195 0 977.9 NA 0.0000 9999 950 0 0 0
2019/09/13 14:49:00 BASE 10.96 281 13.68 280 -12.4 100 -12.4 207 0 977.9 NA 0.0000 9999 920 0 0 0
2019/09/13 14:50:00 BASE 10.31 275 13.68 280 -12.4 100 -12.4 199 0 977.9 NA 0.0000 9999 920 0 0 0
2019/09/13 14:51:00 BASE 9.72 271 13.68 280 -12.4 99 -12.5 190 0 977.9 NA 0.0000 9999 950 0 0 0
2019/09/13 14:52:00 BASE 10.30 273 13.68 280 -12.4 99 -12.5 187 0 977.9 NA 0.0000 9999 920 0 0 0
2019/09/13 14:53:00 BASE 10.50 276 13.68 280 -12.4 99 -12.5 190 0 977.9 NA 0.0000 9999 950 0 0 0
2019/09/13 14:54:00 BASE 10.24 283 13.68 280 -12.4 99 -12.5 189 0 977.9 NA 0.0000 9999 950 0 0 0
2019/09/13 14:55:00 BASE 9.91 282 13.68 280 -12.4 99 -12.5 177 0 977.9 NA 0.0000 9999 1020 0 0 0
2019/09/13 14:56:00 BASE 10.08 278 13.68 280 -12.4 99 -12.5 170 0 977.9 NA 0.0000 9999 1050 0 0 0
2019/09/13 14:57:00 BASE 10.40 279 13.68 280 -12.4 99 -12.5 165 0 978.0 NA 0.0000 9999 1050 0 0 0
2019/09/13 14:58:00 BASE 10.50 282 13.68 280 -12.4 99 -12.5 166 0 978.0 NA 0.0000 9999 1050 0 0 0
2019/09/13 14:59:00 BASE 11.13 285 13.38 282 -12.4 99 -12.5 168 0 978.0 NA 0.0000 9999 1020 0 0 0
2019/09/13 15:00:00 BASE 10.86 281 13.38 282 -12.4 99 -12.5 167 0 978.0 NA 0.0000 9999 1020 0 0 0
2019/09/13 15:01:00 BASE 9.62 278 13.38 282 -12.4 99 -12.5 163 0 978.1 NA 0.0000 9999 1080 0 0 0
2019/09/13 15:02:00 BASE 9.45 280 13.38 282 -12.4 99 -12.5 159 0 978.1 NA 0.0000 9999 1050 0 0 0
2019/09/13 15:03:00 BASE 9.49 274 13.38 282 -12.4 99 -12.5 158 0 978.1 NA 0.0000 9999 1050 0 0 0
2019/09/13 15:04:00 BASE 9.17 277 13.38 282 -12.4 99 -12.6 157 0 978.1 NA 0.0000 9999 1020 0 0 0
2019/09/13 15:05:00 BASE 10.13 284 13.38 282 -12.4 98 -12.6 161 0 978.1 NA 0.0000 9999 980 0 0 0
2019/09/13 15:06:00 BASE 11.24 278 13.38 282 -12.4 98 -12.6 164 0 978.2 NA 0.0000 9999 1050 0 0 0
2019/09/13 15:07:00 BASE 10.90 278 13.38 282 -12.4 98 -12.7 164 0 978.2 NA 0.0000 9999 1020 0 0 0
2019/09/13 15:08:00 BASE 10.77 282 13.38 282 -12.4 98 -12.7 164 0 978.2 NA 0.0000 9999 1080 0 0 0
2019/09/13 15:09:00 BASE 11.02 279 13.02 275 -12.5 98 -12.7 164 0 978.3 NA 0.0000 9999 1080 0 0 0
2019/09/13 15:10:00 BASE 10.60 275 13.02 275 -12.5 98 -12.8 162 0 978.3 NA 0.0000 9999 1020 0 0 0
2019/09/13 15:11:00 BASE 9.66 277 13.02 275 -12.6 98 -12.8 161 0 978.4 NA 0.0000 9999 950 0 0 0
2019/09/13 15:12:00 BASE 9.51 279 13.02 275 -12.6 98 -12.9 162 0 978.4 NA 0.0000 9999 1020 0 0 0
2019/09/13 15:13:00 BASE 9.28 285 13.02 275 -12.6 98 -12.9 164 0 978.4 NA 0.0000 9999 950 0 0 0
2019/09/13 15:14:00 BASE 8.97 285 13.02 275 -12.7 98 -12.9 163 0 978.5 NA 0.0000 9999 950 0 0 0
2019/09/13 15:15:00 BASE 8.93 279 13.02 275 -12.7 98 -13.0 165 0 978.5 NA 0.0000 9999 950 0 0 0
2019/09/13 15:16:00 BASE 9.52 277 12.71 284 -12.7 97 -13.0 166 0 978.5 NA 0.0000 9999 1050 0 0 0
2019/09/13 15:17:00 BASE 9.53 277 12.71 284 -12.7 97 -13.0 169 0 978.5 NA 0.0000 9999 950 0 0 0
2019/09/13 15:18:00 BASE 8.95 278 12.04 269 -12.7 97 -13.1 174 0 978.5 NA 0.0000 9999 920 0 0 0
2019/09/13 15:19:00 BASE 9.22 283 11.83 280 -12.8 97 -13.1 178 0 978.5 NA 0.0000 9999 920 0 0 0
2019/09/13 15:20:00 BASE 9.29 287 11.83 280 -12.8 97 -13.2 178 0 978.5 NA 0.0000 9999 890 0 0 0
2019/09/13 15:21:00 BASE 9.50 288 11.83 280 -12.8 97 -13.2 176 0 978.5 NA 0.0000 9999 920 0 0 0
2019/09/13 15:22:00 BASE 10.08 289 11.63 284 -12.9 97 -13.2 176 0 978.5 NA 0.0000 9999 920 0 0 0
2019/09/13 15:23:00 BASE 10.46 284 11.73 278 -12.9 97 -13.3 176 0 978.5 NA 0.0000 9999 890 0 0 0
2019/09/13 15:24:00 BASE 10.31 286 11.73 278 -12.9 97 -13.3 175 0 978.5 NA 0.0000 9999 820 0 0 0
2019/09/13 15:25:00 BASE 10.39 291 11.78 290 -12.9 97 -13.3 178 0 978.5 NA 0.0000 9999 920 0 0 0
2019/09/13 15:26:00 BASE 10.81 291 11.94 287 -12.9 97 -13.3 179 0 978.5 NA 0.0000 9999 750 0 0 0
2019/09/13 15:27:00 BASE 10.51 292 11.94 287 -12.9 97 -13.3 178 0 978.5 NA 0.0000 9999 590 0 0 0
2019/09/13 15:28:00 BASE 9.44 286 11.94 287 -12.9 97 -13.3 184 0 978.5 NA 0.0000 9999 720 0 0 0
2019/09/13 15:29:00 BASE 8.74 280 11.94 287 -13.0 97 -13.3 188 0 978.6 NA 0.0000 9999 620 0 0 0
2019/09/13 15:30:00 BASE 7.76 277 11.94 287 -13.0 97 -13.3 190 0 978.6 NA 0.0000 9999 720 0 0 0
2019/09/13 15:31:00 BASE 7.31 270 11.94 287 -12.9 97 -13.3 189 0 978.7 NA 0.0000 9999 750 0 0 0
2019/09/13 15:32:00 BASE 8.00 276 11.94 287 -12.9 97 -13.3 187 0 978.7 NA 0.0000 9999 750 0 0 0
2019/09/13 15:33:00 BASE 9.08 283 11.94 287 -12.9 97 -13.3 188 0 978.7 NA 0.0000 9999 390 0 0 0
2019/09/13 15:34:00 BASE 8.67 284 11.94 287 -12.9 97 -13.3 190 0 978.8 NA 0.0000 9999 720 0 0 0
2019/09/13 15:35:00 BASE 7.38 283 11.94 287 -12.9 97 -13.3 189 0 978.8 NA 0.0000 9999 790 0 0 0
2019/09/13 15:36:00 BASE 7.57 281 10.80 274 -12.9 97 -13.3 189 0 978.9 NA 0.0000 9999 430 0 0 0
2019/09/13 15:37:00 BASE 7.73 279 10.80 274 -12.9 97 -13.3 190 0 978.9 NA 0.0000 9999 0 0 0 1250
2019/09/13 15:38:00 BASE 8.01 277 10.65 271 -13.0 97 -13.3 191 0 978.8 NA 0.0000 9999 360 0 0 0
2019/09/13 15:39:00 BASE 9.08 279 10.65 271 -12.9 97 -13.3 192 0 978.8 NA 0.0000 9999 230 0 0 0
2019/09/13 15:40:00 BASE 9.51 279 10.85 275 -12.9 98 -13.2 197 0 978.8 NA 0.0000 9000 300 0 0 0
2019/09/13 15:41:00 BASE 9.44 276 11.27 275 -12.9 98 -13.2 200 0 978.8 NA 0.0000 9999 660 0 0 0
2019/09/13 15:42:00 BASE 8.62 275 11.27 275 -12.9 98 -13.2 199 0 978.8 NA 0.0000 9999 850 22440 0 0
2019/09/13 15:43:00 BASE 7.42 276 11.27 275 -13.0 98 -13.2 198 0 978.8 NA 0.0000 9999 390 0 0 0
2019/09/13 15:44:00 BASE 8.25 278 11.27 275 -13.0 98 -13.2 197 0 978.8 NA 0.0000 9999 330 0 0 0
2019/09/13 15:45:00 BASE 9.90 282 11.78 292 -13.0 98 -13.2 196 0 978.9 NA 0.0000 9999 330 0 0 0
2019/09/13 15:46:00 BASE 11.28 287 13.02 289 -13.0 98 -13.2 194 0 978.9 NA 0.0000 9999 330 0 0 0
2019/09/13 15:47:00 BASE 11.76 288 13.02 289 -13.1 98 -13.3 193 0 978.9 NA 0.0000 9999 300 0 0 0
2019/09/13 15:48:00 BASE 11.16 290 13.02 289 -13.1 98 -13.4 190 0 978.9 NA 0.0000 -SN 9999 330 0 0 0
2019/09/13 15:49:00 BASE 10.81 293 13.02 289 -13.2 98 -13.5 188 0 978.9 NA 0.0000 9999 360 0 0 0
2019/09/13 15:50:00 BASE 11.46 286 13.68 282 -13.3 98 -13.6 191 0 978.9 NA 0.0000 9999 430 0 0 0
2019/09/13 15:51:00 BASE 11.59 279 13.68 282 -13.3 98 -13.6 193 0 978.9 NA 0.0000 9999 300 0 0 0
2019/09/13 15:52:00 BASE 9.83 276 13.68 282 -13.3 98 -13.6 192 0 978.9 NA 0.0000 9999 430 0 0 0
2019/09/13 15:53:00 BASE 9.65 273 13.68 282 -13.3 98 -13.5 191 0 978.9 NA 0.0000 9999 520 0 0 0
2019/09/13 15:54:00 BASE 10.50 275 13.68 282 -13.3 98 -13.5 190 0 979.0 NA 0.0000 9999 720 0 0 0
2019/09/13 15:55:00 BASE 10.12 278 13.68 282 -13.3 98 -13.5 190 0 979.0 NA 0.0000 9999 360 0 0 0
2019/09/13 15:56:00 BASE 9.56 280 13.68 282 -13.3 98 -13.5 192 0 979.0 NA 0.0000 9999 390 0 0 0
2019/09/13 15:57:00 BASE 8.47 279 13.68 282 -13.3 98 -13.5 194 0 979.0 NA 0.0000 9999 850 0 0 0
2019/09/13 15:58:00 BASE 7.65 275 13.68 282 -13.3 98 -13.5 194 0 979.0 NA 0.0000 9999 460 0 0 0
2019/09/13 15:59:00 BASE 8.71 275 13.68 282 -13.2 98 -13.5 192 0 979.0 NA 0.0000 9999 560 0 0 0
2019/09/13 16:00:00 BASE 9.17 275 12.60 273 -13.2 98 -13.4 191 0 979.0 NA 0.0000 9999 490 0 0 0
2019/09/13 16:01:00 BASE 9.45 270 12.60 273 -13.2 99 -13.4 193 0 979.1 NA 0.0000 9999 790 0 0 0
2019/09/13 16:02:00 BASE 9.52 270 12.60 273 -13.2 99 -13.3 195 0 979.1 NA 0.0000 9999 620 0 0 0
2019/09/13 16:03:00 BASE 10.13 277 12.71 284 -13.2 99 -13.3 194 0 979.0 NA 0.0000 9999 690 0 0 0
2019/09/13 16:04:00 BASE 10.72 280 12.71 284 -13.3 99 -13.4 192 0 979.1 NA 0.0000 9999 390 0 0 0
2019/09/13 16:05:00 BASE 9.77 281 12.71 284 -13.3 99 -13.5 191 0 979.1 NA 0.0000 9999 690 0 0 0
2019/09/13 16:06:00 BASE 9.06 283 12.71 284 -13.3 99 -13.5 191 0 979.1 NA 0.0000 9999 720 0 0 0
2019/09/13 16:07:00 BASE 8.59 284 12.71 284 -13.4 99 -13.5 195 0 979.1 NA 0.0000 9999 690 0 0 0
2019/09/13 16:08:00 BASE 9.08 275 12.71 284 -13.4 99 -13.5 201 0 979.1 NA 0.0000 9999 690 0 0 0
2019/09/13 16:09:00 BASE 8.83 270 12.71 284 -13.3 99 -13.5 208 0 979.1 NA 0.0000 9999 690 0 0 0
2019/09/13 16:10:00 BASE 8.79 275 12.71 284 -13.3 99 -13.4 215 0 979.1 NA 0.0000 9999 690 0 0 0
2019/09/13 16:11:00 BASE 10.01 276 12.81 264 -13.3 99 -13.4 214 0 979.1 NA 0.0000 9999 720 18640 0 0
2019/09/13 16:12:00 BASE 10.21 272 12.81 264 -13.3 99 -13.4 207 0 979.1 NA 0.0000 9999 660 0 0 0
2019/09/13 16:13:00 BASE 9.95 270 12.81 264 -13.3 99 -13.5 204 0 979.1 NA 0.0000 9999 790 0 0 0
2019/09/13 16:14:00 BASE 9.76 270 12.81 264 -13.4 99 -13.5 210 0 979.2 NA 0.0000 9999 920 0 0 0
2019/09/13 16:15:00 BASE 9.14 269 12.81 264 -13.4 99 -13.6 219 0 979.2 NA 0.0000 9999 890 0 0 0
2019/09/13 16:16:00 BASE 9.03 271 12.81 264 -13.5 99 -13.6 222 0 979.2 NA 0.0000 9999 890 0 0 0
2019/09/13 16:17:00 BASE 8.64 268 12.81 264 -13.5 99 -13.6 219 0 979.2 NA 0.0000 9999 850 0 0 0
2019/09/13 16:18:00 BASE 8.23 264 12.81 264 -13.5 99 -13.6 211 0 979.3 NA 0.0000 9999 890 0 0 0
2019/09/13 16:19:00 BASE 9.30 263 12.81 264 -13.5 99 -13.6 204 0 979.3 NA 0.0000 9999 850 0 0 0
2019/09/13 16:20:00 BASE 9.48 266 12.81 264 -13.5 99 -13.6 203 0 979.3 NA 0.0000 9999 820 0 0 0
2019/09/13 16:21:00 BASE 8.28 270 12.24 269 -13.5 99 -13.6 204 0 979.3 NA 0.0000 9999 850 0 0 0
2019/09/13 16:22:00 BASE 8.32 272 12.09 260 -13.5 99 -13.6 207 0 979.3 NA 0.0000 9999 890 0 0 0
2019/09/13 16:23:00 BASE 9.47 268 12.09 260 -13.5 99 -13.6 209 0 979.3 NA 0.0000 9999 890 0 0 0
2019/09/13 16:24:00 BASE 8.91 269 12.04 262 -13.5 99 -13.6 210 0 979.3 NA 0.0000 9999 920 0 0 0
2019/09/13 16:25:00 BASE 8.96 275 12.04 262 -13.5 99 -13.6 210 0 979.3 NA 0.0000 9999 920 0 0 0
2019/09/13 16:26:00 BASE 11.12 275 13.02 266 -13.5 99 -13.7 209 0 979.3 NA 0.0000 9999 920 0 0 0
2019/09/13 16:27:00 BASE 11.31 272 13.63 271 -13.6 99 -13.8 208 0 979.3 NA 0.0000 9999 890 0 0 0
2019/09/13 16:28:00 BASE 9.52 274 13.63 271 -13.6 98 -13.8 206 0 979.3 NA 0.0000 9999 920 0 0 0
2019/09/13 16:29:00 BASE 9.08 277 13.63 271 -13.6 98 -13.9 204 0 979.3 NA 0.0000 9999 890 0 0 0
2019/09/13 16:30:00 BASE 10.03 274 13.63 271 -13.7 98 -13.9 200 0 979.4 NA 0.0000 9999 850 0 0 0
2019/09/13 16:31:00 BASE 10.89 266 13.63 271 -13.7 98 -13.9 196 0 979.4 NA 0.0000 9999 850 0 0 0
2019/09/13 16:32:00 BASE 11.15 264 13.63 271 -13.7 98 -14.0 193 0 979.4 NA 0.0000 9999 920 0 0 0
2019/09/13 16:33:00 BASE 9.96 266 13.63 271 -13.8 98 -14.0 192 0 979.5 NA 0.0000 9999 950 0 0 0
2019/09/13 16:34:00 BASE 8.87 268 13.63 271 -13.8 98 -14.0 194 0 979.4 NA 0.0000 9999 950 0 0 0
2019/09/13 16:35:00 BASE 9.69 271 13.63 271 -13.8 98 -14.1 199 0 979.4 NA 0.0000 9999 890 0 0 0
2019/09/13 16:36:00 BASE 10.55 271 13.63 271 -13.8 98 -14.1 206 0 979.3 NA 0.0000 9999 950 0 0 0
2019/09/13 16:37:00 BASE 9.54 270 12.96 267 -13.9 98 -14.1 211 0 979.3 NA 0.0000 9999 1020 0 0 0
2019/09/13 16:38:00 BASE 9.00 270 12.96 267 -13.8 98 -14.1 213 0 979.3 NA 0.0000 9999 1020 0 0 0
2019/09/13 16:39:00 BASE 9.05 266 12.96 267 -13.9 98 -14.1 212 0 979.3 NA 0.0000 9999 1050 17680 20570 0
2019/09/13 16:40:00 BASE 8.97 266 12.96 267 -13.9 98 -14.1 216 0 979.3 NA 0.0000 9999 1080 0 0 0
2019/09/13 16:41:00 BASE 8.75 269 12.91 261 -13.9 98 -14.1 223 0 979.4 NA 0.0000 9999 1080 0 0 0
2019/09/13 16:42:00 BASE 8.79 268 12.91 261 -13.8 98 -14.1 227 0 979.4 NA 0.0000 9999 1080 0 0 0
2019/09/13 16:43:00 BASE 9.69 267 12.24 256 -13.8 98 -14.1 225 0 979.4 NA 0.0000 9999 1120 0 0 0
2019/09/13 16:44:00 BASE 9.80 270 13.12 272 -13.8 98 -14.1 219 0 979.5 NA 0.0000 9999 1120 23200 0 0
2019/09/13 16:45:00 BASE 9.73 270 13.12 272 -13.9 98 -14.2 211 0 979.5 NA 0.0000 9999 1080 0 0 0
2019/09/13 16:46:00 BASE 8.96 263 13.12 272 -13.9 98 -14.2 207 0 979.5 NA 0.0000 9999 1120 0 0 0
2019/09/13 16:47:00 BASE 8.96 261 13.12 272 -13.9 98 -14.2 206 0 979.6 NA 0.0000 9999 1120 0 0 0
2019/09/13 16:48:00 BASE 9.15 265 13.12 272 -13.9 98 -14.2 207 0 979.6 NA 0.0000 9999 1120 0 0 0
2019/09/13 16:49:00 BASE 8.69 268 13.12 272 -13.9 97 -14.3 204 0 979.6 NA 0.0000 9999 1050 0 0 0
2019/09/13 16:50:00 BASE 9.92 269 13.12 272 -13.9 97 -14.2 203 0 979.6 NA 0.0000 9999 950 0 0 0
2019/09/13 16:51:00 BASE 10.68 272 13.12 272 -13.9 97 -14.3 206 0 979.6 NA 0.0000 9999 1080 0 0 0
2019/09/13 16:52:00 BASE 9.92 273 13.12 272 -13.9 97 -14.3 211 0 979.6 NA 0.0000 9999 1020 0 0 0
2019/09/13 16:53:00 BASE 9.76 274 13.12 272 -13.9 97 -14.3 215 0 979.6 NA 0.0000 9999 950 0 0 0
2019/09/13 16:54:00 BASE 9.35 273 12.91 281 -13.9 97 -14.3 215 0 979.6 NA 0.0000 9999 1080 21490 0 0
2019/09/13 16:55:00 BASE 9.34 271 12.91 281 -13.9 97 -14.3 215 0 979.6 NA 0.0000 9999 980 0 0 0
2019/09/13 16:56:00 BASE 9.60 268 12.91 281 -13.9 97 -14.3 220 0 979.7 NA 0.0000 9999 950 0 0 0
2019/09/13 16:57:00 BASE 8.85 270 12.91 281 -13.9 97 -14.3 224 0 979.7 NA 0.0000 9999 1050 0 0 0
2019/09/13 16:58:00 BASE 8.42 274 12.91 281 -13.9 97 -14.3 224 0 979.8 NA 0.0000 9999 1080 0 0 0
2019/09/13 16:59:00 BASE 7.80 274 12.91 281 -13.9 97 -14.3 221 0 979.7 NA 0.0000 9999 1080 0 0 0
2019/09/13 17:00:00 BASE 7.83 270 12.91 281 -13.9 97 -14.3 216 0 979.7 NA 0.0000 9999 850 0 0 0
2019/09/13 17:01:00 BASE 8.85 265 12.91 281 -13.9 97 -14.3 210 0 979.7 NA 0.0000 9999 890 0 0 0
2019/09/13 17:02:00 BASE 8.82 267 12.91 281 -13.9 97 -14.3 207 0 979.8 NA 0.0000 9999 1050 0 0 0
2019/09/13 17:03:00 BASE 7.63 272 11.99 268 -13.9 97 -14.3 206 0 979.8 NA 0.0000 9999 890 0 0 0
2019/09/13 17:04:00 BASE 6.81 270 11.99 268 -13.9 97 -14.3 205 0 979.8 NA 0.0000 9999 820 0 0 0
2019/09/13 17:05:00 BASE 7.13 262 11.88 264 -13.9 97 -14.3 205 0 979.8 NA 0.0000 9999 790 20830 0 0
2019/09/13 17:06:00 BASE 9.20 260 11.94 256 -13.9 97 -14.3 206 0 979.9 NA 0.0000 9999 950 0 0 0
2019/09/13 17:07:00 BASE 10.43 259 11.94 256 -13.9 97 -14.3 209 0 979.9 NA 0.0000 9999 1050 0 0 0
2019/09/13 17:08:00 BASE 8.83 263 11.94 256 -13.9 97 -14.3 209 0 979.9 NA 0.0000 9999 1080 0 0 0
2019/09/13 17:09:00 BASE 7.68 265 11.94 256 -13.9 97 -14.3 204 0 980.0 NA 0.0000 9999 980 0 0 0
2019/09/13 17:10:00 BASE 7.49 270 11.94 256 -14.0 97 -14.4 195 0 980.0 NA 0.0000 9999 850 0 0 0
2019/09/13 17:11:00 BASE 6.47 280 11.94 256 -14.0 97 -14.4 188 0 980.1 NA 0.0000 9999 360 0 0 0
2019/09/13 17:12:00 BASE 6.47 284 11.94 256 -14.0 97 -14.4 185 0 980.0 NA 0.0000 9999 330 0 0 0
2019/09/13 17:13:00 BASE 7.04 280 11.94 256 -14.0 97 -14.3 182 0 980.0 NA 0.0000 9999 330 0 0 0
2019/09/13 17:14:00 BASE 7.03 272 11.94 256 -14.0 97 -14.3 180 0 980.1 NA 0.0000 9999 390 0 0 0
2019/09/13 17:15:00 BASE 6.87 269 11.94 256 -14.0 97 -14.3 179 0 980.1 NA 0.0000 9999 620 0 0 0
2019/09/13 17:16:00 BASE 7.33 272 11.73 258 -13.9 98 -14.2 179 0 980.1 NA 0.0000 9999 330 0 0 0
2019/09/13 17:17:00 BASE 8.11 277 9.62 262 -13.9 98 -14.2 179 0 980.1 NA 0.0000 9999 430 0 0 0
2019/09/13 17:18:00 BASE 8.60 283 10.65 287 -13.9 98 -14.2 179 0 980.1 NA 0.0000 9999 430 0 0 0
2019/09/13 17:19:00 BASE 8.87 283 10.65 287 -14.0 98 -14.2 179 0 980.1 NA 0.0000 9999 360 0 0 0
2019/09/13 17:20:00 BASE 8.19 280 10.65 287 -14.0 98 -14.2 177 0 980.1 NA 0.0000 9999 330 0 0 0
2019/09/13 17:21:00 BASE 7.31 279 10.65 287 -14.0 98 -14.2 174 0 980.1 NA 0.0000 9999 360 0 0 0
2019/09/13 17:22:00 BASE 6.25 275 10.65 287 -14.0 98 -14.2 172 0 980.1 NA 0.0000 9999 490 0 0 0
2019/09/13 17:23:00 BASE 6.27 273 10.65 287 -14.0 98 -14.2 172 0 980.2 NA 0.0000 9999 300 0 0 0
2019/09/13 17:24:00 BASE 7.53 277 10.65 287 -14.0 98 -14.2 172 0 980.1 NA 0.0000 9999 230 0 0 0
2019/09/13 17:25:00 BASE 8.37 285 10.65 287 -14.0 98 -14.2 173 0 980.1 NA 0.0000 9999 230 0 0 0
2019/09/13 17:26:00 BASE 8.51 291 10.65 287 -14.0 98 -14.2 175 0 980.2 NA 0.0000 9999 260 0 0 0
2019/09/13 17:27:00 BASE 8.81 290 10.65 287 -13.9 98 -14.2 177 0 980.1 NA 0.0000 9999 300 0 0 0
2019/09/13 17:28:00 BASE 8.78 281 10.55 287 -13.9 98 -14.2 180 0 980.1 NA 0.0000 9999 390 0 0 0
2019/09/13 17:29:00 BASE 7.46 275 10.55 287 -13.9 98 -14.2 179 0 980.2 NA 0.0000 9999 390 0 0 0
2019/09/13 17:30:00 BASE 7.14 282 10.55 287 -13.9 98 -14.2 175 0 980.2 NA 0.0000 9999 430 0 0 0
2019/09/13 17:31:01 BASE 6.80 288 10.55 287 -13.9 98 -14.2 171 0 980.2 NA 0.0000 9999 360 0 0 0
2019/09/13 17:32:01 BASE 6.06 288 10.55 287 -13.9 98 -14.2 168 0 980.2 NA 0.0000 9999 330 0 0 0
2019/09/13 17:33:01 BASE 6.53 288 10.55 287 -13.9 98 -14.2 167 0 980.2 NA 0.0000 9999 330 0 0 0
2019/09/13 17:34:01 BASE 7.18 288 10.24 291 -13.9 98 -14.1 169 0 980.2 NA 0.0000 9999 390 0 0 0
2019/09/13 17:35:01 BASE 7.26 288 10.08 287 -13.9 98 -14.1 170 0 980.2 NA 0.0000 9999 0 0 0 1210
2019/09/13 17:36:01 BASE 6.95 279 10.08 287 -13.9 99 -14.1 170 0 980.3 NA 0.0000 9999 390 0 0 0
2019/09/13 17:37:01 BASE 6.35 275 9.67 286 -13.9 99 -14.1 173 0 980.2 NA 0.0000 9999 260 0 0 0
2019/09/13 17:38:01 BASE 6.88 287 8.80 289 -13.9 99 -14.0 176 0 980.3 NA 0.0000 9999 330 0 0 0
2019/09/13 17:39:01 BASE 7.69 292 8.80 289 -13.9 99 -14.0 176 0 980.3 NA 0.0000 9999 360 0 0 0
2019/09/13 17:40:01 BASE 7.50 283 8.80 289 -13.9 99 -14.0 173 0 980.3 NA 0.0000 9999 260 0 0 0
2019/09/13 17:41:01 BASE 7.51 271 8.80 289 -13.9 99 -14.0 169 0 980.3 NA 0.0000 9999 0 0 0 1210
2019/09/13 17:42:01 BASE 6.67 267 8.80 289 -13.9 99 -14.0 167 0 980.3 NA 0.0000 9999 260 0 0 0
2019/09/13 17:43:01 BASE 6.91 270 9.11 273 -13.9 99 -14.0 167 0 980.3 NA 0.0000 9999 0 0 0 1210
2019/09/13 17:44:01 BASE 7.83 274 9.11 273 -13.9 99 -14.0 168 0 980.3 NA 0.0000 9999 0 0 0 1210
2019/09/13 17:45:01 BASE 7.19 275 9.11 273 -13.9 99 -14.0 172 0 980.3 NA 0.0000 9999 300 0 0 0
2019/09/13 17:46:01 BASE 7.05 275 9.11 273 -13.9 99 -14.0 176 0 980.3 NA 0.0000 9999 390 0 0 0
2019/09/13 17:47:01 BASE 7.36 273 9.11 273 -13.9 99 -14.0 177 0 980.3 NA 0.0000 9999 360 0 0 0
2019/09/13 17:48:01 BASE 6.73 271 9.11 273 -13.9 99 -14.0 172 0 980.4 NA 0.0000 9999 360 0 0 0
2019/09/13 17:49:01 BASE 6.91 269 10.44 273 -13.9 99 -14.0 166 0 980.4 NA 0.0000 9999 360 0 0 0
2019/09/13 17:50:01 BASE 7.65 270 10.44 273 -13.8 99 -14.0 162 0 980.4 NA 0.0000 9999 300 0 0 0
2019/09/13 17:51:01 BASE 7.37 274 10.44 273 -13.9 99 -14.0 158 0 980.4 NA 0.0000 9999 300 0 0 0
2019/09/13 17:52:01 BASE 8.23 283 11.68 283 -13.9 99 -14.0 157 0 980.4 NA 0.0000 9999 360 0 0 0
2019/09/13 17:53:01 BASE 9.40 286 11.68 283 -13.9 99 -14.0 160 0 980.4 NA 0.0000 9999 0 0 0 1210
2019/09/13 17:54:01 BASE 9.39 281 11.68 283 -13.9 99 -14.0 165 0 980.4 NA 0.0000 9999 0 0 0 1250
2019/09/13 17:55:01 BASE 8.63 279 11.68 283 -13.9 99 -14.0 167 0 980.4 NA 0.0000 9999 0 0 0 1250
2019/09/13 17:56:01 BASE 8.80 277 11.68 283 -13.9 99 -14.0 164 0 980.4 NA 0.0000 9999 260 0 0 0
2019/09/13 17:57:01 BASE 9.39 277 11.68 283 -13.9 99 -14.0 159 0 980.4 NA 0.0000 9999 0 0 0 1210
2019/09/13 17:58:01 BASE 9.05 275 11.68 283 -13.9 99 -14.0 156 0 980.5 NA 0.0000 9999 0 0 0 1180
2019/09/13 17:59:01 BASE 7.59 272 11.68 283 -13.9 99 -14.0 155 0 980.6 NA 0.0000 9999 330 0 0 0
2019/09/13 18:00:01 BASE 5.92 267 11.68 283 -13.8 99 -13.9 154 0 980.6 NA 0.0000 9999 390 0 0 0
2019/09/13 18:01:01 BASE 6.98 264 11.68 283 -13.8 99 -13.9 155 0 980.5 NA 0.0000 9999 460 0 0 0
2019/09/13 18:02:01 BASE 8.05 265 10.91 272 -13.8 100 -13.8 157 0 980.6 NA 0.0000 9999 850 0 0 0
2019/09/13 18:03:01 BASE 7.47 266 10.91 272 -13.8 100 -13.8 161 0 980.6 NA 0.0000 9999 360 980 0 0
2019/09/13 18:04:01 BASE 7.30 266 10.91 272 -13.8 100 -13.8 161 0 980.6 NA 0.0000 9999 360 0 0 0
2019/09/13 18:05:01 BASE 7.19 268 10.91 272 -13.8 100 -13.8 159 0 980.5 NA 0.0000 9999 460 950 0 0
2019/09/13 18:06:01 BASE 7.98 271 10.91 272 -13.7 100 -13.7 158 0 980.5 NA 0.0000 9999 950 0 0 0
2019/09/13 18:07:01 BASE 9.66 262 12.04 254 -13.7 100 -13.7 162 0 980.5 NA 0.0000 9999 330 920 0 0
2019/09/13 18:08:01 BASE 10.33 254 12.04 254 -13.7 100 -13.7 165 0 980.6 NA 0.0000 9999 720 0 0 0
2019/09/13 18:09:01 BASE 9.99 254 12.04 247 -13.7 100 -13.7 163 0 980.6 NA 0.0000 9999 230 0 0 0
2019/09/13 18:10:01 BASE 9.19 256 12.04 247 -13.8 100 -13.8 161 0 980.6 NA 0.0000 9999 330 0 0 0
2019/09/13 18:11:01 BASE 8.72 257 12.04 247 -13.8 100 -13.8 163 0 980.6 NA 0.0000 9999 920 0 0 0
2019/09/13 18:12:01 BASE 9.17 256 12.04 247 -13.8 100 -13.8 165 0 980.6 NA 0.0000 9999 330 980 0 0
2019/09/13 18:13:01 BASE 9.03 253 12.04 247 -13.8 100 -13.8 163 0 980.7 NA 0.0000 9999 260 1080 0 0
2019/09/13 18:14:01 BASE 8.06 259 12.04 247 -13.8 100 -13.8 160 0 980.7 NA 0.0000 9999 300 1080 0 0
2019/09/13 18:15:01 BASE 8.37 260 12.04 247 -13.8 100 -13.8 159 0 980.7 NA 0.0000 9999 980 0 0 0
2019/09/13 18:16:01 BASE 10.19 255 12.04 261 -13.8 100 -13.8 157 0 980.6 NA 0.0000 9999 1120 22110 0 0
2019/09/13 18:17:01 BASE 10.35 252 12.04 261 -13.8 100 -13.8 153 0 980.6 NA 0.0000 9999 1150 0 0 0
2019/09/13 18:18:01 BASE 9.12 247 12.04 261 -13.8 100 -13.8 150 0 980.7 NA 0.0000 9999 1180 0 0 0
2019/09/13 18:19:01 BASE 9.15 247 12.04 261 -13.7 100 -13.7 150 0 980.7 NA 0.0000 9999 1180 0 0 0
2019/09/13 18:20:01 BASE 10.63 248 12.71 248 -13.7 100 -13.7 151 0 980.6 NA 0.0000 9999 1210 0 0 0
2019/09/13 18:21:01 BASE 11.32 247 12.71 248 -13.6 100 -13.6 153 0 980.7 NA 0.0000 9999 1150 0 0 0
2019/09/13 18:22:01 BASE 11.47 247 12.96 249 -13.6 100 -13.6 151 0 980.7 NA 0.0000 9999 1210 0 0 0
2019/09/13 18:23:01 BASE 11.40 248 12.96 249 -13.6 100 -13.6 148 0 980.7 NA 0.0000 9999 1180 23520 0 0
2019/09/13 18:24:01 BASE 11.10 248 12.96 249 -13.7 100 -13.7 147 0 980.7 NA 0.0000 9999 1120 0 0 0
2019/09/13 18:25:01 BASE 11.29 248 12.96 249 -13.7 100 -13.7 148 0 980.7 NA 0.0000 9999 1050 0 0 0
2019/09/13 18:26:01 BASE 10.60 250 12.96 249 -13.7 100 -13.7 151 0 980.7 NA 0.0000 9999 1120 0 0 0
2019/09/13 18:27:01 BASE 9.39 251 12.96 249 -13.7 100 -13.7 154 0 980.7 NA 0.0000 9999 1150 0 0 0
2019/09/13 18:28:01 BASE 8.35 245 12.96 249 -13.6 100 -13.6 157 0 980.7 NA 0.0000 9999 1120 0 0 0
2019/09/13 18:29:01 BASE 8.14 240 12.96 249 -13.6 100 -13.6 157 0 980.8 NA 0.0000 9999 1150 0 0 0
2019/09/13 18:30:01 BASE 7.92 243 12.96 249 -13.5 100 -13.5 153 0 980.8 NA 0.0000 9999 1120 0 0 0
2019/09/13 18:31:01 BASE 7.99 246 12.96 249 -13.5 100 -13.5 148 0 980.8 NA 0.0000 9999 1080 0 0 0
2019/09/13 18:32:01 BASE 7.76 238 12.45 251 -13.4 100 -13.4 146 0 980.8 NA 0.0000 9999 1120 0 0 0
2019/09/13 18:33:01 BASE 6.98 229 12.45 251 -13.4 100 -13.4 146 0 980.8 NA 0.0000 9999 1120 0 0 0
2019/09/13 18:34:01 BASE 8.57 235 12.45 251 -13.4 100 -13.4 145 0 980.8 NA 0.0000 9999 1180 0 0 0
2019/09/13 18:35:01 BASE 10.12 242 11.42 245 -13.4 100 -13.4 143 0 980.9 NA 0.0000 9999 1210 0 0 0
2019/09/13 18:36:01 BASE 10.29 243 11.99 248 -13.4 100 -13.4 143 0 980.9 NA 0.0000 9999 1080 24080 0 0
2019/09/13 18:37:01 BASE 10.80 246 12.91 247 -13.5 100 -13.5 141 0 980.9 NA 0.0000 9999 1020 0 0 0
2019/09/13 18:38:01 BASE 11.44 250 12.91 247 -13.5 100 -13.5 140 0 980.9 NA 0.0000 9999 1080 0 0 0
2019/09/13 18:39:01 BASE 11.84 254 13.07 257 -13.5 100 -13.5 141 0 980.9 NA 0.0000 9999 1180 0 0 0
2019/09/13 18:40:01 BASE 11.67 254 13.07 257 -13.5 100 -13.5 143 0 981.0 NA 0.0000 9999 1210 0 0 0
2019/09/13 18:41:01 BASE 11.29 249 13.07 257 -13.6 100 -13.6 144 0 981.0 NA 0.0000 9999 1180 0 0 0
2019/09/13 18:42:01 BASE 11.05 247 13.07 257 -13.6 100 -13.6 144 0 981.0 NA 0.0000 9999 1150 0 0 0
2019/09/13 18:43:00 BASE 10.42 250 13.07 257 -13.6 100 -13.6 142 0 981.0 NA 0.0000 9999 1120 0 0 0
2019/09/13 18:44:01 BASE 9.65 254 13.07 257 -13.6 100 -13.6 138 0 981.1 NA 0.0000 9999 1120 0 0 0
2019/09/13 18:45:01 BASE 9.25 255 13.07 257 -13.6 100 -13.6 135 0 981.2 NA 0.0000 9999 1020 0 0 0
2019/09/13 18:46:01 BASE 9.19 254 13.07 257 -13.6 100 -13.6 131 0 981.2 NA 0.0000 9999 1080 0 0 0
2019/09/13 18:47:01 BASE 9.46 255 13.07 257 -13.6 100 -13.6 129 0 981.2 NA 0.0000 9999 1080 0 0 0
2019/09/13 18:48:01 BASE 9.43 259 13.07 257 -13.6 100 -13.6 131 0 981.2 NA 0.0000 9999 1120 0 0 0
2019/09/13 18:49:01 BASE 9.03 263 12.35 254 -13.6 100 -13.6 131 0 981.2 NA 0.0000 9999 1120 0 0 0
2019/09/13 18:50:00 BASE 8.63 268 11.57 245 -13.5 100 -13.5 131 0 981.2 NA 0.0000 9999 1020 0 0 0
2019/09/13 18:51:00 BASE 8.27 272 11.57 245 -13.5 100 -13.5 133 0 981.2 NA 0.0000 9999 920 0 0 0
2019/09/13 18:52:01 BASE 7.09 275 11.06 251 -13.5 100 -13.5 134 0 981.2 NA 0.0000 9999 430 0 0 0
2019/09/13 18:53:00 BASE 6.59 275 10.44 258 -13.5 100 -13.5 131 0 981.2 NA 0.0000 9999 390 0 0 0
2019/09/13 18:54:00 BASE 7.25 272 10.44 258 -13.5 100 -13.5 127 0 981.2 NA 0.0000 9999 300 920 0 0
2019/09/13 18:55:00 BASE 7.43 274 10.44 258 -13.5 100 -13.5 126 0 981.3 NA 0.0000 9999 360 0 0 0
2019/09/13 18:56:01 BASE 7.00 277 10.44 258 -13.5 100 -13.5 124 0 981.4 NA 0.0000 9999 360 0 0 0
2019/09/13 18:57:00 BASE 7.20 283 10.44 258 -13.5 100 -13.5 121 0 981.3 NA 0.0000 9999 300 0 0 0
2019/09/13 18:58:01 BASE 7.90 287 10.08 278 -13.5 100 -13.5 119 0 981.3 NA 0.0000 9999 260 0 0 0
2019/09/13 18:59:00 BASE 7.57 283 9.77 269 -13.5 100 -13.5 120 0 981.3 NA 0.0000 9999 21820 0 0 0
2019/09/13 19:00:00 BASE 6.77 276 9.41 293 -13.4 100 -13.4 123 0 981.3 NA 0.0000 9999 490 0 0 0
2019/09/13 19:01:00 BASE 7.34 266 9.41 293 -13.4 100 -13.4 124 0 981.3 NA 0.0000 9999 790 0 0 0
2019/09/13 19:02:01 BASE 7.46 264 9.41 293 -13.4 100 -13.4 121 0 981.3 NA 0.0000 9999 890 0 0 0
2019/09/13 19:03:01 BASE 6.47 268 9.41 293 -13.4 100 -13.4 120 0 981.3 NA 0.0000 9999 850 0 0 0
2019/09/13 19:04:01 BASE 6.35 271 9.41 293 -13.4 100 -13.4 120 0 981.4 NA 0.0000 9999 890 0 0 0
2019/09/13 19:05:00 BASE 6.88 274 9.93 268 -13.4 100 -13.4 124 0 981.4 NA 0.0000 9999 390 0 0 0
2019/09/13 19:06:00 BASE 7.21 275 9.93 268 -13.4 100 -13.4 127 0 981.4 NA 0.0000 9999 890 0 0 0
2019/09/13 19:07:00 BASE 6.35 267 9.93 268 -13.4 100 -13.4 122 0 981.5 NA 0.0000 9999 950 0 0 0
2019/09/13 19:08:00 BASE 7.17 260 9.93 268 -13.4 100 -13.4 115 0 981.4 NA 0.0000 9999 980 23360 0 0
2019/09/13 19:09:00 BASE 8.66 266 10.44 269 -13.4 100 -13.4 109 0 981.5 NA 0.0000 9999 980 0 0 0
2019/09/13 19:10:01 BASE 8.47 267 10.44 263 -13.4 100 -13.4 107 0 981.5 NA 0.0000 9999 1050 0 0 0
2019/09/13 19:11:01 BASE 8.27 265 10.44 263 -13.4 100 -13.4 106 0 981.5 NA 0.0000 9999 360 0 0 0
2019/09/13 19:12:01 BASE 8.87 266 10.91 263 -13.4 100 -13.4 107 0 981.5 NA 0.0000 9999 790 0 0 0
2019/09/13 19:13:01 BASE 9.48 267 10.96 267 -13.5 100 -13.5 109 0 981.6 NA 0.0000 9999 720 0 0 0
2019/09/13 19:14:01 BASE 8.65 268 10.96 267 -13.5 99 -13.6 111 0 981.6 NA 0.0000 9999 820 0 0 0
2019/09/13 19:15:01 BASE 7.90 272 10.96 267 -13.5 99 -13.6 110 0 981.6 NA 0.0000 9999 790 0 0 0
2019/09/13 19:16:01 BASE 7.76 275 10.96 267 -13.5 99 -13.6 107 0 981.7 NA 0.0000 9000 820 0 0 0
2019/09/13 19:17:01 BASE 7.62 277 10.96 267 -13.6 99 -13.6 105 0 981.7 NA 0.0000 9999 890 0 0 0
2019/09/13 19:18:01 BASE 7.62 277 10.96 267 -13.5 99 -13.6 104 0 981.7 NA 0.0000 9999 850 0 0 0
2019/09/13 19:19:01 BASE 8.53 280 10.96 267 -13.5 99 -13.6 101 0 981.7 NA 0.0000 9999 890 0 0 0
2019/09/13 19:20:01 BASE 9.11 284 10.96 267 -13.5 99 -13.6 98 0 981.7 NA 0.0000 9999 260 0 0 0
2019/09/13 19:21:01 BASE 8.85 287 10.96 267 -13.5 99 -13.6 96 0 981.7 NA 0.0000 9999 260 0 0 0
2019/09/13 19:22:01 BASE 9.38 289 10.96 267 -13.6 99 -13.6 95 0 981.7 NA 0.0000 9999 260 0 0 0
2019/09/13 19:23:01 BASE 9.40 293 10.91 280 -13.6 99 -13.7 98 0 981.7 NA 0.0000 9999 300 0 0 0
2019/09/13 19:24:01 BASE 9.66 296 10.91 280 -13.6 99 -13.7 101 0 981.7 NA 0.0000 9999 330 21390 0 0
2019/09/13 19:25:01 BASE 9.63 291 10.91 279 -13.6 99 -13.7 100 0 981.8 NA 0.0000 9999 330 0 0 0
2019/09/13 19:26:01 BASE 8.72 286 10.91 279 -13.6 99 -13.7 97 0 981.8 NA 0.0000 9999 330 0 0 0
2019/09/13 19:27:01 BASE 8.67 279 10.91 279 -13.6 100 -13.7 96 0 981.8 NA 0.0000 9999 330 0 0 0
2019/09/13 19:28:01 BASE 8.83 279 10.91 279 -13.6 100 -13.6 95 0 981.8 NA 0.0000 9999 300 0 0 0
2019/09/13 19:29:01 BASE 8.86 285 10.91 279 -13.6 100 -13.6 92 0 981.8 NA 0.0000 9999 260 0 0 0
2019/09/13 19:30:01 BASE 9.22 286 10.91 279 -13.6 100 -13.6 88 0 981.8 NA 0.0000 9999 200 0 0 0
2019/09/13 19:31:01 BASE 9.81 289 10.91 289 -13.6 100 -13.6 86 0 981.8 NA 0.0000 9999 260 0 0 0
2019/09/13 19:32:01 BASE 10.00 290 10.91 286 -13.6 100 -13.6 86 0 981.9 NA 0.0000 9999 300 0 0 0
2019/09/13 19:33:01 BASE 9.36 281 10.91 286 -13.6 100 -13.6 86 0 981.9 NA 0.0000 9999 690 21520 0 0
2019/09/13 19:34:01 BASE 8.15 273 10.91 286 -13.7 100 -13.7 85 0 982.0 NA 0.0000 9999 390 0 0 0
2019/09/13 19:35:01 BASE 8.19 269 10.91 286 -13.7 100 -13.7 84 0 982.0 NA 0.0000 9999 690 0 0 0
2019/09/13 19:36:01 BASE 8.76 270 10.91 286 -13.7 100 -13.7 84 0 982.0 NA 0.0000 9999 720 24180 0 0
2019/09/13 19:37:01 BASE 8.26 274 10.91 286 -13.6 100 -13.6 83 0 982.0 NA 0.0000 9999 750 0 0 0
2019/09/13 19:38:01 BASE 8.72 278 11.21 279 -13.6 100 -13.6 82 0 982.0 NA 0.0000 9999 790 0 0 0
2019/09/13 19:39:01 BASE 9.69 284 11.21 279 -13.6 100 -13.6 82 0 982.1 NA 0.0000 9999 750 0 0 0
2019/09/13 19:40:01 BASE 9.67 283 11.32 278 -13.6 100 -13.6 81 0 982.1 NA 0.0000 9999 890 0 0 0
2019/09/13 19:41:01 BASE 8.97 282 11.32 278 -13.6 100 -13.6 79 0 982.1 NA 0.0000 9999 850 0 0 0
2019/09/13 19:42:01 BASE 7.71 280 11.32 278 -13.6 100 -13.6 77 0 982.2 NA 0.0000 9999 790 0 0 0
2019/09/13 19:43:01 BASE 6.88 278 11.32 278 -13.6 100 -13.6 77 0 982.2 NA 0.0000 9999 750 0 0 0
2019/09/13 19:44:01 BASE 7.55 276 11.32 278 -13.6 100 -13.6 77 0 982.2 NA 0.0000 9999 720 0 0 0
2019/09/13 19:45:01 BASE 8.68 275 11.47 281 -13.5 100 -13.5 78 0 982.1 NA 0.0000 9999 720 0 0 0
2019/09/13 19:46:01 BASE 8.40 276 11.47 281 -13.5 100 -13.5 78 0 982.2 NA 0.0000 9999 590 0 0 0
2019/09/13 19:47:01 BASE 7.42 275 11.47 281 -13.5 100 -13.5 76 0 982.2 NA 0.0000 9999 590 0 0 0
2019/09/13 19:48:01 BASE 7.18 272 11.47 281 -13.6 100 -13.6 75 0 982.2 NA 0.0000 9999 490 0 0 0
2019/09/13 19:49:01 BASE 8.05 277 11.47 281 -13.6 100 -13.6 74 0 982.3 NA 0.0000 9999 790 0 0 0
2019/09/13 19:50:01 BASE 9.34 284 11.47 281 -13.6 100 -13.6 73 0 982.3 NA 0.0000 9999 890 0 0 0
2019/09/13 19:51:01 BASE 8.91 287 11.47 281 -13.6 100 -13.6 71 0 982.3 NA 0.0000 9999 890 0 0 0
2019/09/13 19:52:01 BASE 8.10 287 11.47 281 -13.6 100 -13.6 69 0 982.3 NA 0.0000 9999 790 0 0 0
2019/09/13 19:53:01 BASE 8.68 286 11.47 281 -13.6 100 -13.6 68 0 982.3 NA 0.0000 9999 750 0 0 0
2019/09/13 19:54:01 BASE 8.86 284 11.47 281 -13.6 100 -13.6 69 0 982.3 NA 0.0000 9999 750 0 0 0
2019/09/13 19:55:01 BASE 8.38 280 10.49 287 -13.6 100 -13.6 70 0 982.3 NA 0.0000 9999 820 0 0 0
2019/09/13 19:56:01 BASE 8.12 280 10.49 287 -13.6 100 -13.6 70 0 982.3 NA 0.0000 9999 820 0 0 0
2019/09/13 19:57:01 BASE 8.95 277 11.37 267 -13.6 100 -13.6 68 0 982.3 NA 0.0000 9999 890 0 0 0
2019/09/13 19:58:01 BASE 8.54 273 11.37 267 -13.6 100 -13.6 68 0 982.3 NA 0.0000 9999 920 0 0 0
2019/09/13 19:59:01 BASE 7.77 270 11.37 267 -13.6 100 -13.6 69 0 982.3 NA 0.0000 9999 790 0 0 0
2019/09/13 20:00:01 BASE 7.97 270 11.37 267 -13.6 100 -13.6 69 0 982.3 NA 0.0000 9999 790 0 0 0
2019/09/13 20:01:01 BASE 7.13 272 11.37 267 -13.6 100 -13.6 68 0 982.3 NA 0.0000 9999 850 0 0 0
2019/09/13 20:02:01 BASE 7.07 273 11.37 267 -13.6 100 -13.6 68 0 982.4 NA 0.0000 9999 750 0 0 0
2019/09/13 20:03:01 BASE 7.34 273 11.37 267 -13.6 100 -13.6 68 0 982.4 NA 0.0000 9999 430 0 0 0
2019/09/13 20:04:01 BASE 6.90 271 11.37 267 -13.6 100 -13.6 68 0 982.4 NA 0.0000 9999 750 0 0 0
2019/09/13 20:05:01 BASE 6.43 277 11.37 267 -13.6 100 -13.6 66 0 982.4 NA 0.0000 9999 720 0 0 0
2019/09/13 20:06:01 BASE 6.93 282 11.37 267 -13.6 100 -13.6 63 0 982.4 NA 0.0000 9999 690 0 0 0
2019/09/13 20:07:01 BASE 7.93 279 10.24 260 -13.6 100 -13.6 63 0 982.4 NA 0.0000 9999 430 0 0 0
2019/09/13 20:08:01 BASE 8.45 277 10.24 260 -13.6 100 -13.6 64 0 982.4 NA 0.0000 9999 330 0 0 0
2019/09/13 20:09:01 BASE 7.87 280 9.77 281 -13.6 100 -13.6 63 0 982.4 NA 0.0000 9999 0 0 0 1410
2019/09/13 20:10:01 BASE 6.78 280 9.77 281 -13.6 100 -13.6 60 0 982.5 NA 0.0000 9999 390 0 0 0
2019/09/13 20:11:01 BASE 6.80 280 9.77 281 -13.6 100 -13.6 58 0 982.5 NA 0.0000 9999 300 0 0 0
2019/09/13 20:12:01 BASE 6.81 281 9.77 281 -13.6 100 -13.6 58 0 982.6 NA 0.0000 9999 330 0 0 0
2019/09/13 20:13:01 BASE 7.37 277 10.44 277 -13.6 100 -13.6 58 0 982.5 NA 0.0000 9999 390 0 0 0
2019/09/13 20:14:01 BASE 7.45 272 10.44 277 -13.6 100 -13.6 58 0 982.6 NA 0.0000 9999 360 0 0 0
2019/09/13 20:15:01 BASE 8.03 265 10.91 256 -13.5 100 -13.5 57 0 982.6 NA 0.0000 9999 720 0 0 0
2019/09/13 20:16:01 BASE 9.72 257 11.11 254 -13.5 100 -13.5 56 0 982.6 NA 0.0000 9999 790 0 0 0
2019/09/13 20:17:01 BASE 9.22 255 11.11 254 -13.5 100 -13.5 56 0 982.6 NA 0.0000 9999 950 0 0 0
2019/09/13 20:18:01 BASE 9.47 252 11.16 250 -13.5 100 -13.5 56 0 982.6 NA 0.0000 9999 1020 0 0 0
2019/09/13 20:19:01 BASE 10.28 249 11.21 247 -13.6 100 -13.6 55 0 982.6 NA 0.0000 9999 1020 0 0 0
2019/09/13 20:20:01 BASE 10.01 255 11.21 261 -13.6 100 -13.6 55 0 982.6 NA 0.0000 9999 1080 0 0 0
2019/09/13 20:21:01 BASE 9.61 257 11.21 261 -13.6 100 -13.6 53 0 982.6 NA 0.0000 9999 1020 0 0 0
2019/09/13 20:22:01 BASE 9.18 252 11.21 261 -13.6 100 -13.6 53 0 982.6 NA 0.0000 9999 1050 0 0 0
2019/09/13 20:23:01 BASE 9.59 252 11.21 261 -13.5 100 -13.5 53 0 982.6 NA 0.0000 9999 980 0 0 0
2019/09/13 20:24:01 BASE 10.17 255 11.21 261 -13.5 100 -13.5 52 0 982.6 NA 0.0000 9999 1020 0 0 0
2019/09/13 20:25:00 BASE 10.45 256 11.21 261 -13.5 100 -13.5 51 0 982.6 NA 0.0000 9999 920 0 0 0
2019/09/13 20:26:01 BASE 10.50 255 12.09 255 -13.5 100 -13.5 49 0 982.6 NA 0.0000 9999 980 0 0 0
2019/09/13 20:27:00 BASE 10.62 257 12.09 255 -13.5 100 -13.5 48 0 982.6 NA 0.0000 9999 980 0 0 0
2019/09/13 20:28:01 BASE 10.30 260 12.09 255 -13.6 100 -13.6 48 0 982.6 NA 0.0000 9999 980 0 0 0
2019/09/13 20:29:01 BASE 9.37 260 12.09 255 -13.6 100 -13.6 49 0 982.6 NA 0.0000 9999 980 0 0 0
2019/09/13 20:30:01 BASE 9.18 255 12.09 255 -13.6 100 -13.6 49 0 982.7 NA 0.0000 9999 980 0 0 0
2019/09/13 20:31:01 BASE 9.97 252 12.09 255 -13.6 100 -13.6 49 0 982.6 NA 0.0000 9999 1050 0 0 0
2019/09/13 20:32:01 BASE 10.50 250 12.09 255 -13.6 100 -13.6 49 0 982.6 NA 0.0000 9999 1080 0 0 0
2019/09/13 20:33:01 BASE 10.58 247 12.09 255 -13.6 100 -13.6 48 0 982.6 NA 0.0000 9999 1080 0 0 0
2019/09/13 20:34:01 BASE 10.37 244 12.09 255 -13.6 100 -13.6 46 0 982.7 NA 0.0000 9999 1050 0 0 0
2019/09/13 20:35:00 BASE 9.67 245 12.09 255 -13.6 100 -13.6 45 0 982.7 NA 0.0000 9999 1050 0 0 0
2019/09/13 20:36:01 BASE 8.84 245 11.88 246 -13.7 100 -13.7 43 0 982.7 NA 0.0000 9999 1020 0 0 0
2019/09/13 20:37:00 BASE 8.08 242 11.88 246 -13.7 100 -13.7 42 0 982.7 NA 0.0000 9999 1020 0 0 0
2019/09/13 20:38:01 BASE 9.08 239 12.60 231 -13.7 100 -13.7 40 0 982.7 NA 0.0000 9999 1080 0 0 0
2019/09/13 20:39:00 BASE 10.16 233 12.60 231 -13.6 100 -13.6 39 0 982.8 NA 0.0000 9999 1080 0 0 0
2019/09/13 20:40:00 BASE 9.74 231 12.60 231 -13.6 100 -13.6 38 0 982.8 NA 0.0000 9999 980 0 0 0
2019/09/13 20:41:01 BASE 9.10 234 12.60 231 -13.6 100 -13.6 38 0 982.9 NA 0.0000 9999 850 0 0 0
2019/09/13 20:42:01 BASE 9.29 235 12.60 231 -13.6 100 -13.6 38 0 982.9 NA 0.0000 9999 820 0 0 0
2019/09/13 20:43:00 BASE 9.77 229 12.60 231 -13.6 100 -13.6 38 0 982.9 NA 0.0000 9999 820 0 0 0
2019/09/13 20:44:01 BASE 8.41 227 12.60 231 -13.6 100 -13.7 37 0 982.9 NA 0.0000 9999 850 0 0 0
2019/09/13 20:45:00 BASE 6.62 237 12.60 231 -13.7 100 -13.7 37 0 982.9 NA 0.0000 9999 490 0 0 0
2019/09/13 20:46:00 BASE 6.42 251 12.60 231 -13.7 99 -13.7 37 0 982.9 NA 0.0000 9999 920 0 0 0
2019/09/13 20:47:00 BASE 7.26 255 12.60 231 -13.7 99 -13.8 37 0 982.9 NA 0.0000 9999 850 0 0 0
2019/09/13 20:48:01 BASE 7.23 257 11.83 225 -13.7 99 -13.8 37 0 983.0 NA 0.0000 9999 820 0 0 0
2019/09/13 20:49:00 BASE 6.27 261 11.83 225 -13.7 99 -13.8 37 0 983.1 NA 0.0000 9999 950 0 0 0
2019/09/13 20:50:00 BASE 5.95 267 11.83 225 -13.7 99 -13.8 36 0 983.1 NA 0.0000 9999 980 0 0 0
2019/09/13 20:51:00 BASE 6.38 274 11.83 225 -13.6 99 -13.8 35 0 983.1 NA 0.0000 9999 920 0 0 0
2019/09/13 20:52:01 BASE 6.22 276 11.27 223 -13.7 99 -13.8 36 0 983.1 NA 0.0000 9999 950 0 0 0
2019/09/13 20:53:00 BASE 5.36 276 9.11 246 -13.7 99 -13.8 35 0 983.1 NA 0.0000 9999 980 0 0 0
2019/09/13 20:54:00 BASE 4.74 276 9.11 246 -13.7 99 -13.8 33 0 983.1 NA 0.0000 9999 980 0 0 0
2019/09/13 20:55:00 BASE 4.37 283 9.11 246 -13.7 99 -13.8 30 0 983.2 NA 0.0000 9999 1020 0 0 0
2019/09/13 20:56:01 BASE 4.37 289 9.11 246 -13.7 99 -13.8 30 0 983.2 NA 0.0000 9999 1050 0 0 0
2019/09/13 20:57:00 BASE 3.93 298 7.67 252 -13.7 99 -13.8 30 0 983.2 NA 0.0000 9999 980 0 0 0
2019/09/13 20:58:01 BASE 3.82 305 7.41 270 -13.7 99 -13.8 28 0 983.2 NA 0.0000 9999 920 0 0 0
2019/09/13 20:59:00 BASE 4.05 305 7.41 270 -13.7 99 -13.8 26 0 983.2 NA 0.0000 9999 890 0 0 0
2019/09/13 21:00:00 BASE 3.59 298 7.41 270 -13.7 99 -13.8 25 0 983.2 NA 0.0000 9999 920 0 0 0
2019/09/13 21:01:00 BASE 3.05 289 6.84 288 -13.7 99 -13.8 26 0 983.2 NA 0.0000 9999 890 0 0 0
2019/09/13 21:02:01 BASE 3.40 282 6.22 272 -13.7 99 -13.8 25 0 983.1 NA 0.0000 9999 890 0 0 0
2019/09/13 21:03:00 BASE 4.12 282 5.81 276 -13.7 99 -13.8 24 0 983.2 NA 0.0000 9999 920 0 0 0
2019/09/13 21:04:00 BASE 4.63 289 6.74 299 -13.7 99 -13.8 25 0 983.2 NA 0.0000 9999 920 0 0 0
2019/09/13 21:05:00 BASE 4.51 297 6.74 299 -13.7 99 -13.8 25 0 983.2 NA 0.0000 9999 790 0 0 0
2019/09/13 21:06:00 BASE 4.44 299 6.74 299 -13.7 99 -13.9 25 0 983.2 NA 0.0000 9999 790 0 0 0
2019/09/13 21:07:00 BASE 5.57 295 7.51 287 -13.7 99 -13.9 25 0 983.2 NA 0.0000 9999 460 0 0 0
2019/09/13 21:08:01 BASE 6.27 291 7.51 287 -13.7 99 -13.9 25 0 983.2 NA 0.0000 9999 850 0 0 0
2019/09/13 21:09:00 BASE 5.78 291 7.51 287 -13.7 99 -13.9 23 0 983.2 NA 0.0000 9999 950 0 0 0
2019/09/13 21:10:00 BASE 5.08 295 7.51 287 -13.7 99 -13.8 21 0 983.2 NA 0.0000 9999 850 0 0 0
2019/09/13 21:11:00 BASE 5.73 299 7.56 291 -13.7 99 -13.8 21 0 983.2 NA 0.0000 9999 890 0 0 0
2019/09/13 21:12:00 BASE 6.50 296 7.56 291 -13.7 99 -13.8 21 0 983.2 NA 0.0000 9999 920 0 0 0
2019/09/13 21:13:00 BASE 6.17 291 7.56 291 -13.7 99 -13.8 20 0 983.2 NA 0.0000 9999 890 0 0 0
2019/09/13 21:14:00 BASE 5.32 293 7.56 291 -13.7 99 -13.8 19 0 983.3 NA 0.0000 9999 980 0 0 0
2019/09/13 21:15:01 BASE 4.51 299 7.56 291 -13.7 99 -13.8 19 0 983.3 NA 0.0000 9999 980 0 0 0
2019/09/13 21:16:01 BASE 4.35 302 7.56 291 -13.7 99 -13.9 19 0 983.3 NA 0.0000 9999 950 0 0 0
2019/09/13 21:17:00 BASE 4.24 303 7.56 291 -13.7 99 -13.9 18 0 983.3 NA 0.0000 9999 920 0 0 0
2019/09/13 21:18:00 BASE 3.60 306 7.56 291 -13.7 98 -13.9 17 0 983.3 NA 0.0000 9999 950 0 0 0
2019/09/13 21:19:00 BASE 3.52 310 7.56 291 -13.7 98 -13.9 16 0 983.3 NA 0.0000 9999 980 0 0 0
2019/09/13 21:20:00 BASE 4.04 309 7.56 291 -13.7 98 -13.9 14 0 983.3 NA 0.0000 9999 980 0 0 0
2019/09/13 21:21:00 BASE 4.84 309 7.00 295 -13.7 98 -13.9 13 0 983.3 NA 0.0000 9999 980 0 0 0
2019/09/13 21:22:00 BASE 5.21 308 6.58 291 -13.7 98 -13.9 12 0 983.3 NA 0.0000 9999 980 0 0 0
2019/09/13 21:23:00 BASE 5.17 297 6.12 307 -13.7 98 -13.9 11 0 983.3 NA 0.0000 9999 950 0 0 0
2019/09/13 21:24:00 BASE 5.91 292 7.20 296 -13.6 99 -13.8 12 0 983.4 NA 0.0000 9999 920 0 0 0
2019/09/13 21:25:00 BASE 6.73 296 7.61 297 -13.6 99 -13.8 13 0 983.4 NA 0.0000 9999 950 0 0 0
2019/09/13 21:26:01 BASE 6.30 297 7.61 297 -13.6 98 -13.8 14 0 983.4 NA 0.0000 9999 890 0 0 0
2019/09/13 21:27:00 BASE 5.64 304 7.61 297 -13.6 98 -13.8 13 0 983.3 NA 0.0000 9999 890 0 0 0
2019/09/13 21:28:00 BASE 5.32 312 7.61 297 -13.6 98 -13.8 11 0 983.3 NA 0.0000 9999 950 0 0 0
2019/09/13 21:29:00 BASE 4.91 317 7.61 297 -13.6 98 -13.9 10 0 983.3 NA 0.0000 9999 950 0 0 0
2019/09/13 21:30:01 BASE 4.12 319 7.61 297 -13.7 98 -13.9 10 0 983.3 NA 0.0000 9999 950 0 0 0
2019/09/13 21:31:01 BASE 3.58 313 7.61 297 -13.6 98 -13.9 9 0 983.3 NA 0.0000 9999 980 0 0 0
2019/09/13 21:32:01 BASE 3.66 309 7.61 297 -13.6 98 -13.9 8 0 983.3 NA 0.0000 9999 950 0 0 0
2019/09/13 21:33:01 BASE 3.61 316 7.61 297 -13.6 98 -13.9 7 0 983.3 NA 0.0000 9999 950 0 0 0
2019/09/13 21:34:01 BASE 3.96 318 7.61 297 -13.6 98 -13.9 7 0 983.4 NA 0.0000 9999 950 0 0 0
2019/09/13 21:35:01 BASE 4.18 324 6.69 304 -13.6 98 -13.8 6 0 983.4 NA 0.0000 9999 980 0 0 0
2019/09/13 21:36:01 BASE 3.86 328 6.69 304 -13.6 98 -13.8 6 0 983.4 NA 0.0000 9999 980 0 0 0
2019/09/13 21:37:01 BASE 3.77 326 5.86 312 -13.6 98 -13.8 6 0 983.4 NA 0.0000 9999 1020 0 0 0
2019/09/13 21:38:01 BASE 4.47 314 5.71 305 -13.6 98 -13.8 5 0 983.4 NA 0.0000 9999 1020 0 0 0
2019/09/13 21:39:01 BASE 5.09 304 5.76 305 -13.6 98 -13.8 5 0 983.5 NA 0.0000 9999 980 0 0 0
2019/09/13 21:40:01 BASE 4.50 308 5.76 305 -13.5 98 -13.8 5 0 983.5 NA 0.0000 9999 980 0 0 0
2019/09/13 21:41:01 BASE 3.90 318 5.76 305 -13.5 98 -13.8 5 0 983.5 NA 0.0000 9999 950 0 0 0
2019/09/13 21:42:01 BASE 4.07 329 5.76 305 -13.5 98 -13.8 5 0 983.4 NA 0.0000 9999 1020 0 0 0
2019/09/13 21:43:01 BASE 3.78 334 5.76 305 -13.5 98 -13.7 4 0 983.5 NA 0.0000 9999 980 0 0 0
2019/09/13 21:44:01 BASE 3.34 332 5.76 305 -13.5 98 -13.7 4 0 983.5 NA 0.0000 9999 1020 0 0 0
2019/09/13 21:45:01 BASE 3.34 326 5.76 305 -13.5 98 -13.7 4 0 983.5 NA 0.0000 9999 1020 0 0 0
2019/09/13 21:46:01 BASE 3.40 307 5.76 305 -13.4 98 -13.7 4 0 983.5 NA 0.0000 9999 980 0 0 0
2019/09/13 21:47:01 BASE 3.32 296 5.76 305 -13.4 98 -13.7 3 0 983.5 NA 0.0000 9999 950 0 0 0
2019/09/13 21:48:01 BASE 3.57 300 5.76 305 -13.4 98 -13.6 3 0 983.5 NA 0.0000 9999 950 0 0 0
2019/09/13 21:49:01 BASE 3.85 312 5.09 329 -13.4 98 -13.6 3 0 983.5 NA 0.0000 9999 920 0 0 0
2019/09/13 21:50:01 BASE 3.89 327 5.09 329 -13.4 98 -13.6 3 0 983.5 NA 0.0000 9999 920 0 0 0
2019/09/13 21:51:01 BASE 4.03 323 4.89 322 -13.4 98 -13.6 3 0 983.5 NA 0.0000 9999 1020 0 0 0
2019/09/13 21:52:01 BASE 4.20 312 4.78 309 -13.4 98 -13.6 3 0 983.5 NA 0.0000 9999 1020 0 0 0
2019/09/13 21:53:01 BASE 3.95 313 4.78 309 -13.4 98 -13.6 3 0 983.5 NA 0.0000 9999 980 0 0 0
2019/09/13 21:54:01 BASE 3.06 319 4.78 309 -13.4 98 -13.7 2 0 983.5 NA 0.0000 9999 980 0 0 0
2019/09/13 21:55:01 BASE 3.40 325 5.20 331 -13.4 98 -13.7 2 0 983.5 NA 0.0000 9999 980 0 0 0
2019/09/13 21:56:01 BASE 4.87 333 6.02 336 -13.4 98 -13.7 2 0 983.5 NA 0.0000 9999 980 0 0 0
2019/09/13 21:57:01 BASE 5.55 337 6.02 336 -13.4 98 -13.7 2 0 983.5 NA 0.0000 9999 980 0 0 0
2019/09/13 21:58:01 BASE 5.35 334 6.02 336 -13.4 97 -13.7 2 0 983.6 NA 0.0000 9999 980 0 0 0
2019/09/13 21:59:01 BASE 4.94 334 6.02 336 -13.4 97 -13.7 2 0 983.6 NA 0.0000 9999 980 0 0 0
2019/09/13 22:00:01 BASE 4.61 337 6.02 336 -13.4 97 -13.7 2 0 983.7 NA 0.0000 9999 950 0 0 0
2019/09/13 22:01:01 BASE 4.48 343 6.02 336 -13.4 97 -13.7 2 0 983.7 NA 0.0000 9999 950 0 0 0
2019/09/13 22:02:01 BASE 4.40 352 6.02 336 -13.4 97 -13.7 1 0 983.7 NA 0.0000 9999 980 0 0 0
2019/09/13 22:03:00 BASE 4.59 359 6.02 336 -13.4 97 -13.7 1 0 983.7 NA 0.0000 9999 1020 0 0 0
2019/09/13 22:04:01 BASE 4.74 358 6.02 336 -13.4 97 -13.8 1 0 983.7 NA 0.0000 9999 1020 0 0 0
2019/09/13 22:05:00 BASE 4.78 354 6.02 336 -13.4 97 -13.8 1 0 983.7 NA 0.0000 9999 1020 0 0 0
2019/09/13 22:06:01 BASE 4.97 358 5.92 2 -13.4 97 -13.8 1 0 983.7 NA 0.0000 9999 1020 0 0 0
2019/09/13 22:07:01 BASE 5.05 360 6.07 351 -13.4 97 -13.8 1 0 983.7 NA 0.0000 9999 1120 0 0 0
2019/09/13 22:08:01 BASE 5.06 355 6.07 351 -13.4 97 -13.8 1 0 983.7 NA 0.0000 9999 1080 0 0 0
2019/09/13 22:09:01 BASE 5.15 354 6.07 351 -13.4 97 -13.8 1 0 983.7 NA 0.0000 9999 1080 0 0 0
2019/09/13 22:10:01 BASE 4.85 358 6.07 351 -13.4 97 -13.8 1 0 983.7 NA 0.0000 9999 1020 0 0 0
2019/09/13 22:11:01 BASE 4.71 359 6.07 351 -13.4 97 -13.8 1 0 983.7 NA 0.0000 9999 1020 0 0 0
2019/09/13 22:12:00 BASE 4.74 3 6.07 351 -13.4 97 -13.8 1 0 983.7 NA 0.0000 9999 980 0 0 0
2019/09/13 22:13:00 BASE 4.83 8 6.07 351 -13.4 97 -13.8 1 0 983.7 NA 0.0000 9999 1080 0 0 0
2019/09/13 22:14:00 BASE 5.28 12 6.07 351 -13.4 97 -13.8 0 0 983.7 NA 0.0000 9999 1050 0 0 0
2019/09/13 22:15:00 BASE 5.27 14 6.07 351 -13.4 97 -13.8 0 0 983.7 NA 0.0000 9999 1020 0 0 0
2019/09/13 22:16:01 BASE 5.32 10 6.17 9 -13.4 97 -13.8 0 0 983.8 NA 0.0000 9999 1050 0 0 0
2019/09/13 22:17:00 BASE 5.57 10 6.17 9 -13.4 97 -13.8 0 0 983.9 NA 0.0000 9999 1120 0 0 0
2019/09/13 22:18:00 BASE 5.43 10 6.17 9 -13.4 97 -13.8 0 0 983.9 NA 0.0000 9999 1050 0 0 0
2019/09/13 22:19:00 BASE 5.21 12 6.17 9 -13.4 97 -13.7 0 0 983.9 NA 0.0000 9999 1080 0 0 0
2019/09/13 22:20:00 BASE 5.39 15 6.17 9 -13.3 97 -13.7 0 0 983.9 NA 0.0000 9999 1050 0 0 0
2019/09/13 22:21:00 BASE 5.79 13 6.28 10 -13.3 97 -13.7 0 0 983.8 NA 0.0000 9999 1080 0 0 0
2019/09/13 22:22:01 BASE 5.82 12 6.94 14 -13.3 97 -13.7 0 0 983.8 NA 0.0000 9999 1120 0 0 0
2019/09/13 22:23:00 BASE 6.00 8 6.94 14 -13.3 97 -13.6 0 0 983.9 NA 0.0000 9999 1050 0 0 0
2019/09/13 22:24:01 BASE 6.34 3 7.05 2 -13.2 97 -13.6 0 0 983.9 NA 0.0000 9999 1050 0 0 0
2019/09/13 22:25:00 BASE 5.96 5 7.05 2 -13.2 97 -13.6 0 0 983.9 NA 0.0000 9999 1120 0 0 0
2019/09/13 22:26:00 BASE 5.28 9 7.05 2 -13.2 97 -13.6 0 0 983.9 NA 0.0000 9999 1050 0 0 0
2019/09/13 22:27:00 BASE 5.62 8 7.05 2 -13.2 97 -13.5 0 0 983.9 NA 0.0000 9999 1050 0 0 0
2019/09/13 22:28:01 BASE 5.78 360 7.05 2 -13.1 97 -13.5 0 0 983.9 NA 0.0000 9999 1050 0 0 0
2019/09/13 22:29:00 BASE 5.63 360 7.05 2 -13.1 97 -13.5 0 0 984.0 NA 0.0000 9999 1020 0 0 0
2019/09/13 22:30:00 BASE 5.74 4 7.05 2 -13.1 97 -13.5 0 0 984.0 NA 0.0000 9999 980 0 0 0
2019/09/13 22:31:00 BASE 5.17 1 7.05 2 -13.1 97 -13.5 0 0 984.0 NA 0.0000 9999 950 0 0 0
2019/09/13 22:32:00 BASE 4.98 2 7.05 2 -13.1 97 -13.4 0 0 984.0 NA 0.0000 9999 950 0 0 0
2019/09/13 22:33:00 BASE 5.57 357 7.05 2 -13.1 97 -13.4 0 0 984.0 NA 0.0000 9999 950 0 0 0
2019/09/13 22:34:01 BASE 5.44 345 6.69 360 -13.0 97 -13.4 0 0 984.0 NA 0.0000 9999 950 0 0 0
2019/09/13 22:35:00 BASE 4.78 341 6.69 360 -13.0 97 -13.4 0 0 984.0 NA 0.0000 9999 980 0 0 0
2019/09/13 22:36:00 BASE 4.54 353 6.69 360 -13.0 97 -13.4 0 0 984.1 NA 0.0000 9999 950 0 0 0
2019/09/13 22:37:00 BASE 4.96 357 6.58 348 -13.0 97 -13.4 0 0 984.1 NA 0.0000 9999 920 0 0 0
2019/09/13 22:38:00 BASE 5.03 351 6.58 348 -13.0 97 -13.4 0 0 984.1 NA 0.0000 9999 980 0 0 0
2019/09/13 22:39:00 BASE 4.56 1 6.58 348 -13.0 97 -13.4 0 0 984.1 NA 0.0000 9999 1020 0 0 0
2019/09/13 22:40:00 BASE 4.80 11 6.58 348 -13.0 97 -13.4 0 0 984.1 NA 0.0000 9999 1020 0 0 0
2019/09/13 22:41:00 BASE 4.74 9 6.58 348 -13.0 97 -13.3 0 0 984.1 NA 0.0000 9999 1050 0 0 0
2019/09/13 22:42:01 BASE 4.35 355 6.58 348 -12.9 97 -13.3 0 0 984.1 NA 0.0000 9999 1020 0 0 0
2019/09/13 22:43:00 BASE 4.25 353 6.07 352 -12.9 97 -13.3 0 0 984.1 NA 0.0000 9999 1050 0 0 0
2019/09/13 22:44:00 BASE 4.47 1 6.07 352 -12.9 97 -13.3 0 0 984.1 NA 0.0000 9999 1050 0 0 0
2019/09/13 22:45:00 BASE 4.98 357 6.07 352 -12.9 97 -13.3 0 0 984.1 NA 0.0000 9999 1020 0 0 0
2019/09/13 22:46:00 BASE 5.21 346 6.12 329 -12.9 97 -13.2 0 0 984.1 NA 0.0000 9999 1020 0 0 0
2019/09/13 22:47:00 BASE 5.18 335 6.28 324 -12.9 97 -13.2 0 0 984.1 NA 0.0000 9999 950 0 0 0
2019/09/13 22:48:00 BASE 4.54 327 6.28 324 -12.9 97 -13.2 0 0 984.1 NA 0.0000 9999 920 0 0 0
2019/09/13 22:49:01 BASE 3.97 339 6.28 324 -12.9 97 -13.2 0 0 984.1 NA 0.0000 9999 950 0 0 0
2019/09/13 22:50:00 BASE 4.30 355 6.28 324 -12.9 97 -13.2 0 0 984.2 NA 0.0000 9999 950 0 0 0
2019/09/13 22:51:00 BASE 3.96 352 6.28 324 -12.9 97 -13.3 0 0 984.2 NA 0.0000 -SN 9999 950 0 0 0
2019/09/13 22:52:01 BASE 3.16 337 6.28 324 -12.9 97 -13.3 0 0 984.2 NA 0.0000 -SN 9999 950 0 0 0
2019/09/13 22:53:00 BASE 3.11 325 6.28 324 -12.9 97 -13.2 0 0 984.2 NA 0.0000 -SN 9999 1050 0 0 0
2019/09/13 22:54:01 BASE 2.99 329 6.28 324 -12.8 97 -13.2 0 0 984.2 NA 0.0000 -SN 9999 1120 0 0 0
2019/09/13 22:55:00 BASE 3.17 341 6.28 324 -12.8 97 -13.2 0 0 984.2 NA 0.0000 -SN 9999 1050 0 0 0
2019/09/13 22:56:00 BASE 3.07 346 6.28 324 -12.8 97 -13.2 0 0 984.2 NA 0.0000 -SN 9999 1050 0 0 0
2019/09/13 22:57:00 BASE 2.81 349 5.20 2 -12.8 97 -13.2 0 0 984.2 NA 0.0000 -SN 9999 1050 0 0 0
2019/09/13 22:58:00 BASE 3.42 340 5.20 2 -12.8 97 -13.1 0 0 984.2 NA 0.0000 -SN 9999 950 0 0 0
2019/09/13 22:59:00 BASE 3.54 333 5.20 2 -12.7 97 -13.1 0 0 984.3 NA 0.0000 -SN 9999 1080 0 0 0
2019/09/13 23:00:00 BASE 3.86 336 5.14 348 -12.7 97 -13.1 0 0 984.3 NA 0.0000 -SN 9999 1210 0 0 0
2019/09/13 23:01:00 BASE 3.91 332 5.14 348 -12.7 97 -13.1 0 0 984.3 NA 0.0000 -SN 9999 980 0 0 0
2019/09/13 23:02:00 BASE 3.52 333 5.14 348 -12.7 97 -13.1 0 0 984.3 NA 0.0000 -SN 9999 1020 0 0 0
2019/09/13 23:03:00 BASE 3.85 343 5.14 348 -12.7 97 -13.1 0 0 984.3 NA 0.0000 -SN 9999 1080 0 0 0
2019/09/13 23:04:00 BASE 4.28 345 5.14 348 -12.7 97 -13.1 0 0 984.4 NA 0.0000 -SN 9999 1180 0 0 0
2019/09/13 23:05:00 BASE 4.40 346 5.14 348 -12.7 97 -13.1 0 0 984.5 NA 0.0000 9999 1080 0 0 0
2019/09/13 23:06:00 BASE 4.08 337 5.14 348 -12.7 97 -13.1 0 0 984.5 NA 0.0000 9999 1050 0 0 0
2019/09/13 23:07:00 BASE 4.70 331 6.43 330 -12.7 97 -13.0 0 0 984.4 NA 0.0000 9999 1120 0 0 0
2019/09/13 23:08:00 BASE 6.04 323 7.41 298 -12.6 97 -13.0 0 0 984.4 NA 0.0000 9999 1150 0 0 0
2019/09/13 23:09:00 BASE 6.26 290 7.41 298 -12.6 97 -12.9 0 0 984.5 NA 0.0000 9999 1120 0 0 0
2019/09/13 23:10:00 BASE 6.13 277 7.82 271 -12.5 97 -12.8 0 0 984.5 NA 0.0000 9999 1120 0 0 0
2019/09/13 23:11:00 BASE 5.75 278 7.82 271 -12.4 98 -12.7 0 0 984.5 NA 0.0000 9999 1120 0 0 0
2019/09/13 23:12:00 BASE 4.75 277 7.82 271 -12.3 98 -12.6 0 0 984.5 NA 0.0000 9999 1150 0 0 0
2019/09/13 23:13:00 BASE 4.00 275 7.82 271 -12.2 98 -12.5 0 0 984.5 NA 0.0000 9999 1080 0 0 0
2019/09/13 23:14:00 BASE 4.23 276 7.82 271 -12.2 97 -12.5 0 0 984.5 NA 0.0000 9999 980 0 0 0
2019/09/13 23:15:00 BASE 5.44 281 7.82 271 -12.2 97 -12.5 0 0 984.5 NA 0.0000 9999 1080 0 0 0
2019/09/13 23:16:00 BASE 5.80 280 7.82 271 -12.2 97 -12.6 0 0 984.5 NA 0.0000 9999 1180 0 0 0
2019/09/13 23:17:00 BASE 5.99 274 7.82 271 -12.2 97 -12.6 0 0 984.5 NA 0.0000 9999 1150 0 0 0
2019/09/13 23:18:00 BASE 6.53 275 7.82 271 -12.2 97 -12.6 0 0 984.5 NA 0.0000 9999 1310 0 0 0
2019/09/13 23:19:00 BASE 6.00 281 7.82 271 -12.2 97 -12.6 0 0 984.6 NA 0.0000 9999 1280 0 0 0
2019/09/13 23:20:00 BASE 5.22 270 7.61 257 -12.2 97 -12.6 0 0 984.6 NA 0.0000 9999 1250 0 0 0
2019/09/13 23:21:00 BASE 4.78 259 7.61 257 -12.2 97 -12.5 0 0 984.5 NA 0.0000 9999 1250 0 0 0
2019/09/13 23:22:00 BASE 4.71 275 7.61 257 -12.2 97 -12.5 0 0 984.5 NA 0.0000 9999 1250 0 0 0
2019/09/13 23:23:00 BASE 4.89 284 7.61 257 -12.1 97 -12.5 0 0 984.5 NA 0.0000 9999 1210 0 0 0
2019/09/13 23:24:00 BASE 5.23 273 7.61 257 -12.1 97 -12.5 0 0 984.5 NA 0.0000 9999 1150 0 0 0
2019/09/13 23:25:00 BASE 4.93 271 7.61 257 -12.1 97 -12.5 0 0 984.5 NA 0.0000 9999 1210 0 0 0
2019/09/13 23:26:00 BASE 4.41 275 7.61 257 -12.2 97 -12.5 0 0 984.5 NA 0.0000 9999 1250 0 0 0
2019/09/13 23:27:00 BASE 3.41 268 7.41 277 -12.2 97 -12.5 0 0 984.5 NA 0.0000 9999 1250 0 0 0
2019/09/13 23:28:00 BASE 2.47 258 6.89 283 -12.2 97 -12.6 0 0 984.6 NA 0.0000 9999 1250 0 0 0
2019/09/13 23:29:00 BASE 2.70 256 6.79 260 -12.2 97 -12.6 0 0 984.6 NA 0.0000 9999 1250 0 0 0
2019/09/13 23:30:00 BASE 3.34 256 6.79 260 -12.2 97 -12.6 0 0 984.6 NA 0.0000 9999 1250 0 0 0
2019/09/13 23:31:00 BASE 4.53 255 9.21 267 -12.2 97 -12.6 0 0 984.6 NA 0.0000 9999 1280 0 0 0
2019/09/13 23:32:00 BASE 6.68 253 9.21 267 -12.2 96 -12.6 0 0 984.6 NA 0.0000 9999 1310 0 0 0
2019/09/13 23:33:00 BASE 7.04 266 9.21 267 -12.2 96 -12.6 0 0 984.7 NA 0.0000 9999 1280 0 0 0
2019/09/13 23:34:00 BASE 7.01 292 9.21 267 -12.2 96 -12.7 0 0 984.7 NA 0.0000 9999 1310 0 0 0
2019/09/13 23:35:00 BASE 7.87 299 9.21 267 -12.2 96 -12.7 0 0 984.7 NA 0.0000 9999 1310 0 0 0
2019/09/13 23:36:00 BASE 7.77 295 9.21 267 -12.2 96 -12.8 0 0 984.7 NA 0.0000 9999 260 1310 0 0
2019/09/13 23:37:00 BASE 7.99 292 9.21 267 -12.3 96 -12.9 0 0 984.7 NA 0.0000 9999 0 0 0 1800
2019/09/13 23:38:00 BASE 7.78 288 9.21 267 -12.4 96 -12.9 0 0 984.7 NA 0.0000 9999 0 0 0 1410
2019/09/13 23:39:00 BASE 7.54 289 9.21 267 -12.4 96 -13.0 0 0 984.7 NA 0.0000 -SN 9999 0 0 0 1770
2019/09/13 23:40:00 BASE 7.64 289 9.21 267 -12.4 96 -13.0 0 0 984.8 NA 0.0000 -SN 8000 230 1310 0 0
2019/09/13 23:41:00 BASE 7.22 283 9.11 248 -12.4 96 -12.9 0 0 984.8 NA 0.0000 -SN 8000 260 1310 0 0
2019/09/13 23:42:00 BASE 6.52 280 8.95 287 -12.4 96 -12.8 0 0 984.8 NA 0.0000 -SN 9999 230 1050 0 0
2019/09/13 23:43:00 BASE 6.38 284 8.95 287 -12.4 97 -12.8 0 0 984.8 NA 0.0000 -SN 9999 260 1380 0 0
2019/09/13 23:44:00 BASE 6.54 288 8.95 287 -12.4 97 -12.8 0 0 984.8 NA 0.0000 -SN 9999 1280 0 0 0
2019/09/13 23:45:00 BASE 6.90 285 8.95 287 -12.3 97 -12.7 0 0 984.8 NA 0.0000 -SN 9000 300 1350 0 0
2019/09/13 23:46:00 BASE 7.06 283 8.95 287 -12.3 97 -12.7 0 0 984.8 NA 0.0000 -SN 9999 0 0 0 1800
2019/09/13 23:47:00 BASE 7.06 284 8.44 289 -12.3 98 -12.6 0 0 984.8 NA 0.0000 -SN BR 9999 0 0 0 1770
2019/09/13 23:48:00 BASE 7.12 287 8.44 289 -12.3 98 -12.6 0 0 984.8 NA 0.0000 -SN BR 9000 0 0 0 1540
2019/09/13 23:49:00 BASE 7.16 288 8.44 289 -12.4 98 -12.6 0 0 984.8 NA 0.0000 -SN BR 9999 0 0 0 1280
2019/09/13 23:50:00 BASE 6.84 286 8.44 289 -12.4 98 -12.6 0 0 984.9 NA 0.0000 -SN BR 9999 0 0 0 1350
2019/09/13 23:51:00 BASE 7.43 277 9.41 253 -12.4 98 -12.6 0 0 984.9 NA 0.0000 -SN 9999 0 0 0 1540
2019/09/13 23:52:01 BASE 8.34 266 9.41 254 -12.4 98 -12.6 0 0 984.9 NA 0.0000 -SN 9999 0 0 0 1440
2019/09/13 23:53:00 BASE 8.22 261 9.41 254 -12.4 99 -12.6 0 0 984.9 NA 0.0000 -SN 9999 0 0 0 1510
2019/09/13 23:54:00 BASE 7.99 262 9.77 262 -12.4 99 -12.6 0 0 984.9 NA 0.0000 -SN 9999 330 1150 0 0
2019/09/13 23:55:00 BASE 8.26 266 10.44 271 -12.4 99 -12.6 0 0 984.9 NA 0.0000 -SN 9999 230 0 0 0
2019/09/13 23:56:01 BASE 8.14 268 10.44 271 -12.5 99 -12.6 0 0 985.0 NA 0.0000 -SN 9999 0 0 0 1840
2019/09/13 23:57:00 BASE 8.45 266 11.16 265 -12.5 99 -12.6 0 0 985.0 NA 0.0000 -SN 9999 1410 0 0 0
2019/09/13 23:58:01 BASE 9.36 269 11.16 265 -12.5 99 -12.6 0 0 985.0 NA 0.0000 -SN 9999 1310 0 0 0
2019/09/13 23:59:00 BASE 9.56 274 11.16 265 -12.5 99 -12.6 0 0 985.1 NA 0.0000 -SN 9999 1410 0 0 0